<?xml version='1.0' encoding='UTF-8'?><gpx version="1.1" creator="JPX - https://github.com/jenetics/jpx" xmlns="http://www.topografix.com/GPX/1/1"><trk><trkseg><trkpt lat="45.126684" lon="8.6251806"><ele>103.00000000000001</ele><time>2026-05-03T09:03:26.173Z</time></trkpt><trkpt lat="45.1268045" lon="8.6251591"><ele>103.0</ele><time>2026-05-03T09:03:28.172Z</time></trkpt><trkpt lat="45.1268768" lon="8.6251381"><ele>103.0</ele><time>2026-05-03T09:03:29.172Z</time></trkpt><trkpt lat="45.1269569" lon="8.625123"><ele>103.0</ele><time>2026-05-03T09:03:30.172Z</time></trkpt><trkpt lat="45.1270367" lon="8.6251016"><ele>103.00000000000001</ele><time>2026-05-03T09:03:31.172Z</time></trkpt><trkpt lat="45.1271247" lon="8.6250846"><ele>103.0</ele><time>2026-05-03T09:03:32.173Z</time></trkpt><trkpt lat="45.1271968" lon="8.6250693"><ele>103.00000000000001</ele><time>2026-05-03T09:03:33.173Z</time></trkpt><trkpt lat="45.1272718" lon="8.6250629"><ele>103.0</ele><time>2026-05-03T09:03:34.172Z</time></trkpt><trkpt lat="45.1273763" lon="8.625054"><ele>103.0</ele><time>2026-05-03T09:03:36.173Z</time></trkpt><trkpt lat="45.1274406" lon="8.6250839"><ele>103.0</ele><time>2026-05-03T09:03:38.173Z</time></trkpt><trkpt lat="45.1274761" lon="8.6252386"><ele>103.00000000000001</ele><time>2026-05-03T09:03:41.172Z</time></trkpt><trkpt lat="45.1274848" lon="8.6253291"><ele>103.0</ele><time>2026-05-03T09:03:42.173Z</time></trkpt><trkpt lat="45.1274896" lon="8.6254275"><ele>103.33333333333334</ele><time>2026-05-03T09:03:43.172Z</time></trkpt><trkpt lat="45.1274951" lon="8.6255285"><ele>103.66666666666667</ele><time>2026-05-03T09:03:44.172Z</time></trkpt><trkpt lat="45.1275024" lon="8.6256428"><ele>104.0</ele><time>2026-05-03T09:03:45.173Z</time></trkpt><trkpt lat="45.1275098" lon="8.6257596"><ele>104.33333333333334</ele><time>2026-05-03T09:03:46.173Z</time></trkpt><trkpt lat="45.1275211" lon="8.6258844"><ele>104.66666666666667</ele><time>2026-05-03T09:03:47.173Z</time></trkpt><trkpt lat="45.1275379" lon="8.6260113"><ele>105.0</ele><time>2026-05-03T09:03:48.172Z</time></trkpt><trkpt lat="45.1275561" lon="8.6261446"><ele>104.8</ele><time>2026-05-03T09:03:49.172Z</time></trkpt><trkpt lat="45.1275796" lon="8.6262878"><ele>104.6</ele><time>2026-05-03T09:03:50.173Z</time></trkpt><trkpt lat="45.1276039" lon="8.626433"><ele>104.4</ele><time>2026-05-03T09:03:51.173Z</time></trkpt><trkpt lat="45.1276284" lon="8.6265903"><ele>104.2</ele><time>2026-05-03T09:03:52.173Z</time></trkpt><trkpt lat="45.1276548" lon="8.6267592"><ele>104.0</ele><time>2026-05-03T09:03:53.172Z</time></trkpt><trkpt lat="45.1276851" lon="8.6269241"><ele>104.0</ele><time>2026-05-03T09:03:54.173Z</time></trkpt><trkpt lat="45.1277319" lon="8.6270905"><ele>104.0</ele><time>2026-05-03T09:03:55.173Z</time></trkpt><trkpt lat="45.1277961" lon="8.6272489"><ele>104.0</ele><time>2026-05-03T09:03:56.172Z</time></trkpt><trkpt lat="45.1278609" lon="8.6274075"><ele>104.0</ele><time>2026-05-03T09:03:57.173Z</time></trkpt><trkpt lat="45.1279245" lon="8.627569"><ele>104.0</ele><time>2026-05-03T09:03:58.172Z</time></trkpt><trkpt lat="45.127988" lon="8.6277323"><ele>104.0</ele><time>2026-05-03T09:03:59.173Z</time></trkpt><trkpt lat="45.1280494" lon="8.6278784"><ele>104.0</ele><time>2026-05-03T09:04:00.172Z</time></trkpt><trkpt lat="45.1281033" lon="8.628016"><ele>104.0</ele><time>2026-05-03T09:04:01.172Z</time></trkpt><trkpt lat="45.1281536" lon="8.6281415"><ele>103.80000000000001</ele><time>2026-05-03T09:04:02.173Z</time></trkpt><trkpt lat="45.1282128" lon="8.6282577"><ele>103.60000000000001</ele><time>2026-05-03T09:04:03.173Z</time></trkpt><trkpt lat="45.1282861" lon="8.6283604"><ele>103.4</ele><time>2026-05-03T09:04:04.173Z</time></trkpt><trkpt lat="45.1283842" lon="8.6284442"><ele>103.2</ele><time>2026-05-03T09:04:05.173Z</time></trkpt><trkpt lat="45.1285037" lon="8.6285165"><ele>103.0</ele><time>2026-05-03T09:04:06.172Z</time></trkpt><trkpt lat="45.1286281" lon="8.6285811"><ele>103.0</ele><time>2026-05-03T09:04:07.172Z</time></trkpt><trkpt lat="45.1287576" lon="8.6286509"><ele>103.0</ele><time>2026-05-03T09:04:08.173Z</time></trkpt><trkpt lat="45.1288937" lon="8.6287337"><ele>103.0</ele><time>2026-05-03T09:04:09.173Z</time></trkpt><trkpt lat="45.1290224" lon="8.6288446"><ele>103.0</ele><time>2026-05-03T09:04:10.172Z</time></trkpt><trkpt lat="45.1291364" lon="8.6289833"><ele>103.0</ele><time>2026-05-03T09:04:11.172Z</time></trkpt><trkpt lat="45.1292446" lon="8.62914"><ele>103.0</ele><time>2026-05-03T09:04:12.173Z</time></trkpt><trkpt lat="45.1293564" lon="8.6293015"><ele>103.0</ele><time>2026-05-03T09:04:13.173Z</time></trkpt><trkpt lat="45.1294653" lon="8.6294617"><ele>102.75</ele><time>2026-05-03T09:04:14.173Z</time></trkpt><trkpt lat="45.1295721" lon="8.6296127"><ele>102.5</ele><time>2026-05-03T09:04:15.172Z</time></trkpt><trkpt lat="45.1296746" lon="8.6297646"><ele>102.25</ele><time>2026-05-03T09:04:16.173Z</time></trkpt><trkpt lat="45.1297641" lon="8.6299056"><ele>102.0</ele><time>2026-05-03T09:04:17.172Z</time></trkpt><trkpt lat="45.1298454" lon="8.6300359"><ele>102.0</ele><time>2026-05-03T09:04:18.172Z</time></trkpt><trkpt lat="45.1299112" lon="8.6301482"><ele>102.0</ele><time>2026-05-03T09:04:19.173Z</time></trkpt><trkpt lat="45.1299785" lon="8.6302449"><ele>102.0</ele><time>2026-05-03T09:04:20.173Z</time></trkpt><trkpt lat="45.130047" lon="8.6303432"><ele>102.0</ele><time>2026-05-03T09:04:21.173Z</time></trkpt><trkpt lat="45.1301212" lon="8.6304518"><ele>102.0</ele><time>2026-05-03T09:04:22.172Z</time></trkpt><trkpt lat="45.130208" lon="8.6305695"><ele>102.0</ele><time>2026-05-03T09:04:23.173Z</time></trkpt><trkpt lat="45.1303009" lon="8.6307004"><ele>102.0</ele><time>2026-05-03T09:04:24.173Z</time></trkpt><trkpt lat="45.1303983" lon="8.6308374"><ele>102.0</ele><time>2026-05-03T09:04:25.173Z</time></trkpt><trkpt lat="45.1305014" lon="8.6309754"><ele>102.0</ele><time>2026-05-03T09:04:26.173Z</time></trkpt><trkpt lat="45.1306029" lon="8.631108"><ele>102.0</ele><time>2026-05-03T09:04:27.173Z</time></trkpt><trkpt lat="45.1307007" lon="8.6312347"><ele>102.0</ele><time>2026-05-03T09:04:28.172Z</time></trkpt><trkpt lat="45.1307973" lon="8.6313545"><ele>102.0</ele><time>2026-05-03T09:04:29.172Z</time></trkpt><trkpt lat="45.1308886" lon="8.6314608"><ele>102.0</ele><time>2026-05-03T09:04:30.173Z</time></trkpt><trkpt lat="45.1309752" lon="8.6315626"><ele>102.19999999999999</ele><time>2026-05-03T09:04:31.172Z</time></trkpt><trkpt lat="45.1310564" lon="8.6316633"><ele>102.4</ele><time>2026-05-03T09:04:32.173Z</time></trkpt><trkpt lat="45.13113" lon="8.6317679"><ele>102.6</ele><time>2026-05-03T09:04:33.173Z</time></trkpt><trkpt lat="45.1311947" lon="8.631871"><ele>102.80000000000001</ele><time>2026-05-03T09:04:34.172Z</time></trkpt><trkpt lat="45.1312464" lon="8.6319883"><ele>103.0</ele><time>2026-05-03T09:04:35.173Z</time></trkpt><trkpt lat="45.131286" lon="8.6320925"><ele>103.00000000000001</ele><time>2026-05-03T09:04:36.173Z</time></trkpt><trkpt lat="45.1313393" lon="8.6321679"><ele>103.0</ele><time>2026-05-03T09:04:37.172Z</time></trkpt><trkpt lat="45.1314032" lon="8.6321952"><ele>103.0</ele><time>2026-05-03T09:04:38.173Z</time></trkpt><trkpt lat="45.1314701" lon="8.6321586"><ele>103.0</ele><time>2026-05-03T09:04:39.173Z</time></trkpt><trkpt lat="45.1315202" lon="8.6320721"><ele>103.00000000000001</ele><time>2026-05-03T09:04:40.172Z</time></trkpt><trkpt lat="45.1315278" lon="8.6319502"><ele>103.0</ele><time>2026-05-03T09:04:41.173Z</time></trkpt><trkpt lat="45.1315201" lon="8.6318141"><ele>103.0</ele><time>2026-05-03T09:04:42.172Z</time></trkpt><trkpt lat="45.1315219" lon="8.6316488"><ele>103.0</ele><time>2026-05-03T09:04:43.173Z</time></trkpt><trkpt lat="45.1315532" lon="8.6314484"><ele>103.0</ele><time>2026-05-03T09:04:44.173Z</time></trkpt><trkpt lat="45.1316185" lon="8.6312194"><ele>103.0</ele><time>2026-05-03T09:04:45.172Z</time></trkpt><trkpt lat="45.1317027" lon="8.6309641"><ele>102.33333333333334</ele><time>2026-05-03T09:04:46.172Z</time></trkpt><trkpt lat="45.1317955" lon="8.6307034"><ele>101.66666666666666</ele><time>2026-05-03T09:04:47.172Z</time></trkpt><trkpt lat="45.1318946" lon="8.6304221"><ele>101.0</ele><time>2026-05-03T09:04:48.173Z</time></trkpt><trkpt lat="45.1320011" lon="8.6301336"><ele>101.0</ele><time>2026-05-03T09:04:49.173Z</time></trkpt><trkpt lat="45.1321182" lon="8.629844"><ele>101.0</ele><time>2026-05-03T09:04:50.173Z</time></trkpt><trkpt lat="45.1322485" lon="8.6295493"><ele>99.5</ele><time>2026-05-03T09:04:51.173Z</time></trkpt><trkpt lat="45.1323844" lon="8.6292522"><ele>98.0</ele><time>2026-05-03T09:04:52.172Z</time></trkpt><trkpt lat="45.1325299" lon="8.6289593"><ele>98.0</ele><time>2026-05-03T09:04:53.173Z</time></trkpt><trkpt lat="45.1326771" lon="8.6286693"><ele>98.0</ele><time>2026-05-03T09:04:54.173Z</time></trkpt><trkpt lat="45.1328323" lon="8.6283818"><ele>98.0</ele><time>2026-05-03T09:04:55.173Z</time></trkpt><trkpt lat="45.1329939" lon="8.6280989"><ele>98.0</ele><time>2026-05-03T09:04:56.172Z</time></trkpt><trkpt lat="45.13316" lon="8.6278165"><ele>99.5</ele><time>2026-05-03T09:04:57.173Z</time></trkpt><trkpt lat="45.1333277" lon="8.6275306"><ele>101.0</ele><time>2026-05-03T09:04:58.173Z</time></trkpt><trkpt lat="45.133499" lon="8.6272476"><ele>100.0</ele><time>2026-05-03T09:04:59.173Z</time></trkpt><trkpt lat="45.1336685" lon="8.6269676"><ele>99.0</ele><time>2026-05-03T09:05:00.173Z</time></trkpt><trkpt lat="45.1338359" lon="8.6266813"><ele>99.0</ele><time>2026-05-03T09:05:01.172Z</time></trkpt><trkpt lat="45.1339994" lon="8.6264003"><ele>99.0</ele><time>2026-05-03T09:05:02.172Z</time></trkpt><trkpt lat="45.1341635" lon="8.6261171"><ele>99.0</ele><time>2026-05-03T09:05:03.173Z</time></trkpt><trkpt lat="45.1343278" lon="8.6258356"><ele>99.0</ele><time>2026-05-03T09:05:04.173Z</time></trkpt><trkpt lat="45.1344902" lon="8.6255505"><ele>99.0</ele><time>2026-05-03T09:05:05.172Z</time></trkpt><trkpt lat="45.1346537" lon="8.6252672"><ele>99.0</ele><time>2026-05-03T09:05:06.173Z</time></trkpt><trkpt lat="45.1348154" lon="8.6249903"><ele>99.0</ele><time>2026-05-03T09:05:07.172Z</time></trkpt><trkpt lat="45.1349771" lon="8.6247179"><ele>99.0</ele><time>2026-05-03T09:05:08.172Z</time></trkpt><trkpt lat="45.1351413" lon="8.6244459"><ele>99.0</ele><time>2026-05-03T09:05:09.172Z</time></trkpt><trkpt lat="45.1353034" lon="8.6241724"><ele>99.0</ele><time>2026-05-03T09:05:10.173Z</time></trkpt><trkpt lat="45.1354618" lon="8.6239024"><ele>98.5</ele><time>2026-05-03T09:05:11.173Z</time></trkpt><trkpt lat="45.1356194" lon="8.6236294"><ele>98.0</ele><time>2026-05-03T09:05:12.172Z</time></trkpt><trkpt lat="45.1357754" lon="8.6233619"><ele>98.0</ele><time>2026-05-03T09:05:13.173Z</time></trkpt><trkpt lat="45.1359296" lon="8.6230968"><ele>98.0</ele><time>2026-05-03T09:05:14.173Z</time></trkpt><trkpt lat="45.1360845" lon="8.6228374"><ele>97.0</ele><time>2026-05-03T09:05:15.173Z</time></trkpt><trkpt lat="45.13625" lon="8.6225963"><ele>96.0</ele><time>2026-05-03T09:05:16.173Z</time></trkpt><trkpt lat="45.1364301" lon="8.6223811"><ele>95.5</ele><time>2026-05-03T09:05:17.173Z</time></trkpt><trkpt lat="45.136624" lon="8.6222031"><ele>95.0</ele><time>2026-05-03T09:05:18.172Z</time></trkpt><trkpt lat="45.1368386" lon="8.6220531"><ele>95.5</ele><time>2026-05-03T09:05:19.172Z</time></trkpt><trkpt lat="45.1370639" lon="8.6219544"><ele>96.0</ele><time>2026-05-03T09:05:20.173Z</time></trkpt><trkpt lat="45.137302" lon="8.6218817"><ele>96.5</ele><time>2026-05-03T09:05:21.173Z</time></trkpt><trkpt lat="45.1375508" lon="8.6218289"><ele>97.0</ele><time>2026-05-03T09:05:22.173Z</time></trkpt><trkpt lat="45.137801" lon="8.6217915"><ele>97.0</ele><time>2026-05-03T09:05:23.173Z</time></trkpt><trkpt lat="45.1380495" lon="8.6217572"><ele>97.0</ele><time>2026-05-03T09:05:24.172Z</time></trkpt><trkpt lat="45.1383004" lon="8.6217204"><ele>97.0</ele><time>2026-05-03T09:05:25.172Z</time></trkpt><trkpt lat="45.1385477" lon="8.6216812"><ele>97.0</ele><time>2026-05-03T09:05:26.173Z</time></trkpt><trkpt lat="45.1387943" lon="8.6216433"><ele>97.0</ele><time>2026-05-03T09:05:27.173Z</time></trkpt><trkpt lat="45.1390377" lon="8.6216054"><ele>97.0</ele><time>2026-05-03T09:05:28.173Z</time></trkpt><trkpt lat="45.1392787" lon="8.6215627"><ele>97.0</ele><time>2026-05-03T09:05:29.173Z</time></trkpt><trkpt lat="45.1395142" lon="8.6215178"><ele>97.0</ele><time>2026-05-03T09:05:30.173Z</time></trkpt><trkpt lat="45.1397418" lon="8.6214751"><ele>97.66666666666667</ele><time>2026-05-03T09:05:31.172Z</time></trkpt><trkpt lat="45.139961" lon="8.6214321"><ele>98.33333333333334</ele><time>2026-05-03T09:05:32.173Z</time></trkpt><trkpt lat="45.1401634" lon="8.6213702"><ele>99.0</ele><time>2026-05-03T09:05:33.173Z</time></trkpt><trkpt lat="45.1403515" lon="8.6212756"><ele>99.0</ele><time>2026-05-03T09:05:34.173Z</time></trkpt><trkpt lat="45.1405138" lon="8.6211661"><ele>99.0</ele><time>2026-05-03T09:05:35.173Z</time></trkpt><trkpt lat="45.1406604" lon="8.6210439"><ele>99.0</ele><time>2026-05-03T09:05:36.172Z</time></trkpt><trkpt lat="45.1407979" lon="8.6209017"><ele>98.66666666666666</ele><time>2026-05-03T09:05:37.173Z</time></trkpt><trkpt lat="45.1409269" lon="8.6207461"><ele>98.33333333333333</ele><time>2026-05-03T09:05:38.173Z</time></trkpt><trkpt lat="45.1410498" lon="8.62055"><ele>98.0</ele><time>2026-05-03T09:05:39.172Z</time></trkpt><trkpt lat="45.141161" lon="8.6203085"><ele>97.66666666666666</ele><time>2026-05-03T09:05:40.173Z</time></trkpt><trkpt lat="45.1412743" lon="8.6200501"><ele>97.33333333333334</ele><time>2026-05-03T09:05:41.173Z</time></trkpt><trkpt lat="45.1413831" lon="8.6197994"><ele>97.0</ele><time>2026-05-03T09:05:42.173Z</time></trkpt><trkpt lat="45.1414984" lon="8.6195549"><ele>96.66666666666667</ele><time>2026-05-03T09:05:43.172Z</time></trkpt><trkpt lat="45.1416379" lon="8.6193233"><ele>96.33333333333334</ele><time>2026-05-03T09:05:44.173Z</time></trkpt><trkpt lat="45.1418026" lon="8.6191156"><ele>96.0</ele><time>2026-05-03T09:05:45.173Z</time></trkpt><trkpt lat="45.1419915" lon="8.6189285"><ele>96.0</ele><time>2026-05-03T09:05:46.173Z</time></trkpt><trkpt lat="45.142197" lon="8.6187566"><ele>96.0</ele><time>2026-05-03T09:05:47.172Z</time></trkpt><trkpt lat="45.1424244" lon="8.6186207"><ele>97.0</ele><time>2026-05-03T09:05:48.172Z</time></trkpt><trkpt lat="45.1426623" lon="8.6185126"><ele>98.0</ele><time>2026-05-03T09:05:49.173Z</time></trkpt><trkpt lat="45.1429077" lon="8.6184127"><ele>98.0</ele><time>2026-05-03T09:05:50.173Z</time></trkpt><trkpt lat="45.1431611" lon="8.618319"><ele>98.0</ele><time>2026-05-03T09:05:51.173Z</time></trkpt><trkpt lat="45.1434108" lon="8.6182207"><ele>98.0</ele><time>2026-05-03T09:05:52.173Z</time></trkpt><trkpt lat="45.1436642" lon="8.6181225"><ele>98.0</ele><time>2026-05-03T09:05:53.173Z</time></trkpt><trkpt lat="45.1439168" lon="8.6180252"><ele>98.0</ele><time>2026-05-03T09:05:54.173Z</time></trkpt><trkpt lat="45.1441643" lon="8.6179243"><ele>98.0</ele><time>2026-05-03T09:05:55.173Z</time></trkpt><trkpt lat="45.1444126" lon="8.6178232"><ele>98.0</ele><time>2026-05-03T09:05:56.173Z</time></trkpt><trkpt lat="45.1446582" lon="8.61772"><ele>98.0</ele><time>2026-05-03T09:05:57.173Z</time></trkpt><trkpt lat="45.1449028" lon="8.6176194"><ele>98.5</ele><time>2026-05-03T09:05:58.172Z</time></trkpt><trkpt lat="45.145146" lon="8.6175235"><ele>99.0</ele><time>2026-05-03T09:05:59.173Z</time></trkpt><trkpt lat="45.1453901" lon="8.617426"><ele>99.0</ele><time>2026-05-03T09:06:00.172Z</time></trkpt><trkpt lat="45.1456289" lon="8.6173325"><ele>99.0</ele><time>2026-05-03T09:06:01.173Z</time></trkpt><trkpt lat="45.1458682" lon="8.6172356"><ele>99.0</ele><time>2026-05-03T09:06:02.173Z</time></trkpt><trkpt lat="45.1461094" lon="8.6171363"><ele>99.0</ele><time>2026-05-03T09:06:03.172Z</time></trkpt><trkpt lat="45.1463464" lon="8.6170402"><ele>99.0</ele><time>2026-05-03T09:06:04.173Z</time></trkpt><trkpt lat="45.1465841" lon="8.6169484"><ele>99.0</ele><time>2026-05-03T09:06:05.173Z</time></trkpt><trkpt lat="45.1468227" lon="8.6168514"><ele>99.0</ele><time>2026-05-03T09:06:06.173Z</time></trkpt><trkpt lat="45.1470599" lon="8.6167578"><ele>99.0</ele><time>2026-05-03T09:06:07.173Z</time></trkpt><trkpt lat="45.1472943" lon="8.6166589"><ele>99.5</ele><time>2026-05-03T09:06:08.172Z</time></trkpt><trkpt lat="45.1475269" lon="8.6165639"><ele>100.0</ele><time>2026-05-03T09:06:09.173Z</time></trkpt><trkpt lat="45.147758" lon="8.616469"><ele>100.0</ele><time>2026-05-03T09:06:10.173Z</time></trkpt><trkpt lat="45.1479873" lon="8.6163715"><ele>100.0</ele><time>2026-05-03T09:06:11.173Z</time></trkpt><trkpt lat="45.1482152" lon="8.6162727"><ele>100.0</ele><time>2026-05-03T09:06:12.172Z</time></trkpt><trkpt lat="45.1484492" lon="8.6161768"><ele>100.0</ele><time>2026-05-03T09:06:13.173Z</time></trkpt><trkpt lat="45.1486802" lon="8.6160816"><ele>100.0</ele><time>2026-05-03T09:06:14.173Z</time></trkpt><trkpt lat="45.1489091" lon="8.6159887"><ele>100.0</ele><time>2026-05-03T09:06:15.173Z</time></trkpt><trkpt lat="45.1491386" lon="8.6158993"><ele>99.5</ele><time>2026-05-03T09:06:16.173Z</time></trkpt><trkpt lat="45.1493679" lon="8.6158169"><ele>99.0</ele><time>2026-05-03T09:06:17.172Z</time></trkpt><trkpt lat="45.1495971" lon="8.6157425"><ele>99.0</ele><time>2026-05-03T09:06:18.172Z</time></trkpt><trkpt lat="45.1498291" lon="8.6156779"><ele>99.0</ele><time>2026-05-03T09:06:19.172Z</time></trkpt><trkpt lat="45.1500594" lon="8.6156137"><ele>100.0</ele><time>2026-05-03T09:06:20.173Z</time></trkpt><trkpt lat="45.1502902" lon="8.6155619"><ele>101.0</ele><time>2026-05-03T09:06:21.172Z</time></trkpt><trkpt lat="45.1505208" lon="8.6155049"><ele>100.0</ele><time>2026-05-03T09:06:22.172Z</time></trkpt><trkpt lat="45.1507534" lon="8.6154466"><ele>99.0</ele><time>2026-05-03T09:06:23.173Z</time></trkpt><trkpt lat="45.1509841" lon="8.6153862"><ele>99.0</ele><time>2026-05-03T09:06:24.173Z</time></trkpt><trkpt lat="45.1512161" lon="8.615331"><ele>99.0</ele><time>2026-05-03T09:06:25.173Z</time></trkpt><trkpt lat="45.1514449" lon="8.6152768"><ele>99.5</ele><time>2026-05-03T09:06:26.173Z</time></trkpt><trkpt lat="45.1516757" lon="8.6152191"><ele>100.0</ele><time>2026-05-03T09:06:27.173Z</time></trkpt><trkpt lat="45.1519051" lon="8.6151605"><ele>100.0</ele><time>2026-05-03T09:06:28.173Z</time></trkpt><trkpt lat="45.1521368" lon="8.6151018"><ele>100.0</ele><time>2026-05-03T09:06:29.172Z</time></trkpt><trkpt lat="45.1523651" lon="8.6150293"><ele>100.5</ele><time>2026-05-03T09:06:30.173Z</time></trkpt><trkpt lat="45.152591" lon="8.6149348"><ele>101.0</ele><time>2026-05-03T09:06:31.173Z</time></trkpt><trkpt lat="45.1528114" lon="8.614832"><ele>101.0</ele><time>2026-05-03T09:06:32.173Z</time></trkpt><trkpt lat="45.1530318" lon="8.6147235"><ele>101.0</ele><time>2026-05-03T09:06:33.173Z</time></trkpt><trkpt lat="45.1532486" lon="8.6146099"><ele>100.5</ele><time>2026-05-03T09:06:34.173Z</time></trkpt><trkpt lat="45.1534642" lon="8.6144885"><ele>100.0</ele><time>2026-05-03T09:06:35.173Z</time></trkpt><trkpt lat="45.1536756" lon="8.6143683"><ele>99.5</ele><time>2026-05-03T09:06:36.173Z</time></trkpt><trkpt lat="45.1538863" lon="8.6142436"><ele>99.0</ele><time>2026-05-03T09:06:37.173Z</time></trkpt><trkpt lat="45.1540971" lon="8.6141164"><ele>100.5</ele><time>2026-05-03T09:06:38.173Z</time></trkpt><trkpt lat="45.1543041" lon="8.6139779"><ele>102.0</ele><time>2026-05-03T09:06:39.173Z</time></trkpt><trkpt lat="45.154508" lon="8.613836"><ele>102.0</ele><time>2026-05-03T09:06:40.173Z</time></trkpt><trkpt lat="45.154711" lon="8.613693"><ele>102.0</ele><time>2026-05-03T09:06:41.172Z</time></trkpt><trkpt lat="45.1549154" lon="8.6135519"><ele>101.33333333333334</ele><time>2026-05-03T09:06:42.173Z</time></trkpt><trkpt lat="45.1551172" lon="8.6134097"><ele>100.66666666666667</ele><time>2026-05-03T09:06:43.172Z</time></trkpt><trkpt lat="45.1553173" lon="8.6132735"><ele>100.0</ele><time>2026-05-03T09:06:44.172Z</time></trkpt><trkpt lat="45.1555169" lon="8.6131253"><ele>100.0</ele><time>2026-05-03T09:06:45.172Z</time></trkpt><trkpt lat="45.1557071" lon="8.6129606"><ele>100.0</ele><time>2026-05-03T09:06:46.172Z</time></trkpt><trkpt lat="45.1558903" lon="8.6127695"><ele>100.0</ele><time>2026-05-03T09:06:47.172Z</time></trkpt><trkpt lat="45.1560578" lon="8.6125491"><ele>100.0</ele><time>2026-05-03T09:06:48.173Z</time></trkpt><trkpt lat="45.1562183" lon="8.6123009"><ele>100.0</ele><time>2026-05-03T09:06:49.173Z</time></trkpt><trkpt lat="45.1563687" lon="8.6120459"><ele>100.0</ele><time>2026-05-03T09:06:50.173Z</time></trkpt><trkpt lat="45.1565146" lon="8.6117891"><ele>100.0</ele><time>2026-05-03T09:06:51.172Z</time></trkpt><trkpt lat="45.1566625" lon="8.6115202"><ele>100.0</ele><time>2026-05-03T09:06:52.173Z</time></trkpt><trkpt lat="45.1568145" lon="8.6112605"><ele>100.0</ele><time>2026-05-03T09:06:53.173Z</time></trkpt><trkpt lat="45.1569666" lon="8.6109996"><ele>100.0</ele><time>2026-05-03T09:06:54.173Z</time></trkpt><trkpt lat="45.1571153" lon="8.6107373"><ele>100.0</ele><time>2026-05-03T09:06:55.173Z</time></trkpt><trkpt lat="45.1572661" lon="8.6104736"><ele>100.0</ele><time>2026-05-03T09:06:56.173Z</time></trkpt><trkpt lat="45.1574131" lon="8.6102105"><ele>99.5</ele><time>2026-05-03T09:06:57.172Z</time></trkpt><trkpt lat="45.1575628" lon="8.6099476"><ele>99.0</ele><time>2026-05-03T09:06:58.173Z</time></trkpt><trkpt lat="45.1577113" lon="8.6096881"><ele>100.0</ele><time>2026-05-03T09:06:59.172Z</time></trkpt><trkpt lat="45.1578566" lon="8.6094278"><ele>101.0</ele><time>2026-05-03T09:07:00.172Z</time></trkpt><trkpt lat="45.1580025" lon="8.6091673"><ele>101.0</ele><time>2026-05-03T09:07:01.173Z</time></trkpt><trkpt lat="45.1581458" lon="8.6089093"><ele>101.0</ele><time>2026-05-03T09:07:02.173Z</time></trkpt><trkpt lat="45.1582903" lon="8.6086563"><ele>101.0</ele><time>2026-05-03T09:07:03.173Z</time></trkpt><trkpt lat="45.1584349" lon="8.6084036"><ele>101.0</ele><time>2026-05-03T09:07:04.173Z</time></trkpt><trkpt lat="45.1585825" lon="8.6081576"><ele>101.0</ele><time>2026-05-03T09:07:05.173Z</time></trkpt><trkpt lat="45.1587392" lon="8.6079241"><ele>101.0</ele><time>2026-05-03T09:07:06.173Z</time></trkpt><trkpt lat="45.15891" lon="8.6077027"><ele>101.0</ele><time>2026-05-03T09:07:07.173Z</time></trkpt><trkpt lat="45.1590975" lon="8.6074925"><ele>101.0</ele><time>2026-05-03T09:07:08.173Z</time></trkpt><trkpt lat="45.1592966" lon="8.607305"><ele>101.0</ele><time>2026-05-03T09:07:09.172Z</time></trkpt><trkpt lat="45.1595036" lon="8.6071414"><ele>101.0</ele><time>2026-05-03T09:07:10.173Z</time></trkpt><trkpt lat="45.1597261" lon="8.6070026"><ele>100.5</ele><time>2026-05-03T09:07:11.172Z</time></trkpt><trkpt lat="45.1599604" lon="8.60689"><ele>100.0</ele><time>2026-05-03T09:07:12.173Z</time></trkpt><trkpt lat="45.1601993" lon="8.6068092"><ele>100.0</ele><time>2026-05-03T09:07:13.172Z</time></trkpt><trkpt lat="45.1604396" lon="8.6067469"><ele>100.0</ele><time>2026-05-03T09:07:14.173Z</time></trkpt><trkpt lat="45.1606857" lon="8.6067253"><ele>100.0</ele><time>2026-05-03T09:07:15.172Z</time></trkpt><trkpt lat="45.1609285" lon="8.6067251"><ele>100.0</ele><time>2026-05-03T09:07:16.172Z</time></trkpt><trkpt lat="45.1611721" lon="8.6067444"><ele>100.0</ele><time>2026-05-03T09:07:17.173Z</time></trkpt><trkpt lat="45.1614112" lon="8.60677"><ele>100.0</ele><time>2026-05-03T09:07:18.173Z</time></trkpt><trkpt lat="45.1616568" lon="8.606801"><ele>101.0</ele><time>2026-05-03T09:07:19.173Z</time></trkpt><trkpt lat="45.1619003" lon="8.6068244"><ele>102.0</ele><time>2026-05-03T09:07:20.172Z</time></trkpt><trkpt lat="45.1621435" lon="8.6068539"><ele>102.0</ele><time>2026-05-03T09:07:21.173Z</time></trkpt><trkpt lat="45.162385" lon="8.6068775"><ele>102.0</ele><time>2026-05-03T09:07:22.172Z</time></trkpt><trkpt lat="45.1626229" lon="8.606896"><ele>102.0</ele><time>2026-05-03T09:07:23.173Z</time></trkpt><trkpt lat="45.1628566" lon="8.6069104"><ele>102.0</ele><time>2026-05-03T09:07:24.172Z</time></trkpt><trkpt lat="45.1630888" lon="8.6069115"><ele>101.0</ele><time>2026-05-03T09:07:25.173Z</time></trkpt><trkpt lat="45.1633184" lon="8.6068585"><ele>100.0</ele><time>2026-05-03T09:07:26.173Z</time></trkpt><trkpt lat="45.1635523" lon="8.6067683"><ele>100.0</ele><time>2026-05-03T09:07:27.173Z</time></trkpt><trkpt lat="45.1637824" lon="8.6066543"><ele>100.0</ele><time>2026-05-03T09:07:28.173Z</time></trkpt><trkpt lat="45.1640072" lon="8.6065458"><ele>100.5</ele><time>2026-05-03T09:07:29.172Z</time></trkpt><trkpt lat="45.1642413" lon="8.6064436"><ele>101.0</ele><time>2026-05-03T09:07:30.172Z</time></trkpt><trkpt lat="45.1644836" lon="8.6063565"><ele>101.0</ele><time>2026-05-03T09:07:31.173Z</time></trkpt><trkpt lat="45.1647277" lon="8.6062757"><ele>101.0</ele><time>2026-05-03T09:07:32.173Z</time></trkpt><trkpt lat="45.1649756" lon="8.6061989"><ele>100.5</ele><time>2026-05-03T09:07:33.173Z</time></trkpt><trkpt lat="45.1652223" lon="8.6061187"><ele>100.0</ele><time>2026-05-03T09:07:34.173Z</time></trkpt><trkpt lat="45.1654653" lon="8.6060438"><ele>100.5</ele><time>2026-05-03T09:07:35.173Z</time></trkpt><trkpt lat="45.1657081" lon="8.6059638"><ele>101.0</ele><time>2026-05-03T09:07:36.172Z</time></trkpt><trkpt lat="45.1659463" lon="8.6058859"><ele>101.0</ele><time>2026-05-03T09:07:37.173Z</time></trkpt><trkpt lat="45.1661823" lon="8.6058136"><ele>101.0</ele><time>2026-05-03T09:07:38.173Z</time></trkpt><trkpt lat="45.1664128" lon="8.6057407"><ele>101.0</ele><time>2026-05-03T09:07:39.173Z</time></trkpt><trkpt lat="45.1666367" lon="8.605674"><ele>101.0</ele><time>2026-05-03T09:07:40.172Z</time></trkpt><trkpt lat="45.1668561" lon="8.6056105"><ele>101.0</ele><time>2026-05-03T09:07:41.172Z</time></trkpt><trkpt lat="45.1670706" lon="8.6055648"><ele>101.0</ele><time>2026-05-03T09:07:42.172Z</time></trkpt><trkpt lat="45.1672864" lon="8.6055608"><ele>101.0</ele><time>2026-05-03T09:07:43.173Z</time></trkpt><trkpt lat="45.1674974" lon="8.6055959"><ele>101.33333333333333</ele><time>2026-05-03T09:07:44.172Z</time></trkpt><trkpt lat="45.1677047" lon="8.6056442"><ele>101.66666666666666</ele><time>2026-05-03T09:07:45.173Z</time></trkpt><trkpt lat="45.1679143" lon="8.6056976"><ele>102.0</ele><time>2026-05-03T09:07:46.172Z</time></trkpt><trkpt lat="45.1681198" lon="8.6057329"><ele>102.33333333333334</ele><time>2026-05-03T09:07:47.172Z</time></trkpt><trkpt lat="45.1683294" lon="8.6057435"><ele>102.66666666666667</ele><time>2026-05-03T09:07:48.173Z</time></trkpt><trkpt lat="45.1685373" lon="8.6057223"><ele>103.0</ele><time>2026-05-03T09:07:49.172Z</time></trkpt><trkpt lat="45.1687381" lon="8.6056547"><ele>103.0</ele><time>2026-05-03T09:07:50.173Z</time></trkpt><trkpt lat="45.1689381" lon="8.6055771"><ele>103.0</ele><time>2026-05-03T09:07:51.173Z</time></trkpt><trkpt lat="45.1691377" lon="8.6055197"><ele>103.0</ele><time>2026-05-03T09:07:52.173Z</time></trkpt><trkpt lat="45.1693472" lon="8.6055235"><ele>102.33333333333334</ele><time>2026-05-03T09:07:53.172Z</time></trkpt><trkpt lat="45.1695572" lon="8.6055462"><ele>101.66666666666666</ele><time>2026-05-03T09:07:54.173Z</time></trkpt><trkpt lat="45.1697769" lon="8.6055822"><ele>101.0</ele><time>2026-05-03T09:07:55.172Z</time></trkpt><trkpt lat="45.1699964" lon="8.6056194"><ele>100.66666666666666</ele><time>2026-05-03T09:07:56.173Z</time></trkpt><trkpt lat="45.1702167" lon="8.6056607"><ele>100.33333333333334</ele><time>2026-05-03T09:07:57.172Z</time></trkpt><trkpt lat="45.1704411" lon="8.6056964"><ele>100.0</ele><time>2026-05-03T09:07:58.172Z</time></trkpt><trkpt lat="45.1706717" lon="8.6057364"><ele>100.0</ele><time>2026-05-03T09:07:59.173Z</time></trkpt><trkpt lat="45.1709051" lon="8.6057782"><ele>100.0</ele><time>2026-05-03T09:08:00.173Z</time></trkpt><trkpt lat="45.1711392" lon="8.6058193"><ele>100.0</ele><time>2026-05-03T09:08:01.173Z</time></trkpt><trkpt lat="45.1713783" lon="8.6058602"><ele>100.0</ele><time>2026-05-03T09:08:02.172Z</time></trkpt><trkpt lat="45.1716175" lon="8.6058973"><ele>100.0</ele><time>2026-05-03T09:08:03.173Z</time></trkpt><trkpt lat="45.1718573" lon="8.6059392"><ele>100.0</ele><time>2026-05-03T09:08:04.172Z</time></trkpt><trkpt lat="45.1720961" lon="8.6059778"><ele>100.0</ele><time>2026-05-03T09:08:05.173Z</time></trkpt><trkpt lat="45.1723365" lon="8.6060189"><ele>100.0</ele><time>2026-05-03T09:08:06.173Z</time></trkpt><trkpt lat="45.1725774" lon="8.6060623"><ele>100.0</ele><time>2026-05-03T09:08:07.172Z</time></trkpt><trkpt lat="45.1728173" lon="8.6061067"><ele>100.0</ele><time>2026-05-03T09:08:08.173Z</time></trkpt><trkpt lat="45.1730588" lon="8.6061519"><ele>100.5</ele><time>2026-05-03T09:08:09.173Z</time></trkpt><trkpt lat="45.1733011" lon="8.606195"><ele>101.0</ele><time>2026-05-03T09:08:10.173Z</time></trkpt><trkpt lat="45.1735414" lon="8.6062398"><ele>101.0</ele><time>2026-05-03T09:08:11.172Z</time></trkpt><trkpt lat="45.1737822" lon="8.6062853"><ele>101.0</ele><time>2026-05-03T09:08:12.172Z</time></trkpt><trkpt lat="45.1740228" lon="8.6063237"><ele>101.5</ele><time>2026-05-03T09:08:13.173Z</time></trkpt><trkpt lat="45.1742622" lon="8.6063663"><ele>102.0</ele><time>2026-05-03T09:08:14.172Z</time></trkpt><trkpt lat="45.1745021" lon="8.606408"><ele>102.0</ele><time>2026-05-03T09:08:15.173Z</time></trkpt><trkpt lat="45.1747418" lon="8.606447"><ele>102.0</ele><time>2026-05-03T09:08:16.173Z</time></trkpt><trkpt lat="45.1749839" lon="8.6064861"><ele>103.0</ele><time>2026-05-03T09:08:17.173Z</time></trkpt><trkpt lat="45.1752226" lon="8.6065322"><ele>104.0</ele><time>2026-05-03T09:08:18.172Z</time></trkpt><trkpt lat="45.1754645" lon="8.606577"><ele>104.0</ele><time>2026-05-03T09:08:19.173Z</time></trkpt><trkpt lat="45.1757056" lon="8.606616"><ele>104.0</ele><time>2026-05-03T09:08:20.173Z</time></trkpt><trkpt lat="45.1759457" lon="8.6066575"><ele>104.0</ele><time>2026-05-03T09:08:21.172Z</time></trkpt><trkpt lat="45.1761873" lon="8.606696"><ele>104.0</ele><time>2026-05-03T09:08:22.172Z</time></trkpt><trkpt lat="45.1764319" lon="8.6067375"><ele>102.5</ele><time>2026-05-03T09:08:23.172Z</time></trkpt><trkpt lat="45.1766746" lon="8.6067839"><ele>101.0</ele><time>2026-05-03T09:08:24.172Z</time></trkpt><trkpt lat="45.176917" lon="8.6068249"><ele>101.0</ele><time>2026-05-03T09:08:25.173Z</time></trkpt><trkpt lat="45.1771588" lon="8.6068678"><ele>101.0</ele><time>2026-05-03T09:08:26.172Z</time></trkpt><trkpt lat="45.1773989" lon="8.6069086"><ele>101.0</ele><time>2026-05-03T09:08:27.172Z</time></trkpt><trkpt lat="45.1776414" lon="8.606947"><ele>101.0</ele><time>2026-05-03T09:08:28.173Z</time></trkpt><trkpt lat="45.1778822" lon="8.6069838"><ele>101.0</ele><time>2026-05-03T09:08:29.173Z</time></trkpt><trkpt lat="45.1781251" lon="8.6070234"><ele>101.0</ele><time>2026-05-03T09:08:30.173Z</time></trkpt><trkpt lat="45.178366" lon="8.6070677"><ele>102.0</ele><time>2026-05-03T09:08:31.172Z</time></trkpt><trkpt lat="45.1786077" lon="8.6071044"><ele>103.0</ele><time>2026-05-03T09:08:32.173Z</time></trkpt><trkpt lat="45.1788481" lon="8.6071483"><ele>102.5</ele><time>2026-05-03T09:08:33.173Z</time></trkpt><trkpt lat="45.1790883" lon="8.6071925"><ele>102.0</ele><time>2026-05-03T09:08:34.172Z</time></trkpt><trkpt lat="45.1793281" lon="8.6072371"><ele>102.0</ele><time>2026-05-03T09:08:35.172Z</time></trkpt><trkpt lat="45.1795654" lon="8.6072801"><ele>102.0</ele><time>2026-05-03T09:08:36.173Z</time></trkpt><trkpt lat="45.1798023" lon="8.6073207"><ele>101.5</ele><time>2026-05-03T09:08:37.172Z</time></trkpt><trkpt lat="45.1800394" lon="8.6073604"><ele>101.0</ele><time>2026-05-03T09:08:38.172Z</time></trkpt><trkpt lat="45.1802774" lon="8.6074008"><ele>101.0</ele><time>2026-05-03T09:08:39.172Z</time></trkpt><trkpt lat="45.1805184" lon="8.6074408"><ele>101.0</ele><time>2026-05-03T09:08:40.172Z</time></trkpt><trkpt lat="45.180757" lon="8.6074847"><ele>101.0</ele><time>2026-05-03T09:08:41.172Z</time></trkpt><trkpt lat="45.1809928" lon="8.6075288"><ele>101.0</ele><time>2026-05-03T09:08:42.173Z</time></trkpt><trkpt lat="45.1812292" lon="8.6075711"><ele>101.0</ele><time>2026-05-03T09:08:43.173Z</time></trkpt><trkpt lat="45.1814659" lon="8.6076161"><ele>101.0</ele><time>2026-05-03T09:08:44.173Z</time></trkpt><trkpt lat="45.181696" lon="8.6076593"><ele>101.0</ele><time>2026-05-03T09:08:45.173Z</time></trkpt><trkpt lat="45.1819239" lon="8.6076996"><ele>101.0</ele><time>2026-05-03T09:08:46.173Z</time></trkpt><trkpt lat="45.1821457" lon="8.6077334"><ele>100.66666666666666</ele><time>2026-05-03T09:08:47.173Z</time></trkpt><trkpt lat="45.1823659" lon="8.6077574"><ele>100.33333333333334</ele><time>2026-05-03T09:08:48.172Z</time></trkpt><trkpt lat="45.1825811" lon="8.6077608"><ele>100.0</ele><time>2026-05-03T09:08:49.173Z</time></trkpt><trkpt lat="45.1827997" lon="8.6077396"><ele>100.0</ele><time>2026-05-03T09:08:50.173Z</time></trkpt><trkpt lat="45.1830212" lon="8.6076929"><ele>100.0</ele><time>2026-05-03T09:08:51.173Z</time></trkpt><trkpt lat="45.1832333" lon="8.6076184"><ele>100.0</ele><time>2026-05-03T09:08:52.172Z</time></trkpt><trkpt lat="45.1834417" lon="8.6075193"><ele>100.5</ele><time>2026-05-03T09:08:53.173Z</time></trkpt><trkpt lat="45.1836492" lon="8.6073882"><ele>101.0</ele><time>2026-05-03T09:08:54.173Z</time></trkpt><trkpt lat="45.183846" lon="8.6072212"><ele>101.0</ele><time>2026-05-03T09:08:55.173Z</time></trkpt><trkpt lat="45.1840324" lon="8.6070278"><ele>101.0</ele><time>2026-05-03T09:08:56.173Z</time></trkpt><trkpt lat="45.1842066" lon="8.6068287"><ele>102.0</ele><time>2026-05-03T09:08:57.173Z</time></trkpt><trkpt lat="45.1843814" lon="8.6066171"><ele>103.0</ele><time>2026-05-03T09:08:58.172Z</time></trkpt><trkpt lat="45.1845473" lon="8.6064116"><ele>103.0</ele><time>2026-05-03T09:08:59.173Z</time></trkpt><trkpt lat="45.1847116" lon="8.6062032"><ele>103.0</ele><time>2026-05-03T09:09:00.173Z</time></trkpt><trkpt lat="45.1848756" lon="8.6060013"><ele>103.0</ele><time>2026-05-03T09:09:01.173Z</time></trkpt><trkpt lat="45.1850371" lon="8.6058074"><ele>103.0</ele><time>2026-05-03T09:09:02.172Z</time></trkpt><trkpt lat="45.1851975" lon="8.605615"><ele>103.0</ele><time>2026-05-03T09:09:03.173Z</time></trkpt><trkpt lat="45.1853495" lon="8.6054339"><ele>103.0</ele><time>2026-05-03T09:09:04.173Z</time></trkpt><trkpt lat="45.1854951" lon="8.6052591"><ele>102.66666666666667</ele><time>2026-05-03T09:09:05.173Z</time></trkpt><trkpt lat="45.1856341" lon="8.6050905"><ele>102.33333333333334</ele><time>2026-05-03T09:09:06.173Z</time></trkpt><trkpt lat="45.185768" lon="8.6049339"><ele>102.0</ele><time>2026-05-03T09:09:07.172Z</time></trkpt><trkpt lat="45.1858967" lon="8.6047853"><ele>102.0</ele><time>2026-05-03T09:09:08.172Z</time></trkpt><trkpt lat="45.1860185" lon="8.6046389"><ele>102.0</ele><time>2026-05-03T09:09:09.172Z</time></trkpt><trkpt lat="45.1861348" lon="8.6044997"><ele>102.0</ele><time>2026-05-03T09:09:10.171Z</time></trkpt><trkpt lat="45.1862425" lon="8.6043644"><ele>102.0</ele><time>2026-05-03T09:09:11.172Z</time></trkpt><trkpt lat="45.1863476" lon="8.604237"><ele>102.0</ele><time>2026-05-03T09:09:12.172Z</time></trkpt><trkpt lat="45.1864506" lon="8.6041378"><ele>102.0</ele><time>2026-05-03T09:09:13.172Z</time></trkpt><trkpt lat="45.1865497" lon="8.6040597"><ele>102.0</ele><time>2026-05-03T09:09:14.171Z</time></trkpt><trkpt lat="45.1866463" lon="8.6040092"><ele>101.6</ele><time>2026-05-03T09:09:15.171Z</time></trkpt><trkpt lat="45.1867409" lon="8.6039829"><ele>101.19999999999999</ele><time>2026-05-03T09:09:16.172Z</time></trkpt><trkpt lat="45.1868387" lon="8.6039713"><ele>100.8</ele><time>2026-05-03T09:09:17.172Z</time></trkpt><trkpt lat="45.1869377" lon="8.6039769"><ele>100.4</ele><time>2026-05-03T09:09:18.171Z</time></trkpt><trkpt lat="45.1870316" lon="8.6039909"><ele>100.0</ele><time>2026-05-03T09:09:19.172Z</time></trkpt><trkpt lat="45.187129" lon="8.6040319"><ele>100.0</ele><time>2026-05-03T09:09:20.172Z</time></trkpt><trkpt lat="45.1872235" lon="8.6040907"><ele>100.0</ele><time>2026-05-03T09:09:21.172Z</time></trkpt><trkpt lat="45.187309" lon="8.6041778"><ele>100.0</ele><time>2026-05-03T09:09:22.171Z</time></trkpt><trkpt lat="45.1873873" lon="8.6042829"><ele>100.0</ele><time>2026-05-03T09:09:23.172Z</time></trkpt><trkpt lat="45.1874705" lon="8.6043813"><ele>100.0</ele><time>2026-05-03T09:09:24.171Z</time></trkpt><trkpt lat="45.1875594" lon="8.6044847"><ele>100.75</ele><time>2026-05-03T09:09:25.171Z</time></trkpt><trkpt lat="45.1876498" lon="8.6045859"><ele>101.5</ele><time>2026-05-03T09:09:26.172Z</time></trkpt><trkpt lat="45.1877392" lon="8.6046831"><ele>102.25</ele><time>2026-05-03T09:09:27.171Z</time></trkpt><trkpt lat="45.1878259" lon="8.6047813"><ele>103.0</ele><time>2026-05-03T09:09:28.171Z</time></trkpt><trkpt lat="45.1879149" lon="8.6048871"><ele>103.0</ele><time>2026-05-03T09:09:29.171Z</time></trkpt><trkpt lat="45.1880065" lon="8.604993"><ele>103.0</ele><time>2026-05-03T09:09:30.172Z</time></trkpt><trkpt lat="45.1880977" lon="8.6051"><ele>103.0</ele><time>2026-05-03T09:09:31.171Z</time></trkpt><trkpt lat="45.1881891" lon="8.6052081"><ele>103.0</ele><time>2026-05-03T09:09:32.172Z</time></trkpt><trkpt lat="45.1882841" lon="8.6053184"><ele>102.5</ele><time>2026-05-03T09:09:33.171Z</time></trkpt><trkpt lat="45.1883783" lon="8.6054334"><ele>102.0</ele><time>2026-05-03T09:09:34.171Z</time></trkpt><trkpt lat="45.1884766" lon="8.6055519"><ele>101.5</ele><time>2026-05-03T09:09:35.172Z</time></trkpt><trkpt lat="45.1885763" lon="8.6056698"><ele>101.0</ele><time>2026-05-03T09:09:36.171Z</time></trkpt><trkpt lat="45.1886833" lon="8.6057895"><ele>101.0</ele><time>2026-05-03T09:09:37.171Z</time></trkpt><trkpt lat="45.1887942" lon="8.605913"><ele>101.0</ele><time>2026-05-03T09:09:38.171Z</time></trkpt><trkpt lat="45.1889152" lon="8.6060476"><ele>101.0</ele><time>2026-05-03T09:09:39.172Z</time></trkpt><trkpt lat="45.189047" lon="8.6061902"><ele>101.33333333333333</ele><time>2026-05-03T09:09:40.172Z</time></trkpt><trkpt lat="45.1891963" lon="8.6063601"><ele>101.66666666666666</ele><time>2026-05-03T09:09:41.172Z</time></trkpt><trkpt lat="45.189349" lon="8.6065307"><ele>102.0</ele><time>2026-05-03T09:09:42.172Z</time></trkpt><trkpt lat="45.1894892" lon="8.6067082"><ele>102.0</ele><time>2026-05-03T09:09:43.171Z</time></trkpt><trkpt lat="45.1896206" lon="8.6068788"><ele>102.0</ele><time>2026-05-03T09:09:44.171Z</time></trkpt><trkpt lat="45.189753" lon="8.6070425"><ele>102.0</ele><time>2026-05-03T09:09:45.171Z</time></trkpt><trkpt lat="45.189885" lon="8.6071952"><ele>102.33333333333334</ele><time>2026-05-03T09:09:46.171Z</time></trkpt><trkpt lat="45.1900141" lon="8.6073438"><ele>102.66666666666667</ele><time>2026-05-03T09:09:47.172Z</time></trkpt><trkpt lat="45.1901369" lon="8.6074869"><ele>103.0</ele><time>2026-05-03T09:09:48.172Z</time></trkpt><trkpt lat="45.1902561" lon="8.6076284"><ele>103.0</ele><time>2026-05-03T09:09:49.171Z</time></trkpt><trkpt lat="45.1903742" lon="8.6077652"><ele>103.0</ele><time>2026-05-03T09:09:50.172Z</time></trkpt><trkpt lat="45.1904871" lon="8.6079035"><ele>103.0</ele><time>2026-05-03T09:09:51.172Z</time></trkpt><trkpt lat="45.1905981" lon="8.6080356"><ele>103.0</ele><time>2026-05-03T09:09:52.171Z</time></trkpt><trkpt lat="45.1907089" lon="8.6081752"><ele>103.25</ele><time>2026-05-03T09:09:53.171Z</time></trkpt><trkpt lat="45.1908064" lon="8.6083226"><ele>103.5</ele><time>2026-05-03T09:09:54.172Z</time></trkpt><trkpt lat="45.1908913" lon="8.6084836"><ele>103.75</ele><time>2026-05-03T09:09:55.172Z</time></trkpt><trkpt lat="45.1909657" lon="8.6086542"><ele>104.0</ele><time>2026-05-03T09:09:56.172Z</time></trkpt><trkpt lat="45.1910417" lon="8.6088337"><ele>104.25</ele><time>2026-05-03T09:09:57.172Z</time></trkpt><trkpt lat="45.1911152" lon="8.6090127"><ele>104.5</ele><time>2026-05-03T09:09:58.172Z</time></trkpt><trkpt lat="45.1911911" lon="8.6091861"><ele>104.75</ele><time>2026-05-03T09:09:59.172Z</time></trkpt><trkpt lat="45.191264" lon="8.6093617"><ele>105.0</ele><time>2026-05-03T09:10:00.171Z</time></trkpt><trkpt lat="45.1913366" lon="8.609535"><ele>105.0</ele><time>2026-05-03T09:10:01.172Z</time></trkpt><trkpt lat="45.191407" lon="8.6097012"><ele>105.0</ele><time>2026-05-03T09:10:02.171Z</time></trkpt><trkpt lat="45.1914781" lon="8.6098707"><ele>105.0</ele><time>2026-05-03T09:10:03.172Z</time></trkpt><trkpt lat="45.1915482" lon="8.6100383"><ele>105.0</ele><time>2026-05-03T09:10:04.171Z</time></trkpt><trkpt lat="45.1916168" lon="8.6102072"><ele>105.0</ele><time>2026-05-03T09:10:05.172Z</time></trkpt><trkpt lat="45.1916841" lon="8.6103725"><ele>105.0</ele><time>2026-05-03T09:10:06.171Z</time></trkpt><trkpt lat="45.1917572" lon="8.6105483"><ele>105.0</ele><time>2026-05-03T09:10:07.172Z</time></trkpt><trkpt lat="45.1918315" lon="8.6107202"><ele>105.0</ele><time>2026-05-03T09:10:08.172Z</time></trkpt><trkpt lat="45.1919099" lon="8.6108899"><ele>105.0</ele><time>2026-05-03T09:10:09.171Z</time></trkpt><trkpt lat="45.1919911" lon="8.6110621"><ele>105.0</ele><time>2026-05-03T09:10:10.171Z</time></trkpt><trkpt lat="45.1920759" lon="8.6112298"><ele>105.0</ele><time>2026-05-03T09:10:11.172Z</time></trkpt><trkpt lat="45.1921654" lon="8.6113917"><ele>105.0</ele><time>2026-05-03T09:10:12.172Z</time></trkpt><trkpt lat="45.1922523" lon="8.6115594"><ele>105.0</ele><time>2026-05-03T09:10:13.171Z</time></trkpt><trkpt lat="45.1923411" lon="8.6117308"><ele>105.0</ele><time>2026-05-03T09:10:14.172Z</time></trkpt><trkpt lat="45.1924277" lon="8.6118977"><ele>105.0</ele><time>2026-05-03T09:10:15.172Z</time></trkpt><trkpt lat="45.1925141" lon="8.6120615"><ele>105.0</ele><time>2026-05-03T09:10:16.172Z</time></trkpt><trkpt lat="45.1925958" lon="8.612225"><ele>105.0</ele><time>2026-05-03T09:10:17.172Z</time></trkpt><trkpt lat="45.1926744" lon="8.6123949"><ele>105.0</ele><time>2026-05-03T09:10:18.172Z</time></trkpt><trkpt lat="45.1927515" lon="8.6125591"><ele>105.0</ele><time>2026-05-03T09:10:19.171Z</time></trkpt><trkpt lat="45.1928293" lon="8.6127259"><ele>105.0</ele><time>2026-05-03T09:10:20.172Z</time></trkpt><trkpt lat="45.192907" lon="8.6128962"><ele>105.0</ele><time>2026-05-03T09:10:21.171Z</time></trkpt><trkpt lat="45.1929841" lon="8.6130663"><ele>105.0</ele><time>2026-05-03T09:10:22.171Z</time></trkpt><trkpt lat="45.1930592" lon="8.613245"><ele>105.0</ele><time>2026-05-03T09:10:23.172Z</time></trkpt><trkpt lat="45.1931376" lon="8.6134235"><ele>105.0</ele><time>2026-05-03T09:10:24.172Z</time></trkpt><trkpt lat="45.1932113" lon="8.6136013"><ele>105.0</ele><time>2026-05-03T09:10:25.172Z</time></trkpt><trkpt lat="45.1932849" lon="8.6137765"><ele>105.0</ele><time>2026-05-03T09:10:26.171Z</time></trkpt><trkpt lat="45.1933545" lon="8.6139533"><ele>105.0</ele><time>2026-05-03T09:10:27.171Z</time></trkpt><trkpt lat="45.1934282" lon="8.6141303"><ele>105.0</ele><time>2026-05-03T09:10:28.172Z</time></trkpt><trkpt lat="45.1935023" lon="8.6143061"><ele>105.0</ele><time>2026-05-03T09:10:29.171Z</time></trkpt><trkpt lat="45.1935784" lon="8.6144838"><ele>105.0</ele><time>2026-05-03T09:10:30.171Z</time></trkpt><trkpt lat="45.1936543" lon="8.6146625"><ele>105.0</ele><time>2026-05-03T09:10:31.171Z</time></trkpt><trkpt lat="45.1937272" lon="8.6148401"><ele>105.0</ele><time>2026-05-03T09:10:32.171Z</time></trkpt><trkpt lat="45.1938072" lon="8.6150209"><ele>105.33333333333334</ele><time>2026-05-03T09:10:33.172Z</time></trkpt><trkpt lat="45.1938848" lon="8.6152072"><ele>105.66666666666667</ele><time>2026-05-03T09:10:34.171Z</time></trkpt><trkpt lat="45.1939603" lon="8.6153949"><ele>106.0</ele><time>2026-05-03T09:10:35.171Z</time></trkpt><trkpt lat="45.1940404" lon="8.6155828"><ele>105.0</ele><time>2026-05-03T09:10:36.171Z</time></trkpt><trkpt lat="45.1941217" lon="8.6157796"><ele>104.0</ele><time>2026-05-03T09:10:37.171Z</time></trkpt><trkpt lat="45.194209" lon="8.6159859"><ele>103.0</ele><time>2026-05-03T09:10:38.171Z</time></trkpt><trkpt lat="45.1943" lon="8.6161997"><ele>102.33333333333334</ele><time>2026-05-03T09:10:39.172Z</time></trkpt><trkpt lat="45.1943978" lon="8.6164251"><ele>101.66666666666666</ele><time>2026-05-03T09:10:40.171Z</time></trkpt><trkpt lat="45.1944994" lon="8.6166654"><ele>101.0</ele><time>2026-05-03T09:10:41.171Z</time></trkpt><trkpt lat="45.1946079" lon="8.6169217"><ele>101.5</ele><time>2026-05-03T09:10:42.171Z</time></trkpt><trkpt lat="45.1947257" lon="8.6171977"><ele>102.0</ele><time>2026-05-03T09:10:43.172Z</time></trkpt><trkpt lat="45.194853" lon="8.6174918"><ele>102.5</ele><time>2026-05-03T09:10:44.172Z</time></trkpt><trkpt lat="45.1949785" lon="8.617791"><ele>103.0</ele><time>2026-05-03T09:10:45.172Z</time></trkpt><trkpt lat="45.1951092" lon="8.6180973"><ele>103.0</ele><time>2026-05-03T09:10:46.172Z</time></trkpt><trkpt lat="45.1952413" lon="8.6184052"><ele>103.0</ele><time>2026-05-03T09:10:47.172Z</time></trkpt><trkpt lat="45.1953796" lon="8.6187186"><ele>103.0</ele><time>2026-05-03T09:10:48.172Z</time></trkpt><trkpt lat="45.1955185" lon="8.6190346"><ele>103.0</ele><time>2026-05-03T09:10:49.172Z</time></trkpt><trkpt lat="45.1956569" lon="8.6193521"><ele>103.0</ele><time>2026-05-03T09:10:50.172Z</time></trkpt><trkpt lat="45.1957935" lon="8.619668"><ele>103.0</ele><time>2026-05-03T09:10:51.172Z</time></trkpt><trkpt lat="45.1959295" lon="8.6199859"><ele>103.0</ele><time>2026-05-03T09:10:52.172Z</time></trkpt><trkpt lat="45.1960663" lon="8.6203049"><ele>103.0</ele><time>2026-05-03T09:10:53.172Z</time></trkpt><trkpt lat="45.1962033" lon="8.6206209"><ele>102.5</ele><time>2026-05-03T09:10:54.171Z</time></trkpt><trkpt lat="45.1963422" lon="8.6209416"><ele>102.0</ele><time>2026-05-03T09:10:55.172Z</time></trkpt><trkpt lat="45.1964781" lon="8.621263"><ele>103.0</ele><time>2026-05-03T09:10:56.172Z</time></trkpt><trkpt lat="45.1966154" lon="8.6215841"><ele>104.0</ele><time>2026-05-03T09:10:57.171Z</time></trkpt><trkpt lat="45.1967523" lon="8.6219026"><ele>104.0</ele><time>2026-05-03T09:10:58.172Z</time></trkpt><trkpt lat="45.1968878" lon="8.6222216"><ele>104.0</ele><time>2026-05-03T09:10:59.171Z</time></trkpt><trkpt lat="45.1970226" lon="8.6225416"><ele>104.0</ele><time>2026-05-03T09:11:00.172Z</time></trkpt><trkpt lat="45.1971566" lon="8.6228607"><ele>104.0</ele><time>2026-05-03T09:11:01.172Z</time></trkpt><trkpt lat="45.1972929" lon="8.6231769"><ele>103.5</ele><time>2026-05-03T09:11:02.171Z</time></trkpt><trkpt lat="45.1974305" lon="8.623496"><ele>103.0</ele><time>2026-05-03T09:11:03.172Z</time></trkpt><trkpt lat="45.1975684" lon="8.6238145"><ele>103.0</ele><time>2026-05-03T09:11:04.172Z</time></trkpt><trkpt lat="45.1977061" lon="8.6241349"><ele>103.0</ele><time>2026-05-03T09:11:05.171Z</time></trkpt><trkpt lat="45.197844" lon="8.6244544"><ele>104.0</ele><time>2026-05-03T09:11:06.172Z</time></trkpt><trkpt lat="45.197981" lon="8.6247742"><ele>105.0</ele><time>2026-05-03T09:11:07.171Z</time></trkpt><trkpt lat="45.1981185" lon="8.6250954"><ele>105.0</ele><time>2026-05-03T09:11:08.171Z</time></trkpt><trkpt lat="45.1982556" lon="8.6254156"><ele>105.0</ele><time>2026-05-03T09:11:09.171Z</time></trkpt><trkpt lat="45.1983901" lon="8.6257364"><ele>105.0</ele><time>2026-05-03T09:11:10.172Z</time></trkpt><trkpt lat="45.1985238" lon="8.6260527"><ele>105.0</ele><time>2026-05-03T09:11:11.171Z</time></trkpt><trkpt lat="45.1986594" lon="8.6263679"><ele>105.0</ele><time>2026-05-03T09:11:12.171Z</time></trkpt><trkpt lat="45.1987941" lon="8.6266814"><ele>105.0</ele><time>2026-05-03T09:11:13.171Z</time></trkpt><trkpt lat="45.1989284" lon="8.6269955"><ele>104.5</ele><time>2026-05-03T09:11:14.171Z</time></trkpt><trkpt lat="45.1990623" lon="8.6273093"><ele>104.0</ele><time>2026-05-03T09:11:15.171Z</time></trkpt><trkpt lat="45.1991949" lon="8.6276225"><ele>104.0</ele><time>2026-05-03T09:11:16.172Z</time></trkpt><trkpt lat="45.1993284" lon="8.6279388"><ele>104.0</ele><time>2026-05-03T09:11:17.171Z</time></trkpt><trkpt lat="45.1994606" lon="8.6282497"><ele>104.0</ele><time>2026-05-03T09:11:18.171Z</time></trkpt><trkpt lat="45.1995955" lon="8.6285584"><ele>104.0</ele><time>2026-05-03T09:11:19.172Z</time></trkpt><trkpt lat="45.1997289" lon="8.628864"><ele>104.0</ele><time>2026-05-03T09:11:20.172Z</time></trkpt><trkpt lat="45.1998625" lon="8.6291726"><ele>104.0</ele><time>2026-05-03T09:11:21.172Z</time></trkpt><trkpt lat="45.1999918" lon="8.6294844"><ele>104.0</ele><time>2026-05-03T09:11:22.172Z</time></trkpt><trkpt lat="45.2001237" lon="8.6297904"><ele>104.0</ele><time>2026-05-03T09:11:23.171Z</time></trkpt><trkpt lat="45.2002555" lon="8.6300975"><ele>104.5</ele><time>2026-05-03T09:11:24.171Z</time></trkpt><trkpt lat="45.200387" lon="8.6304049"><ele>105.0</ele><time>2026-05-03T09:11:25.171Z</time></trkpt><trkpt lat="45.2005201" lon="8.6307121"><ele>105.0</ele><time>2026-05-03T09:11:26.172Z</time></trkpt><trkpt lat="45.2006531" lon="8.6310196"><ele>105.0</ele><time>2026-05-03T09:11:27.172Z</time></trkpt><trkpt lat="45.2007865" lon="8.6313236"><ele>105.5</ele><time>2026-05-03T09:11:28.172Z</time></trkpt><trkpt lat="45.2009175" lon="8.6316287"><ele>106.0</ele><time>2026-05-03T09:11:29.172Z</time></trkpt><trkpt lat="45.2010505" lon="8.6319352"><ele>105.0</ele><time>2026-05-03T09:11:30.172Z</time></trkpt><trkpt lat="45.2011814" lon="8.6322443"><ele>104.0</ele><time>2026-05-03T09:11:31.172Z</time></trkpt><trkpt lat="45.2013121" lon="8.6325565"><ele>103.5</ele><time>2026-05-03T09:11:32.171Z</time></trkpt><trkpt lat="45.2014434" lon="8.6328685"><ele>103.0</ele><time>2026-05-03T09:11:33.172Z</time></trkpt><trkpt lat="45.2015754" lon="8.6331788"><ele>103.5</ele><time>2026-05-03T09:11:34.172Z</time></trkpt><trkpt lat="45.2017059" lon="8.6334868"><ele>104.0</ele><time>2026-05-03T09:11:35.172Z</time></trkpt><trkpt lat="45.2018385" lon="8.6337938"><ele>104.0</ele><time>2026-05-03T09:11:36.171Z</time></trkpt><trkpt lat="45.2019722" lon="8.6340997"><ele>104.0</ele><time>2026-05-03T09:11:37.172Z</time></trkpt><trkpt lat="45.2021058" lon="8.6344047"><ele>103.5</ele><time>2026-05-03T09:11:38.171Z</time></trkpt><trkpt lat="45.202237" lon="8.6347088"><ele>103.0</ele><time>2026-05-03T09:11:39.171Z</time></trkpt><trkpt lat="45.2023685" lon="8.6350137"><ele>103.0</ele><time>2026-05-03T09:11:40.172Z</time></trkpt><trkpt lat="45.2025031" lon="8.6353176"><ele>103.0</ele><time>2026-05-03T09:11:41.171Z</time></trkpt><trkpt lat="45.2026391" lon="8.635618"><ele>103.0</ele><time>2026-05-03T09:11:42.171Z</time></trkpt><trkpt lat="45.2027721" lon="8.6359096"><ele>103.0</ele><time>2026-05-03T09:11:43.172Z</time></trkpt><trkpt lat="45.2028978" lon="8.6361868"><ele>103.0</ele><time>2026-05-03T09:11:44.172Z</time></trkpt><trkpt lat="45.2030165" lon="8.6364526"><ele>103.0</ele><time>2026-05-03T09:11:45.171Z</time></trkpt><trkpt lat="45.2031286" lon="8.6367069"><ele>103.0</ele><time>2026-05-03T09:11:46.171Z</time></trkpt><trkpt lat="45.2032341" lon="8.6369481"><ele>102.66666666666667</ele><time>2026-05-03T09:11:47.171Z</time></trkpt><trkpt lat="45.2033503" lon="8.6371573"><ele>102.33333333333334</ele><time>2026-05-03T09:11:48.172Z</time></trkpt><trkpt lat="45.2034858" lon="8.6373399"><ele>102.0</ele><time>2026-05-03T09:11:49.171Z</time></trkpt><trkpt lat="45.2036384" lon="8.6375002"><ele>102.0</ele><time>2026-05-03T09:11:50.172Z</time></trkpt><trkpt lat="45.2038091" lon="8.6376489"><ele>102.0</ele><time>2026-05-03T09:11:51.171Z</time></trkpt><trkpt lat="45.2039898" lon="8.6377905"><ele>102.0</ele><time>2026-05-03T09:11:52.171Z</time></trkpt><trkpt lat="45.2041753" lon="8.637939"><ele>102.0</ele><time>2026-05-03T09:11:53.171Z</time></trkpt><trkpt lat="45.2043633" lon="8.6380922"><ele>102.0</ele><time>2026-05-03T09:11:54.172Z</time></trkpt><trkpt lat="45.2045508" lon="8.63824"><ele>102.0</ele><time>2026-05-03T09:11:55.171Z</time></trkpt><trkpt lat="45.2047329" lon="8.6383912"><ele>102.0</ele><time>2026-05-03T09:11:56.172Z</time></trkpt><trkpt lat="45.2049137" lon="8.6385429"><ele>102.0</ele><time>2026-05-03T09:11:57.171Z</time></trkpt><trkpt lat="45.2050871" lon="8.6387108"><ele>102.0</ele><time>2026-05-03T09:11:58.172Z</time></trkpt><trkpt lat="45.2052452" lon="8.6389167"><ele>101.66666666666666</ele><time>2026-05-03T09:11:59.172Z</time></trkpt><trkpt lat="45.205392" lon="8.6391487"><ele>101.33333333333333</ele><time>2026-05-03T09:12:00.172Z</time></trkpt><trkpt lat="45.2055394" lon="8.6393923"><ele>101.0</ele><time>2026-05-03T09:12:01.171Z</time></trkpt><trkpt lat="45.2056895" lon="8.6396451"><ele>101.0</ele><time>2026-05-03T09:12:02.171Z</time></trkpt><trkpt lat="45.2058385" lon="8.6398907"><ele>101.0</ele><time>2026-05-03T09:12:03.172Z</time></trkpt><trkpt lat="45.2059878" lon="8.6401349"><ele>100.5</ele><time>2026-05-03T09:12:04.171Z</time></trkpt><trkpt lat="45.2061422" lon="8.6403801"><ele>100.0</ele><time>2026-05-03T09:12:05.172Z</time></trkpt><trkpt lat="45.2062979" lon="8.6406267"><ele>100.0</ele><time>2026-05-03T09:12:06.172Z</time></trkpt><trkpt lat="45.2064522" lon="8.6408734"><ele>100.0</ele><time>2026-05-03T09:12:07.171Z</time></trkpt><trkpt lat="45.2066054" lon="8.6411186"><ele>100.0</ele><time>2026-05-03T09:12:08.171Z</time></trkpt><trkpt lat="45.2067615" lon="8.6413674"><ele>100.0</ele><time>2026-05-03T09:12:09.172Z</time></trkpt><trkpt lat="45.2069173" lon="8.6416141"><ele>100.0</ele><time>2026-05-03T09:12:10.172Z</time></trkpt><trkpt lat="45.2070715" lon="8.6418578"><ele>100.0</ele><time>2026-05-03T09:12:11.172Z</time></trkpt><trkpt lat="45.2072274" lon="8.6421002"><ele>100.5</ele><time>2026-05-03T09:12:12.171Z</time></trkpt><trkpt lat="45.2073842" lon="8.6423439"><ele>101.0</ele><time>2026-05-03T09:12:13.172Z</time></trkpt><trkpt lat="45.2075374" lon="8.6425906"><ele>101.0</ele><time>2026-05-03T09:12:14.172Z</time></trkpt><trkpt lat="45.2076904" lon="8.6428356"><ele>101.0</ele><time>2026-05-03T09:12:15.171Z</time></trkpt><trkpt lat="45.2078448" lon="8.6430815"><ele>101.0</ele><time>2026-05-03T09:12:16.172Z</time></trkpt><trkpt lat="45.208001" lon="8.6433285"><ele>101.0</ele><time>2026-05-03T09:12:17.172Z</time></trkpt><trkpt lat="45.2081551" lon="8.6435676"><ele>101.0</ele><time>2026-05-03T09:12:18.172Z</time></trkpt><trkpt lat="45.2083107" lon="8.6438135"><ele>101.0</ele><time>2026-05-03T09:12:19.172Z</time></trkpt><trkpt lat="45.2084639" lon="8.6440604"><ele>101.0</ele><time>2026-05-03T09:12:20.172Z</time></trkpt><trkpt lat="45.2086216" lon="8.6443074"><ele>101.0</ele><time>2026-05-03T09:12:21.172Z</time></trkpt><trkpt lat="45.2087758" lon="8.6445538"><ele>101.5</ele><time>2026-05-03T09:12:22.172Z</time></trkpt><trkpt lat="45.2089284" lon="8.6447985"><ele>102.0</ele><time>2026-05-03T09:12:23.172Z</time></trkpt><trkpt lat="45.2090823" lon="8.6450467"><ele>102.0</ele><time>2026-05-03T09:12:24.172Z</time></trkpt><trkpt lat="45.209237" lon="8.6452907"><ele>102.0</ele><time>2026-05-03T09:12:25.171Z</time></trkpt><trkpt lat="45.2093965" lon="8.6455373"><ele>102.0</ele><time>2026-05-03T09:12:26.172Z</time></trkpt><trkpt lat="45.2095533" lon="8.6457796"><ele>102.0</ele><time>2026-05-03T09:12:27.172Z</time></trkpt><trkpt lat="45.2097071" lon="8.6460234"><ele>102.5</ele><time>2026-05-03T09:12:28.171Z</time></trkpt><trkpt lat="45.2098594" lon="8.6462702"><ele>103.0</ele><time>2026-05-03T09:12:29.171Z</time></trkpt><trkpt lat="45.2100147" lon="8.6465147"><ele>103.0</ele><time>2026-05-03T09:12:30.172Z</time></trkpt><trkpt lat="45.2101698" lon="8.6467608"><ele>103.0</ele><time>2026-05-03T09:12:31.172Z</time></trkpt><trkpt lat="45.2103239" lon="8.6470006"><ele>104.0</ele><time>2026-05-03T09:12:32.172Z</time></trkpt><trkpt lat="45.2104778" lon="8.6472405"><ele>105.0</ele><time>2026-05-03T09:12:33.172Z</time></trkpt><trkpt lat="45.2106361" lon="8.6474808"><ele>105.5</ele><time>2026-05-03T09:12:34.171Z</time></trkpt><trkpt lat="45.2107933" lon="8.6477224"><ele>106.0</ele><time>2026-05-03T09:12:35.172Z</time></trkpt><trkpt lat="45.2109474" lon="8.6479688"><ele>107.0</ele><time>2026-05-03T09:12:36.172Z</time></trkpt><trkpt lat="45.2110971" lon="8.648209"><ele>108.0</ele><time>2026-05-03T09:12:37.172Z</time></trkpt><trkpt lat="45.2112509" lon="8.6484531"><ele>107.5</ele><time>2026-05-03T09:12:38.172Z</time></trkpt><trkpt lat="45.2114058" lon="8.6487003"><ele>107.0</ele><time>2026-05-03T09:12:39.172Z</time></trkpt><trkpt lat="45.2115641" lon="8.6489458"><ele>106.0</ele><time>2026-05-03T09:12:40.172Z</time></trkpt><trkpt lat="45.2117218" lon="8.6491875"><ele>105.0</ele><time>2026-05-03T09:12:41.172Z</time></trkpt><trkpt lat="45.2118752" lon="8.6494314"><ele>104.5</ele><time>2026-05-03T09:12:42.171Z</time></trkpt><trkpt lat="45.2120314" lon="8.6496798"><ele>104.0</ele><time>2026-05-03T09:12:43.171Z</time></trkpt><trkpt lat="45.2121861" lon="8.6499282"><ele>104.0</ele><time>2026-05-03T09:12:44.172Z</time></trkpt><trkpt lat="45.2123426" lon="8.6501764"><ele>104.0</ele><time>2026-05-03T09:12:45.172Z</time></trkpt><trkpt lat="45.2124976" lon="8.6504252"><ele>104.0</ele><time>2026-05-03T09:12:46.172Z</time></trkpt><trkpt lat="45.2126516" lon="8.6506728"><ele>104.0</ele><time>2026-05-03T09:12:47.172Z</time></trkpt><trkpt lat="45.2128062" lon="8.6509198"><ele>104.0</ele><time>2026-05-03T09:12:48.172Z</time></trkpt><trkpt lat="45.2129586" lon="8.6511716"><ele>104.0</ele><time>2026-05-03T09:12:49.171Z</time></trkpt><trkpt lat="45.2131126" lon="8.651418"><ele>104.5</ele><time>2026-05-03T09:12:50.172Z</time></trkpt><trkpt lat="45.2132703" lon="8.6516625"><ele>105.0</ele><time>2026-05-03T09:12:51.172Z</time></trkpt><trkpt lat="45.2134284" lon="8.6519048"><ele>105.5</ele><time>2026-05-03T09:12:52.171Z</time></trkpt><trkpt lat="45.2135872" lon="8.652149"><ele>106.0</ele><time>2026-05-03T09:12:53.172Z</time></trkpt><trkpt lat="45.2137462" lon="8.6523935"><ele>106.0</ele><time>2026-05-03T09:12:54.172Z</time></trkpt><trkpt lat="45.213899" lon="8.6526457"><ele>106.0</ele><time>2026-05-03T09:12:55.172Z</time></trkpt><trkpt lat="45.2140547" lon="8.6528951"><ele>105.5</ele><time>2026-05-03T09:12:56.171Z</time></trkpt><trkpt lat="45.2142086" lon="8.653141"><ele>105.0</ele><time>2026-05-03T09:12:57.171Z</time></trkpt><trkpt lat="45.214363" lon="8.6533889"><ele>105.0</ele><time>2026-05-03T09:12:58.172Z</time></trkpt><trkpt lat="45.2145221" lon="8.6536371"><ele>105.0</ele><time>2026-05-03T09:12:59.172Z</time></trkpt><trkpt lat="45.2146751" lon="8.6538801"><ele>105.0</ele><time>2026-05-03T09:13:00.172Z</time></trkpt><trkpt lat="45.2148313" lon="8.6541216"><ele>105.0</ele><time>2026-05-03T09:13:01.172Z</time></trkpt><trkpt lat="45.2149879" lon="8.65436"><ele>105.0</ele><time>2026-05-03T09:13:02.172Z</time></trkpt><trkpt lat="45.2151415" lon="8.6546026"><ele>105.0</ele><time>2026-05-03T09:13:03.171Z</time></trkpt><trkpt lat="45.2152984" lon="8.6548484"><ele>105.0</ele><time>2026-05-03T09:13:04.172Z</time></trkpt><trkpt lat="45.2154553" lon="8.6550923"><ele>105.0</ele><time>2026-05-03T09:13:05.172Z</time></trkpt><trkpt lat="45.2156106" lon="8.6553377"><ele>105.5</ele><time>2026-05-03T09:13:06.171Z</time></trkpt><trkpt lat="45.2157669" lon="8.6555834"><ele>106.0</ele><time>2026-05-03T09:13:07.166Z</time></trkpt><trkpt lat="45.215923" lon="8.6558322"><ele>106.0</ele><time>2026-05-03T09:13:08.172Z</time></trkpt><trkpt lat="45.2160816" lon="8.6560756"><ele>106.0</ele><time>2026-05-03T09:13:09.171Z</time></trkpt><trkpt lat="45.2162358" lon="8.6563212"><ele>105.5</ele><time>2026-05-03T09:13:10.171Z</time></trkpt><trkpt lat="45.2163905" lon="8.6565656"><ele>105.0</ele><time>2026-05-03T09:13:11.171Z</time></trkpt><trkpt lat="45.2165459" lon="8.6568106"><ele>105.0</ele><time>2026-05-03T09:13:12.171Z</time></trkpt><trkpt lat="45.216702" lon="8.6570548"><ele>105.0</ele><time>2026-05-03T09:13:13.172Z</time></trkpt><trkpt lat="45.2168565" lon="8.6572993"><ele>105.0</ele><time>2026-05-03T09:13:14.172Z</time></trkpt><trkpt lat="45.2170128" lon="8.6575445"><ele>105.0</ele><time>2026-05-03T09:13:15.172Z</time></trkpt><trkpt lat="45.2171691" lon="8.6577889"><ele>107.5</ele><time>2026-05-03T09:13:16.172Z</time></trkpt><trkpt lat="45.2173232" lon="8.6580362"><ele>110.0</ele><time>2026-05-03T09:13:17.171Z</time></trkpt><trkpt lat="45.217476" lon="8.6582836"><ele>110.0</ele><time>2026-05-03T09:13:18.171Z</time></trkpt><trkpt lat="45.2176294" lon="8.65853"><ele>110.0</ele><time>2026-05-03T09:13:19.171Z</time></trkpt><trkpt lat="45.2177822" lon="8.6587731"><ele>108.0</ele><time>2026-05-03T09:13:20.172Z</time></trkpt><trkpt lat="45.2179353" lon="8.6590155"><ele>106.0</ele><time>2026-05-03T09:13:21.172Z</time></trkpt><trkpt lat="45.2180895" lon="8.6592604"><ele>107.5</ele><time>2026-05-03T09:13:22.172Z</time></trkpt><trkpt lat="45.2182462" lon="8.6595021"><ele>109.0</ele><time>2026-05-03T09:13:23.171Z</time></trkpt><trkpt lat="45.2184031" lon="8.6597461"><ele>109.0</ele><time>2026-05-03T09:13:24.172Z</time></trkpt><trkpt lat="45.2185592" lon="8.6599877"><ele>109.0</ele><time>2026-05-03T09:13:25.171Z</time></trkpt><trkpt lat="45.218712" lon="8.66023"><ele>107.5</ele><time>2026-05-03T09:13:26.172Z</time></trkpt><trkpt lat="45.2188642" lon="8.6604741"><ele>106.0</ele><time>2026-05-03T09:13:27.171Z</time></trkpt><trkpt lat="45.219016" lon="8.6607157"><ele>106.5</ele><time>2026-05-03T09:13:28.172Z</time></trkpt><trkpt lat="45.2191702" lon="8.6609585"><ele>107.0</ele><time>2026-05-03T09:13:29.172Z</time></trkpt><trkpt lat="45.219324" lon="8.6612007"><ele>107.0</ele><time>2026-05-03T09:13:30.172Z</time></trkpt><trkpt lat="45.2194794" lon="8.6614459"><ele>107.0</ele><time>2026-05-03T09:13:31.172Z</time></trkpt><trkpt lat="45.2196353" lon="8.6616923"><ele>107.0</ele><time>2026-05-03T09:13:32.172Z</time></trkpt><trkpt lat="45.2197898" lon="8.6619377"><ele>107.0</ele><time>2026-05-03T09:13:33.171Z</time></trkpt><trkpt lat="45.2199438" lon="8.6621878"><ele>107.5</ele><time>2026-05-03T09:13:34.172Z</time></trkpt><trkpt lat="45.2200926" lon="8.6624448"><ele>108.0</ele><time>2026-05-03T09:13:35.172Z</time></trkpt><trkpt lat="45.2202327" lon="8.6627141"><ele>107.5</ele><time>2026-05-03T09:13:36.172Z</time></trkpt><trkpt lat="45.2203576" lon="8.6629962"><ele>107.0</ele><time>2026-05-03T09:13:37.172Z</time></trkpt><trkpt lat="45.2204753" lon="8.6632838"><ele>107.0</ele><time>2026-05-03T09:13:38.172Z</time></trkpt><trkpt lat="45.2205918" lon="8.663577"><ele>107.0</ele><time>2026-05-03T09:13:39.172Z</time></trkpt><trkpt lat="45.2207101" lon="8.663873"><ele>106.5</ele><time>2026-05-03T09:13:40.172Z</time></trkpt><trkpt lat="45.2208292" lon="8.6641698"><ele>106.0</ele><time>2026-05-03T09:13:41.172Z</time></trkpt><trkpt lat="45.2209504" lon="8.6644633"><ele>106.0</ele><time>2026-05-03T09:13:42.172Z</time></trkpt><trkpt lat="45.2210695" lon="8.6647551"><ele>106.0</ele><time>2026-05-03T09:13:43.172Z</time></trkpt><trkpt lat="45.2211895" lon="8.6650444"><ele>106.5</ele><time>2026-05-03T09:13:44.171Z</time></trkpt><trkpt lat="45.2213101" lon="8.6653336"><ele>107.0</ele><time>2026-05-03T09:13:45.172Z</time></trkpt><trkpt lat="45.22143" lon="8.6656262"><ele>106.5</ele><time>2026-05-03T09:13:46.172Z</time></trkpt><trkpt lat="45.2215502" lon="8.6659192"><ele>106.0</ele><time>2026-05-03T09:13:47.172Z</time></trkpt><trkpt lat="45.2216712" lon="8.6662132"><ele>106.0</ele><time>2026-05-03T09:13:48.172Z</time></trkpt><trkpt lat="45.2217942" lon="8.6665045"><ele>106.0</ele><time>2026-05-03T09:13:49.171Z</time></trkpt><trkpt lat="45.2219182" lon="8.6667981"><ele>106.0</ele><time>2026-05-03T09:13:50.172Z</time></trkpt><trkpt lat="45.2220427" lon="8.667091"><ele>106.0</ele><time>2026-05-03T09:13:51.171Z</time></trkpt><trkpt lat="45.2221671" lon="8.6673848"><ele>106.0</ele><time>2026-05-03T09:13:52.172Z</time></trkpt><trkpt lat="45.2222895" lon="8.6676781"><ele>106.0</ele><time>2026-05-03T09:13:53.171Z</time></trkpt><trkpt lat="45.2224113" lon="8.6679708"><ele>106.0</ele><time>2026-05-03T09:13:54.172Z</time></trkpt><trkpt lat="45.2225358" lon="8.668266"><ele>106.0</ele><time>2026-05-03T09:13:55.171Z</time></trkpt><trkpt lat="45.2226611" lon="8.6685602"><ele>106.0</ele><time>2026-05-03T09:13:56.172Z</time></trkpt><trkpt lat="45.2227838" lon="8.668854"><ele>106.0</ele><time>2026-05-03T09:13:57.172Z</time></trkpt><trkpt lat="45.2229072" lon="8.6691461"><ele>106.0</ele><time>2026-05-03T09:13:58.172Z</time></trkpt><trkpt lat="45.223029" lon="8.6694375"><ele>106.0</ele><time>2026-05-03T09:13:59.171Z</time></trkpt><trkpt lat="45.2231521" lon="8.6697289"><ele>106.0</ele><time>2026-05-03T09:14:00.172Z</time></trkpt><trkpt lat="45.2232732" lon="8.6700193"><ele>106.0</ele><time>2026-05-03T09:14:01.172Z</time></trkpt><trkpt lat="45.2233929" lon="8.6703096"><ele>105.5</ele><time>2026-05-03T09:14:02.172Z</time></trkpt><trkpt lat="45.2235138" lon="8.6705995"><ele>105.0</ele><time>2026-05-03T09:14:03.172Z</time></trkpt><trkpt lat="45.223635" lon="8.6708891"><ele>105.5</ele><time>2026-05-03T09:14:04.172Z</time></trkpt><trkpt lat="45.2237536" lon="8.6711756"><ele>106.0</ele><time>2026-05-03T09:14:05.172Z</time></trkpt><trkpt lat="45.2238728" lon="8.6714603"><ele>105.5</ele><time>2026-05-03T09:14:06.172Z</time></trkpt><trkpt lat="45.2239925" lon="8.6717439"><ele>105.0</ele><time>2026-05-03T09:14:07.172Z</time></trkpt><trkpt lat="45.2241131" lon="8.6720264"><ele>106.0</ele><time>2026-05-03T09:14:08.172Z</time></trkpt><trkpt lat="45.2242329" lon="8.6723091"><ele>107.0</ele><time>2026-05-03T09:14:09.172Z</time></trkpt><trkpt lat="45.2243496" lon="8.6725919"><ele>107.0</ele><time>2026-05-03T09:14:10.172Z</time></trkpt><trkpt lat="45.2244665" lon="8.6728716"><ele>107.0</ele><time>2026-05-03T09:14:11.172Z</time></trkpt><trkpt lat="45.2245835" lon="8.6731561"><ele>107.0</ele><time>2026-05-03T09:14:12.172Z</time></trkpt><trkpt lat="45.2247004" lon="8.673438"><ele>107.0</ele><time>2026-05-03T09:14:13.171Z</time></trkpt><trkpt lat="45.2248179" lon="8.6737179"><ele>107.0</ele><time>2026-05-03T09:14:14.171Z</time></trkpt><trkpt lat="45.2249372" lon="8.6739973"><ele>107.0</ele><time>2026-05-03T09:14:15.172Z</time></trkpt><trkpt lat="45.2250563" lon="8.6742738"><ele>106.66666666666666</ele><time>2026-05-03T09:14:16.172Z</time></trkpt><trkpt lat="45.2251737" lon="8.6745496"><ele>106.33333333333334</ele><time>2026-05-03T09:14:17.172Z</time></trkpt><trkpt lat="45.2252877" lon="8.6748151"><ele>106.0</ele><time>2026-05-03T09:14:18.171Z</time></trkpt><trkpt lat="45.2253946" lon="8.6750649"><ele>106.0</ele><time>2026-05-03T09:14:19.171Z</time></trkpt><trkpt lat="45.2254929" lon="8.6752967"><ele>106.0</ele><time>2026-05-03T09:14:20.171Z</time></trkpt><trkpt lat="45.2255875" lon="8.6755282"><ele>106.0</ele><time>2026-05-03T09:14:21.172Z</time></trkpt><trkpt lat="45.2256781" lon="8.675749"><ele>106.33333333333334</ele><time>2026-05-03T09:14:22.172Z</time></trkpt><trkpt lat="45.225767" lon="8.6759617"><ele>106.66666666666666</ele><time>2026-05-03T09:14:23.172Z</time></trkpt><trkpt lat="45.2258538" lon="8.6761657"><ele>107.0</ele><time>2026-05-03T09:14:24.172Z</time></trkpt><trkpt lat="45.2259342" lon="8.6763582"><ele>107.0</ele><time>2026-05-03T09:14:25.171Z</time></trkpt><trkpt lat="45.2260087" lon="8.67654"><ele>107.0</ele><time>2026-05-03T09:14:26.171Z</time></trkpt><trkpt lat="45.2260802" lon="8.6767129"><ele>107.0</ele><time>2026-05-03T09:14:27.171Z</time></trkpt><trkpt lat="45.2261446" lon="8.6768719"><ele>107.0</ele><time>2026-05-03T09:14:28.172Z</time></trkpt><trkpt lat="45.2261966" lon="8.6770106"><ele>106.83333333333333</ele><time>2026-05-03T09:14:29.171Z</time></trkpt><trkpt lat="45.2262202" lon="8.6771428"><ele>106.66666666666666</ele><time>2026-05-03T09:14:30.171Z</time></trkpt><trkpt lat="45.2262225" lon="8.6772625"><ele>106.5</ele><time>2026-05-03T09:14:31.172Z</time></trkpt><trkpt lat="45.2262269" lon="8.6773796"><ele>106.33333333333334</ele><time>2026-05-03T09:14:32.171Z</time></trkpt><trkpt lat="45.2262603" lon="8.6774706"><ele>106.16666666666667</ele><time>2026-05-03T09:14:33.172Z</time></trkpt><trkpt lat="45.2263409" lon="8.6775373"><ele>106.0</ele><time>2026-05-03T09:14:34.171Z</time></trkpt><trkpt lat="45.2264488" lon="8.6775893"><ele>106.0</ele><time>2026-05-03T09:14:35.172Z</time></trkpt><trkpt lat="45.2265695" lon="8.6776658"><ele>106.0</ele><time>2026-05-03T09:14:36.171Z</time></trkpt><trkpt lat="45.226702" lon="8.6777944"><ele>106.0</ele><time>2026-05-03T09:14:37.171Z</time></trkpt><trkpt lat="45.2268429" lon="8.6779608"><ele>106.0</ele><time>2026-05-03T09:14:38.171Z</time></trkpt><trkpt lat="45.2269913" lon="8.6781383"><ele>106.0</ele><time>2026-05-03T09:14:39.171Z</time></trkpt><trkpt lat="45.2271406" lon="8.6783181"><ele>106.0</ele><time>2026-05-03T09:14:40.172Z</time></trkpt><trkpt lat="45.2273006" lon="8.6785026"><ele>105.66666666666667</ele><time>2026-05-03T09:14:41.172Z</time></trkpt><trkpt lat="45.227469" lon="8.6786919"><ele>105.33333333333334</ele><time>2026-05-03T09:14:42.171Z</time></trkpt><trkpt lat="45.2276431" lon="8.6788756"><ele>105.0</ele><time>2026-05-03T09:14:43.172Z</time></trkpt><trkpt lat="45.2278236" lon="8.6790664"><ele>105.0</ele><time>2026-05-03T09:14:44.171Z</time></trkpt><trkpt lat="45.2280086" lon="8.6792572"><ele>105.0</ele><time>2026-05-03T09:14:45.172Z</time></trkpt><trkpt lat="45.2281925" lon="8.6794502"><ele>105.0</ele><time>2026-05-03T09:14:46.171Z</time></trkpt><trkpt lat="45.2283718" lon="8.6796383"><ele>105.0</ele><time>2026-05-03T09:14:47.172Z</time></trkpt><trkpt lat="45.2285501" lon="8.6798286"><ele>105.0</ele><time>2026-05-03T09:14:48.171Z</time></trkpt><trkpt lat="45.2287272" lon="8.680018"><ele>105.0</ele><time>2026-05-03T09:14:49.172Z</time></trkpt><trkpt lat="45.2288992" lon="8.6802071"><ele>105.0</ele><time>2026-05-03T09:14:50.172Z</time></trkpt><trkpt lat="45.2290687" lon="8.6803895"><ele>105.0</ele><time>2026-05-03T09:14:51.172Z</time></trkpt><trkpt lat="45.2292334" lon="8.6805625"><ele>105.0</ele><time>2026-05-03T09:14:52.172Z</time></trkpt><trkpt lat="45.2293951" lon="8.680738"><ele>105.0</ele><time>2026-05-03T09:14:53.171Z</time></trkpt><trkpt lat="45.2295533" lon="8.6809192"><ele>105.0</ele><time>2026-05-03T09:14:54.172Z</time></trkpt><trkpt lat="45.2296966" lon="8.6811178"><ele>104.33333333333334</ele><time>2026-05-03T09:14:55.172Z</time></trkpt><trkpt lat="45.2298239" lon="8.6813452"><ele>103.66666666666667</ele><time>2026-05-03T09:14:56.172Z</time></trkpt><trkpt lat="45.2299379" lon="8.6815754"><ele>103.0</ele><time>2026-05-03T09:14:57.172Z</time></trkpt><trkpt lat="45.2300515" lon="8.6818106"><ele>103.33333333333334</ele><time>2026-05-03T09:14:58.171Z</time></trkpt><trkpt lat="45.2301621" lon="8.6820419"><ele>103.66666666666666</ele><time>2026-05-03T09:14:59.172Z</time></trkpt><trkpt lat="45.2302691" lon="8.6822676"><ele>104.0</ele><time>2026-05-03T09:15:00.172Z</time></trkpt><trkpt lat="45.2303728" lon="8.6824836"><ele>104.0</ele><time>2026-05-03T09:15:01.172Z</time></trkpt><trkpt lat="45.2304718" lon="8.6826874"><ele>104.0</ele><time>2026-05-03T09:15:02.171Z</time></trkpt><trkpt lat="45.230566" lon="8.6828777"><ele>104.0</ele><time>2026-05-03T09:15:03.172Z</time></trkpt><trkpt lat="45.230655" lon="8.6830563"><ele>104.25</ele><time>2026-05-03T09:15:04.172Z</time></trkpt><trkpt lat="45.2307412" lon="8.6832304"><ele>104.5</ele><time>2026-05-03T09:15:05.171Z</time></trkpt><trkpt lat="45.230824" lon="8.6833953"><ele>104.75</ele><time>2026-05-03T09:15:06.172Z</time></trkpt><trkpt lat="45.2309036" lon="8.6835567"><ele>105.0</ele><time>2026-05-03T09:15:07.171Z</time></trkpt><trkpt lat="45.2309772" lon="8.6837097"><ele>104.5</ele><time>2026-05-03T09:15:08.172Z</time></trkpt><trkpt lat="45.2310487" lon="8.6838595"><ele>104.0</ele><time>2026-05-03T09:15:09.172Z</time></trkpt><trkpt lat="45.2311148" lon="8.6840009"><ele>103.5</ele><time>2026-05-03T09:15:10.172Z</time></trkpt><trkpt lat="45.2311819" lon="8.6841391"><ele>103.0</ele><time>2026-05-03T09:15:11.172Z</time></trkpt><trkpt lat="45.2312513" lon="8.6842719"><ele>103.0</ele><time>2026-05-03T09:15:12.171Z</time></trkpt><trkpt lat="45.2313175" lon="8.6844009"><ele>103.0</ele><time>2026-05-03T09:15:13.171Z</time></trkpt><trkpt lat="45.2313847" lon="8.6845281"><ele>103.0</ele><time>2026-05-03T09:15:14.172Z</time></trkpt><trkpt lat="45.2314467" lon="8.684654"><ele>103.0</ele><time>2026-05-03T09:15:15.171Z</time></trkpt><trkpt lat="45.2315077" lon="8.6847785"><ele>103.0</ele><time>2026-05-03T09:15:16.172Z</time></trkpt><trkpt lat="45.2315673" lon="8.6849033"><ele>103.4</ele><time>2026-05-03T09:15:17.171Z</time></trkpt><trkpt lat="45.2316251" lon="8.6850299"><ele>103.80000000000001</ele><time>2026-05-03T09:15:18.171Z</time></trkpt><trkpt lat="45.2316821" lon="8.6851556"><ele>104.2</ele><time>2026-05-03T09:15:19.172Z</time></trkpt><trkpt lat="45.2317429" lon="8.6852776"><ele>104.6</ele><time>2026-05-03T09:15:20.172Z</time></trkpt><trkpt lat="45.2318048" lon="8.6853976"><ele>105.0</ele><time>2026-05-03T09:15:21.172Z</time></trkpt><trkpt lat="45.2318667" lon="8.6855199"><ele>105.0</ele><time>2026-05-03T09:15:22.171Z</time></trkpt><trkpt lat="45.2319272" lon="8.685647"><ele>105.0</ele><time>2026-05-03T09:15:23.172Z</time></trkpt><trkpt lat="45.2319883" lon="8.6857699"><ele>105.0</ele><time>2026-05-03T09:15:24.172Z</time></trkpt><trkpt lat="45.232048" lon="8.6858899"><ele>105.0</ele><time>2026-05-03T09:15:25.171Z</time></trkpt><trkpt lat="45.2321081" lon="8.6860075"><ele>105.0</ele><time>2026-05-03T09:15:26.171Z</time></trkpt><trkpt lat="45.2321669" lon="8.6861244"><ele>105.25</ele><time>2026-05-03T09:15:27.172Z</time></trkpt><trkpt lat="45.2322285" lon="8.686249"><ele>105.5</ele><time>2026-05-03T09:15:28.171Z</time></trkpt><trkpt lat="45.2322935" lon="8.6863802"><ele>105.75</ele><time>2026-05-03T09:15:29.171Z</time></trkpt><trkpt lat="45.2323622" lon="8.6865171"><ele>106.0</ele><time>2026-05-03T09:15:30.172Z</time></trkpt><trkpt lat="45.2324318" lon="8.6866574"><ele>106.0</ele><time>2026-05-03T09:15:31.171Z</time></trkpt><trkpt lat="45.2325006" lon="8.6867992"><ele>106.0</ele><time>2026-05-03T09:15:32.172Z</time></trkpt><trkpt lat="45.2325673" lon="8.6869405"><ele>106.0</ele><time>2026-05-03T09:15:33.171Z</time></trkpt><trkpt lat="45.2326356" lon="8.6870836"><ele>106.0</ele><time>2026-05-03T09:15:34.171Z</time></trkpt><trkpt lat="45.2327043" lon="8.6872238"><ele>106.0</ele><time>2026-05-03T09:15:35.172Z</time></trkpt><trkpt lat="45.2327707" lon="8.6873625"><ele>106.0</ele><time>2026-05-03T09:15:36.171Z</time></trkpt><trkpt lat="45.2328361" lon="8.6875004"><ele>106.0</ele><time>2026-05-03T09:15:37.172Z</time></trkpt><trkpt lat="45.2329027" lon="8.6876369"><ele>106.0</ele><time>2026-05-03T09:15:38.172Z</time></trkpt><trkpt lat="45.2329729" lon="8.6877724"><ele>106.19999999999999</ele><time>2026-05-03T09:15:39.172Z</time></trkpt><trkpt lat="45.2330407" lon="8.6879048"><ele>106.39999999999999</ele><time>2026-05-03T09:15:40.172Z</time></trkpt><trkpt lat="45.2331054" lon="8.6880332"><ele>106.6</ele><time>2026-05-03T09:15:41.172Z</time></trkpt><trkpt lat="45.2331685" lon="8.6881608"><ele>106.8</ele><time>2026-05-03T09:15:42.171Z</time></trkpt><trkpt lat="45.2332299" lon="8.6882834"><ele>107.0</ele><time>2026-05-03T09:15:43.172Z</time></trkpt><trkpt lat="45.2332923" lon="8.6884073"><ele>107.0</ele><time>2026-05-03T09:15:44.172Z</time></trkpt><trkpt lat="45.2333527" lon="8.6885292"><ele>106.99999999999999</ele><time>2026-05-03T09:15:45.172Z</time></trkpt><trkpt lat="45.2334081" lon="8.688648"><ele>106.99999999999999</ele><time>2026-05-03T09:15:46.172Z</time></trkpt><trkpt lat="45.2334625" lon="8.6887653"><ele>107.0</ele><time>2026-05-03T09:15:47.172Z</time></trkpt><trkpt lat="45.2335176" lon="8.6888797"><ele>107.0</ele><time>2026-05-03T09:15:48.172Z</time></trkpt><trkpt lat="45.233576" lon="8.6889968"><ele>107.0</ele><time>2026-05-03T09:15:49.172Z</time></trkpt><trkpt lat="45.233635" lon="8.689114"><ele>106.99999999999999</ele><time>2026-05-03T09:15:50.171Z</time></trkpt><trkpt lat="45.2336904" lon="8.6892302"><ele>106.99999999999999</ele><time>2026-05-03T09:15:51.172Z</time></trkpt><trkpt lat="45.2337465" lon="8.6893468"><ele>107.0</ele><time>2026-05-03T09:15:52.172Z</time></trkpt><trkpt lat="45.2338034" lon="8.6894594"><ele>107.0</ele><time>2026-05-03T09:15:53.172Z</time></trkpt><trkpt lat="45.2338633" lon="8.6895699"><ele>107.19999999999999</ele><time>2026-05-03T09:15:54.171Z</time></trkpt><trkpt lat="45.233924" lon="8.6896764"><ele>107.39999999999999</ele><time>2026-05-03T09:15:55.172Z</time></trkpt><trkpt lat="45.2339842" lon="8.6897837"><ele>107.60000000000001</ele><time>2026-05-03T09:15:56.171Z</time></trkpt><trkpt lat="45.2340468" lon="8.6898982"><ele>107.80000000000001</ele><time>2026-05-03T09:15:57.172Z</time></trkpt><trkpt lat="45.2341106" lon="8.6900161"><ele>108.0</ele><time>2026-05-03T09:15:58.172Z</time></trkpt><trkpt lat="45.2341762" lon="8.6901347"><ele>108.0</ele><time>2026-05-03T09:15:59.171Z</time></trkpt><trkpt lat="45.2342448" lon="8.690255"><ele>108.00000000000001</ele><time>2026-05-03T09:16:00.172Z</time></trkpt><trkpt lat="45.2343187" lon="8.690379"><ele>108.00000000000001</ele><time>2026-05-03T09:16:01.172Z</time></trkpt><trkpt lat="45.2343908" lon="8.6904975"><ele>108.0</ele><time>2026-05-03T09:16:02.172Z</time></trkpt><trkpt lat="45.2344554" lon="8.6906141"><ele>108.0</ele><time>2026-05-03T09:16:03.172Z</time></trkpt><trkpt lat="45.2345133" lon="8.6907241"><ele>107.80000000000001</ele><time>2026-05-03T09:16:04.172Z</time></trkpt><trkpt lat="45.2345732" lon="8.6908303"><ele>107.60000000000001</ele><time>2026-05-03T09:16:05.172Z</time></trkpt><trkpt lat="45.2346354" lon="8.6909383"><ele>107.39999999999999</ele><time>2026-05-03T09:16:06.172Z</time></trkpt><trkpt lat="45.2347038" lon="8.691048"><ele>107.19999999999999</ele><time>2026-05-03T09:16:07.171Z</time></trkpt><trkpt lat="45.2347787" lon="8.6911596"><ele>107.0</ele><time>2026-05-03T09:16:08.171Z</time></trkpt><trkpt lat="45.2348597" lon="8.6912696"><ele>107.0</ele><time>2026-05-03T09:16:09.171Z</time></trkpt><trkpt lat="45.2349453" lon="8.6913756"><ele>106.99999999999999</ele><time>2026-05-03T09:16:10.171Z</time></trkpt><trkpt lat="45.2350258" lon="8.6914813"><ele>106.99999999999999</ele><time>2026-05-03T09:16:11.171Z</time></trkpt><trkpt lat="45.2351046" lon="8.6915829"><ele>107.0</ele><time>2026-05-03T09:16:12.172Z</time></trkpt><trkpt lat="45.2351832" lon="8.6916825"><ele>107.0</ele><time>2026-05-03T09:16:13.171Z</time></trkpt><trkpt lat="45.2352618" lon="8.6917828"><ele>107.0</ele><time>2026-05-03T09:16:14.172Z</time></trkpt><trkpt lat="45.2353393" lon="8.6918726"><ele>106.99999999999999</ele><time>2026-05-03T09:16:15.172Z</time></trkpt><trkpt lat="45.2354118" lon="8.6919647"><ele>106.99999999999999</ele><time>2026-05-03T09:16:16.171Z</time></trkpt><trkpt lat="45.235481" lon="8.6920527"><ele>107.0</ele><time>2026-05-03T09:16:17.172Z</time></trkpt><trkpt lat="45.2355546" lon="8.6921406"><ele>107.0</ele><time>2026-05-03T09:16:18.172Z</time></trkpt><trkpt lat="45.235632" lon="8.6922322"><ele>107.0</ele><time>2026-05-03T09:16:19.171Z</time></trkpt><trkpt lat="45.2357124" lon="8.6923302"><ele>106.99999999999999</ele><time>2026-05-03T09:16:20.172Z</time></trkpt><trkpt lat="45.2357946" lon="8.692437"><ele>106.99999999999999</ele><time>2026-05-03T09:16:21.172Z</time></trkpt><trkpt lat="45.2358823" lon="8.6925407"><ele>107.0</ele><time>2026-05-03T09:16:22.172Z</time></trkpt><trkpt lat="45.2359701" lon="8.6926488"><ele>107.0</ele><time>2026-05-03T09:16:23.171Z</time></trkpt><trkpt lat="45.2360573" lon="8.6927585"><ele>107.0</ele><time>2026-05-03T09:16:24.172Z</time></trkpt><trkpt lat="45.2361432" lon="8.6928677"><ele>107.0</ele><time>2026-05-03T09:16:25.171Z</time></trkpt><trkpt lat="45.2362296" lon="8.6929697"><ele>107.0</ele><time>2026-05-03T09:16:26.171Z</time></trkpt><trkpt lat="45.2363135" lon="8.6930738"><ele>107.0</ele><time>2026-05-03T09:16:27.172Z</time></trkpt><trkpt lat="45.2363972" lon="8.6931777"><ele>107.25</ele><time>2026-05-03T09:16:28.172Z</time></trkpt><trkpt lat="45.2364825" lon="8.6932885"><ele>107.5</ele><time>2026-05-03T09:16:29.172Z</time></trkpt><trkpt lat="45.2365717" lon="8.6933967"><ele>107.75</ele><time>2026-05-03T09:16:30.171Z</time></trkpt><trkpt lat="45.2366613" lon="8.6935062"><ele>108.0</ele><time>2026-05-03T09:16:31.172Z</time></trkpt><trkpt lat="45.2367509" lon="8.6936183"><ele>108.0</ele><time>2026-05-03T09:16:32.172Z</time></trkpt><trkpt lat="45.2368401" lon="8.6937293"><ele>108.0</ele><time>2026-05-03T09:16:33.171Z</time></trkpt><trkpt lat="45.236928" lon="8.6938358"><ele>108.0</ele><time>2026-05-03T09:16:34.172Z</time></trkpt><trkpt lat="45.237014" lon="8.6939441"><ele>108.0</ele><time>2026-05-03T09:16:35.172Z</time></trkpt><trkpt lat="45.2370979" lon="8.6940504"><ele>108.0</ele><time>2026-05-03T09:16:36.172Z</time></trkpt><trkpt lat="45.2371813" lon="8.694152"><ele>108.00000000000001</ele><time>2026-05-03T09:16:37.171Z</time></trkpt><trkpt lat="45.2372667" lon="8.6942528"><ele>108.00000000000001</ele><time>2026-05-03T09:16:38.172Z</time></trkpt><trkpt lat="45.2373515" lon="8.6943532"><ele>108.0</ele><time>2026-05-03T09:16:39.172Z</time></trkpt><trkpt lat="45.237435" lon="8.6944549"><ele>108.0</ele><time>2026-05-03T09:16:40.172Z</time></trkpt><trkpt lat="45.2375178" lon="8.6945599"><ele>107.5</ele><time>2026-05-03T09:16:41.172Z</time></trkpt><trkpt lat="45.2376005" lon="8.6946677"><ele>107.0</ele><time>2026-05-03T09:16:42.172Z</time></trkpt><trkpt lat="45.2376836" lon="8.6947795"><ele>106.5</ele><time>2026-05-03T09:16:43.172Z</time></trkpt><trkpt lat="45.2377696" lon="8.6948928"><ele>106.0</ele><time>2026-05-03T09:16:44.172Z</time></trkpt><trkpt lat="45.2378615" lon="8.6950133"><ele>106.0</ele><time>2026-05-03T09:16:45.172Z</time></trkpt><trkpt lat="45.2379588" lon="8.6951352"><ele>106.0</ele><time>2026-05-03T09:16:46.172Z</time></trkpt><trkpt lat="45.2380659" lon="8.6952649"><ele>106.0</ele><time>2026-05-03T09:16:47.172Z</time></trkpt><trkpt lat="45.2381754" lon="8.6954034"><ele>106.0</ele><time>2026-05-03T09:16:48.171Z</time></trkpt><trkpt lat="45.2382914" lon="8.6955521"><ele>106.33333333333334</ele><time>2026-05-03T09:16:49.171Z</time></trkpt><trkpt lat="45.2384139" lon="8.6957065"><ele>106.66666666666666</ele><time>2026-05-03T09:16:50.172Z</time></trkpt><trkpt lat="45.2385434" lon="8.6958715"><ele>107.0</ele><time>2026-05-03T09:16:51.171Z</time></trkpt><trkpt lat="45.2386849" lon="8.6960508"><ele>107.0</ele><time>2026-05-03T09:16:52.171Z</time></trkpt><trkpt lat="45.2388403" lon="8.696243"><ele>107.0</ele><time>2026-05-03T09:16:53.172Z</time></trkpt><trkpt lat="45.239004" lon="8.6964429"><ele>107.0</ele><time>2026-05-03T09:16:54.172Z</time></trkpt><trkpt lat="45.2391704" lon="8.6966503"><ele>107.0</ele><time>2026-05-03T09:16:55.172Z</time></trkpt><trkpt lat="45.2393389" lon="8.6968612"><ele>107.0</ele><time>2026-05-03T09:16:56.171Z</time></trkpt><trkpt lat="45.239514" lon="8.6970779"><ele>107.0</ele><time>2026-05-03T09:16:57.172Z</time></trkpt><trkpt lat="45.239684" lon="8.697291"><ele>107.0</ele><time>2026-05-03T09:16:58.172Z</time></trkpt><trkpt lat="45.2398517" lon="8.6975006"><ele>107.0</ele><time>2026-05-03T09:16:59.171Z</time></trkpt><trkpt lat="45.2400187" lon="8.6977097"><ele>107.0</ele><time>2026-05-03T09:17:00.172Z</time></trkpt><trkpt lat="45.2401845" lon="8.6979189"><ele>107.0</ele><time>2026-05-03T09:17:01.172Z</time></trkpt><trkpt lat="45.2403485" lon="8.6981266"><ele>107.0</ele><time>2026-05-03T09:17:02.172Z</time></trkpt><trkpt lat="45.2405117" lon="8.6983333"><ele>107.0</ele><time>2026-05-03T09:17:03.171Z</time></trkpt><trkpt lat="45.2406771" lon="8.6985397"><ele>107.0</ele><time>2026-05-03T09:17:04.171Z</time></trkpt><trkpt lat="45.2408435" lon="8.6987415"><ele>107.0</ele><time>2026-05-03T09:17:05.171Z</time></trkpt><trkpt lat="45.2410108" lon="8.6989469"><ele>107.0</ele><time>2026-05-03T09:17:06.172Z</time></trkpt><trkpt lat="45.2411713" lon="8.6991456"><ele>107.0</ele><time>2026-05-03T09:17:07.172Z</time></trkpt><trkpt lat="45.2413375" lon="8.6993442"><ele>106.66666666666666</ele><time>2026-05-03T09:17:08.172Z</time></trkpt><trkpt lat="45.2415017" lon="8.6995474"><ele>106.33333333333334</ele><time>2026-05-03T09:17:09.172Z</time></trkpt><trkpt lat="45.2416649" lon="8.6997495"><ele>106.0</ele><time>2026-05-03T09:17:10.172Z</time></trkpt><trkpt lat="45.2418251" lon="8.6999501"><ele>106.0</ele><time>2026-05-03T09:17:11.172Z</time></trkpt><trkpt lat="45.24198" lon="8.7001484"><ele>106.0</ele><time>2026-05-03T09:17:12.171Z</time></trkpt><trkpt lat="45.2421291" lon="8.7003282"><ele>106.0</ele><time>2026-05-03T09:17:13.171Z</time></trkpt><trkpt lat="45.2422676" lon="8.7005024"><ele>106.33333333333334</ele><time>2026-05-03T09:17:14.171Z</time></trkpt><trkpt lat="45.2423954" lon="8.7006737"><ele>106.66666666666666</ele><time>2026-05-03T09:17:15.172Z</time></trkpt><trkpt lat="45.2425083" lon="8.700849"><ele>107.0</ele><time>2026-05-03T09:17:16.172Z</time></trkpt><trkpt lat="45.2426044" lon="8.7010328"><ele>106.33333333333333</ele><time>2026-05-03T09:17:17.172Z</time></trkpt><trkpt lat="45.2426912" lon="8.7012343"><ele>105.66666666666666</ele><time>2026-05-03T09:17:18.172Z</time></trkpt><trkpt lat="45.2427661" lon="8.7014404"><ele>105.0</ele><time>2026-05-03T09:17:19.172Z</time></trkpt><trkpt lat="45.2428394" lon="8.7016444"><ele>105.0</ele><time>2026-05-03T09:17:20.171Z</time></trkpt><trkpt lat="45.2429122" lon="8.7018495"><ele>105.0</ele><time>2026-05-03T09:17:21.172Z</time></trkpt><trkpt lat="45.2429871" lon="8.7020515"><ele>105.0</ele><time>2026-05-03T09:17:22.172Z</time></trkpt><trkpt lat="45.2430645" lon="8.7022545"><ele>104.66666666666666</ele><time>2026-05-03T09:17:23.172Z</time></trkpt><trkpt lat="45.2431485" lon="8.7024571"><ele>104.33333333333333</ele><time>2026-05-03T09:17:24.172Z</time></trkpt><trkpt lat="45.2432376" lon="8.7026597"><ele>104.0</ele><time>2026-05-03T09:17:25.172Z</time></trkpt><trkpt lat="45.2433372" lon="8.7028664"><ele>104.0</ele><time>2026-05-03T09:17:26.172Z</time></trkpt><trkpt lat="45.2434426" lon="8.7030767"><ele>104.0</ele><time>2026-05-03T09:17:27.172Z</time></trkpt><trkpt lat="45.2435481" lon="8.7032908"><ele>104.0</ele><time>2026-05-03T09:17:28.172Z</time></trkpt><trkpt lat="45.2436561" lon="8.7035147"><ele>104.33333333333333</ele><time>2026-05-03T09:17:29.171Z</time></trkpt><trkpt lat="45.243769" lon="8.703747"><ele>104.66666666666666</ele><time>2026-05-03T09:17:30.172Z</time></trkpt><trkpt lat="45.2438853" lon="8.7039843"><ele>105.0</ele><time>2026-05-03T09:17:31.171Z</time></trkpt><trkpt lat="45.2440069" lon="8.7042328"><ele>105.33333333333334</ele><time>2026-05-03T09:17:32.171Z</time></trkpt><trkpt lat="45.2441329" lon="8.7044841"><ele>105.66666666666667</ele><time>2026-05-03T09:17:33.172Z</time></trkpt><trkpt lat="45.2442614" lon="8.7047487"><ele>106.0</ele><time>2026-05-03T09:17:34.172Z</time></trkpt><trkpt lat="45.2443919" lon="8.7050188"><ele>106.0</ele><time>2026-05-03T09:17:35.171Z</time></trkpt><trkpt lat="45.2445293" lon="8.7053007"><ele>106.0</ele><time>2026-05-03T09:17:36.172Z</time></trkpt><trkpt lat="45.2446773" lon="8.7055979"><ele>107.0</ele><time>2026-05-03T09:17:37.172Z</time></trkpt><trkpt lat="45.2448308" lon="8.7059085"><ele>108.0</ele><time>2026-05-03T09:17:38.172Z</time></trkpt><trkpt lat="45.2449926" lon="8.7062333"><ele>109.0</ele><time>2026-05-03T09:17:39.172Z</time></trkpt><trkpt lat="45.2451498" lon="8.7065533"><ele>110.0</ele><time>2026-05-03T09:17:40.172Z</time></trkpt><trkpt lat="45.2453016" lon="8.7068559"><ele>109.5</ele><time>2026-05-03T09:17:41.172Z</time></trkpt><trkpt lat="45.2454412" lon="8.7071491"><ele>109.0</ele><time>2026-05-03T09:17:42.172Z</time></trkpt><trkpt lat="45.24558" lon="8.7074368"><ele>109.0</ele><time>2026-05-03T09:17:43.172Z</time></trkpt><trkpt lat="45.245718" lon="8.7077224"><ele>109.0</ele><time>2026-05-03T09:17:44.172Z</time></trkpt><trkpt lat="45.2458579" lon="8.7080076"><ele>109.0</ele><time>2026-05-03T09:17:45.172Z</time></trkpt><trkpt lat="45.245998" lon="8.7082871"><ele>109.0</ele><time>2026-05-03T09:17:46.171Z</time></trkpt><trkpt lat="45.2461437" lon="8.7085723"><ele>108.0</ele><time>2026-05-03T09:17:47.172Z</time></trkpt><trkpt lat="45.2462882" lon="8.7088636"><ele>107.0</ele><time>2026-05-03T09:17:48.172Z</time></trkpt><trkpt lat="45.2464315" lon="8.7091685"><ele>106.0</ele><time>2026-05-03T09:17:49.172Z</time></trkpt><trkpt lat="45.2465707" lon="8.7094764"><ele>105.0</ele><time>2026-05-03T09:17:50.172Z</time></trkpt><trkpt lat="45.2467054" lon="8.709774"><ele>105.0</ele><time>2026-05-03T09:17:51.171Z</time></trkpt><trkpt lat="45.246835" lon="8.7100468"><ele>105.0</ele><time>2026-05-03T09:17:52.172Z</time></trkpt><trkpt lat="45.2469614" lon="8.7103116"><ele>105.33333333333334</ele><time>2026-05-03T09:17:53.172Z</time></trkpt><trkpt lat="45.2470763" lon="8.7105552"><ele>105.66666666666667</ele><time>2026-05-03T09:17:54.172Z</time></trkpt><trkpt lat="45.2471845" lon="8.7107794"><ele>106.0</ele><time>2026-05-03T09:17:55.172Z</time></trkpt><trkpt lat="45.2472871" lon="8.7109923"><ele>106.66666666666667</ele><time>2026-05-03T09:17:56.172Z</time></trkpt><trkpt lat="45.2473853" lon="8.7111953"><ele>107.33333333333334</ele><time>2026-05-03T09:17:57.172Z</time></trkpt><trkpt lat="45.247481" lon="8.7113892"><ele>108.0</ele><time>2026-05-03T09:17:58.172Z</time></trkpt><trkpt lat="45.2475754" lon="8.7115774"><ele>108.0</ele><time>2026-05-03T09:17:59.171Z</time></trkpt><trkpt lat="45.2476672" lon="8.711762"><ele>108.0</ele><time>2026-05-03T09:18:00.171Z</time></trkpt><trkpt lat="45.2477604" lon="8.711943"><ele>108.0</ele><time>2026-05-03T09:18:01.172Z</time></trkpt><trkpt lat="45.2478551" lon="8.7121218"><ele>107.75</ele><time>2026-05-03T09:18:02.172Z</time></trkpt><trkpt lat="45.2479437" lon="8.7122944"><ele>107.5</ele><time>2026-05-03T09:18:03.172Z</time></trkpt><trkpt lat="45.2480237" lon="8.7124611"><ele>107.25</ele><time>2026-05-03T09:18:04.171Z</time></trkpt><trkpt lat="45.2480953" lon="8.7126225"><ele>107.0</ele><time>2026-05-03T09:18:05.172Z</time></trkpt><trkpt lat="45.2481543" lon="8.7127792"><ele>108.0</ele><time>2026-05-03T09:18:06.171Z</time></trkpt><trkpt lat="45.2481996" lon="8.7129378"><ele>108.99999999999999</ele><time>2026-05-03T09:18:07.172Z</time></trkpt><trkpt lat="45.2482397" lon="8.7130887"><ele>109.99999999999999</ele><time>2026-05-03T09:18:08.172Z</time></trkpt><trkpt lat="45.248269" lon="8.7132386"><ele>111.0</ele><time>2026-05-03T09:18:09.172Z</time></trkpt><trkpt lat="45.2482975" lon="8.7133819"><ele>112.0</ele><time>2026-05-03T09:18:10.171Z</time></trkpt><trkpt lat="45.2483245" lon="8.7135177"><ele>111.50000000000001</ele><time>2026-05-03T09:18:11.172Z</time></trkpt><trkpt lat="45.2483416" lon="8.7136472"><ele>111.0</ele><time>2026-05-03T09:18:12.171Z</time></trkpt><trkpt lat="45.2483414" lon="8.7137655"><ele>110.5</ele><time>2026-05-03T09:18:13.171Z</time></trkpt><trkpt lat="45.2483153" lon="8.7138668"><ele>110.0</ele><time>2026-05-03T09:18:14.172Z</time></trkpt><trkpt lat="45.248274" lon="8.7139664"><ele>109.50000000000001</ele><time>2026-05-03T09:18:15.172Z</time></trkpt><trkpt lat="45.2482204" lon="8.7140691"><ele>109.0</ele><time>2026-05-03T09:18:16.172Z</time></trkpt><trkpt lat="45.2481772" lon="8.7141822"><ele>109.0</ele><time>2026-05-03T09:18:17.171Z</time></trkpt><trkpt lat="45.2481551" lon="8.7143073"><ele>109.0</ele><time>2026-05-03T09:18:18.171Z</time></trkpt><trkpt lat="45.2481498" lon="8.7144402"><ele>109.0</ele><time>2026-05-03T09:18:19.172Z</time></trkpt><trkpt lat="45.2481701" lon="8.7145663"><ele>109.0</ele><time>2026-05-03T09:18:20.172Z</time></trkpt><trkpt lat="45.2482151" lon="8.7146786"><ele>109.0</ele><time>2026-05-03T09:18:21.172Z</time></trkpt><trkpt lat="45.2482799" lon="8.714762"><ele>108.80000000000001</ele><time>2026-05-03T09:18:22.172Z</time></trkpt><trkpt lat="45.2483646" lon="8.7148236"><ele>108.60000000000001</ele><time>2026-05-03T09:18:23.171Z</time></trkpt><trkpt lat="45.2484711" lon="8.7148478"><ele>108.4</ele><time>2026-05-03T09:18:24.171Z</time></trkpt><trkpt lat="45.2485824" lon="8.7148403"><ele>108.2</ele><time>2026-05-03T09:18:25.172Z</time></trkpt><trkpt lat="45.2486923" lon="8.7147823"><ele>108.0</ele><time>2026-05-03T09:18:26.172Z</time></trkpt><trkpt lat="45.249618" lon="8.7146828"><ele>107.0</ele><time>2026-05-03T09:18:32.471Z</time></trkpt><trkpt lat="45.2499689" lon="8.7146524"><ele>106.0</ele><time>2026-05-03T09:18:34.172Z</time></trkpt><trkpt lat="45.250131" lon="8.7146305"><ele>106.0</ele><time>2026-05-03T09:18:35.171Z</time></trkpt><trkpt lat="45.2503456" lon="8.7146161"><ele>106.0</ele><time>2026-05-03T09:18:36.172Z</time></trkpt><trkpt lat="45.2505594" lon="8.7146006"><ele>106.0</ele><time>2026-05-03T09:18:37.171Z</time></trkpt><trkpt lat="45.2507875" lon="8.7145864"><ele>106.0</ele><time>2026-05-03T09:18:38.171Z</time></trkpt><trkpt lat="45.2510255" lon="8.7145807"><ele>106.0</ele><time>2026-05-03T09:18:39.172Z</time></trkpt><trkpt lat="45.2512784" lon="8.7145765"><ele>107.0</ele><time>2026-05-03T09:18:40.171Z</time></trkpt><trkpt lat="45.2515537" lon="8.7145761"><ele>108.0</ele><time>2026-05-03T09:18:41.171Z</time></trkpt><trkpt lat="45.2518539" lon="8.7145764"><ele>108.0</ele><time>2026-05-03T09:18:42.172Z</time></trkpt><trkpt lat="45.2521735" lon="8.7145773"><ele>108.0</ele><time>2026-05-03T09:18:43.172Z</time></trkpt><trkpt lat="45.2525147" lon="8.7145767"><ele>108.0</ele><time>2026-05-03T09:18:44.172Z</time></trkpt><trkpt lat="45.2528784" lon="8.7145779"><ele>108.0</ele><time>2026-05-03T09:18:45.171Z</time></trkpt><trkpt lat="45.2532458" lon="8.714575"><ele>107.5</ele><time>2026-05-03T09:18:46.172Z</time></trkpt><trkpt lat="45.2536084" lon="8.7145802"><ele>107.0</ele><time>2026-05-03T09:18:47.171Z</time></trkpt><trkpt lat="45.2539655" lon="8.7145814"><ele>106.5</ele><time>2026-05-03T09:18:48.172Z</time></trkpt><trkpt lat="45.2543105" lon="8.7145799"><ele>106.0</ele><time>2026-05-03T09:18:49.171Z</time></trkpt><trkpt lat="45.2546456" lon="8.7145808"><ele>106.0</ele><time>2026-05-03T09:18:50.172Z</time></trkpt><trkpt lat="45.2549636" lon="8.7145855"><ele>106.0</ele><time>2026-05-03T09:18:51.172Z</time></trkpt><trkpt lat="45.2552689" lon="8.7145872"><ele>106.0</ele><time>2026-05-03T09:18:52.171Z</time></trkpt><trkpt lat="45.2555639" lon="8.7145909"><ele>106.0</ele><time>2026-05-03T09:18:53.171Z</time></trkpt><trkpt lat="45.2558501" lon="8.7145976"><ele>106.5</ele><time>2026-05-03T09:18:54.172Z</time></trkpt><trkpt lat="45.2561256" lon="8.7146102"><ele>107.0</ele><time>2026-05-03T09:18:55.172Z</time></trkpt><trkpt lat="45.2563917" lon="8.7146372"><ele>107.0</ele><time>2026-05-03T09:18:56.171Z</time></trkpt><trkpt lat="45.2566509" lon="8.7146777"><ele>107.0</ele><time>2026-05-03T09:18:57.171Z</time></trkpt><trkpt lat="45.2569088" lon="8.714747"><ele>107.0</ele><time>2026-05-03T09:18:58.171Z</time></trkpt><trkpt lat="45.2571646" lon="8.7148363"><ele>107.0</ele><time>2026-05-03T09:18:59.172Z</time></trkpt><trkpt lat="45.2574158" lon="8.7149566"><ele>108.0</ele><time>2026-05-03T09:19:00.172Z</time></trkpt><trkpt lat="45.2576542" lon="8.7151012"><ele>109.0</ele><time>2026-05-03T09:19:01.172Z</time></trkpt><trkpt lat="45.2578832" lon="8.7152801"><ele>109.0</ele><time>2026-05-03T09:19:02.172Z</time></trkpt><trkpt lat="45.2581089" lon="8.715479"><ele>109.0</ele><time>2026-05-03T09:19:03.171Z</time></trkpt><trkpt lat="45.2583237" lon="8.7156871"><ele>109.0</ele><time>2026-05-03T09:19:04.172Z</time></trkpt><trkpt lat="45.2585298" lon="8.7159191"><ele>109.0</ele><time>2026-05-03T09:19:05.172Z</time></trkpt><trkpt lat="45.2587291" lon="8.716163"><ele>108.0</ele><time>2026-05-03T09:19:06.171Z</time></trkpt><trkpt lat="45.2589284" lon="8.7164121"><ele>107.0</ele><time>2026-05-03T09:19:07.172Z</time></trkpt><trkpt lat="45.2591301" lon="8.7166668"><ele>107.0</ele><time>2026-05-03T09:19:08.172Z</time></trkpt><trkpt lat="45.2593341" lon="8.7169184"><ele>107.0</ele><time>2026-05-03T09:19:09.172Z</time></trkpt><trkpt lat="45.2595346" lon="8.7171702"><ele>107.0</ele><time>2026-05-03T09:19:10.171Z</time></trkpt><trkpt lat="45.2597324" lon="8.7174229"><ele>107.0</ele><time>2026-05-03T09:19:11.171Z</time></trkpt><trkpt lat="45.2599283" lon="8.7176732"><ele>107.5</ele><time>2026-05-03T09:19:12.172Z</time></trkpt><trkpt lat="45.2601227" lon="8.7179267"><ele>108.0</ele><time>2026-05-03T09:19:13.171Z</time></trkpt><trkpt lat="45.2603143" lon="8.7181886"><ele>108.0</ele><time>2026-05-03T09:19:14.171Z</time></trkpt><trkpt lat="45.2604914" lon="8.7184563"><ele>108.0</ele><time>2026-05-03T09:19:15.172Z</time></trkpt><trkpt lat="45.2606577" lon="8.7187437"><ele>107.5</ele><time>2026-05-03T09:19:16.171Z</time></trkpt><trkpt lat="45.2608159" lon="8.7190344"><ele>107.0</ele><time>2026-05-03T09:19:17.172Z</time></trkpt><trkpt lat="45.2609621" lon="8.7193345"><ele>106.5</ele><time>2026-05-03T09:19:18.171Z</time></trkpt><trkpt lat="45.2610965" lon="8.7196417"><ele>106.0</ele><time>2026-05-03T09:19:19.172Z</time></trkpt><trkpt lat="45.2612164" lon="8.719954"><ele>107.0</ele><time>2026-05-03T09:19:20.171Z</time></trkpt><trkpt lat="45.2613254" lon="8.720271"><ele>108.0</ele><time>2026-05-03T09:19:21.172Z</time></trkpt><trkpt lat="45.2614307" lon="8.7205917"><ele>108.5</ele><time>2026-05-03T09:19:22.172Z</time></trkpt><trkpt lat="45.2615324" lon="8.720917"><ele>109.0</ele><time>2026-05-03T09:19:23.172Z</time></trkpt><trkpt lat="45.2616318" lon="8.7212426"><ele>109.0</ele><time>2026-05-03T09:19:24.172Z</time></trkpt><trkpt lat="45.2617297" lon="8.7215719"><ele>109.0</ele><time>2026-05-03T09:19:25.172Z</time></trkpt><trkpt lat="45.2618298" lon="8.7219024"><ele>108.5</ele><time>2026-05-03T09:19:26.172Z</time></trkpt><trkpt lat="45.2619303" lon="8.7222296"><ele>108.0</ele><time>2026-05-03T09:19:27.171Z</time></trkpt><trkpt lat="45.2620265" lon="8.7225577"><ele>108.5</ele><time>2026-05-03T09:19:28.172Z</time></trkpt><trkpt lat="45.2621242" lon="8.7228977"><ele>109.0</ele><time>2026-05-03T09:19:29.171Z</time></trkpt><trkpt lat="45.2622271" lon="8.7232376"><ele>108.5</ele><time>2026-05-03T09:19:30.171Z</time></trkpt><trkpt lat="45.2623317" lon="8.7235791"><ele>108.0</ele><time>2026-05-03T09:19:31.172Z</time></trkpt><trkpt lat="45.2624371" lon="8.7239266"><ele>108.0</ele><time>2026-05-03T09:19:32.171Z</time></trkpt><trkpt lat="45.2625395" lon="8.7242727"><ele>108.0</ele><time>2026-05-03T09:19:33.171Z</time></trkpt><trkpt lat="45.2626412" lon="8.7246186"><ele>108.0</ele><time>2026-05-03T09:19:34.172Z</time></trkpt><trkpt lat="45.2627445" lon="8.7249614"><ele>108.0</ele><time>2026-05-03T09:19:35.171Z</time></trkpt><trkpt lat="45.2628494" lon="8.7252989"><ele>108.5</ele><time>2026-05-03T09:19:36.171Z</time></trkpt><trkpt lat="45.2629489" lon="8.725633"><ele>109.0</ele><time>2026-05-03T09:19:37.171Z</time></trkpt><trkpt lat="45.2630496" lon="8.7259622"><ele>108.5</ele><time>2026-05-03T09:19:38.17Z</time></trkpt><trkpt lat="45.2631451" lon="8.7262788"><ele>108.0</ele><time>2026-05-03T09:19:39.171Z</time></trkpt><trkpt lat="45.2632363" lon="8.726576"><ele>108.0</ele><time>2026-05-03T09:19:40.17Z</time></trkpt><trkpt lat="45.26332" lon="8.726857"><ele>108.0</ele><time>2026-05-03T09:19:41.17Z</time></trkpt><trkpt lat="45.263397" lon="8.7271146"><ele>108.0</ele><time>2026-05-03T09:19:42.171Z</time></trkpt><trkpt lat="45.2634661" lon="8.727357"><ele>108.0</ele><time>2026-05-03T09:19:43.17Z</time></trkpt><trkpt lat="45.2635307" lon="8.7275755"><ele>108.0</ele><time>2026-05-03T09:19:44.171Z</time></trkpt><trkpt lat="45.2635845" lon="8.727774"><ele>108.0</ele><time>2026-05-03T09:19:45.171Z</time></trkpt><trkpt lat="45.263621" lon="8.7279482"><ele>108.0</ele><time>2026-05-03T09:19:46.17Z</time></trkpt><trkpt lat="45.2636225" lon="8.728118"><ele>108.4</ele><time>2026-05-03T09:19:47.17Z</time></trkpt><trkpt lat="45.2635945" lon="8.7282671"><ele>108.80000000000001</ele><time>2026-05-03T09:19:48.17Z</time></trkpt><trkpt lat="45.2635743" lon="8.728407"><ele>109.2</ele><time>2026-05-03T09:19:49.17Z</time></trkpt><trkpt lat="45.2635756" lon="8.7285341"><ele>109.6</ele><time>2026-05-03T09:19:50.171Z</time></trkpt><trkpt lat="45.2636113" lon="8.7286499"><ele>110.0</ele><time>2026-05-03T09:19:51.171Z</time></trkpt><trkpt lat="45.2636844" lon="8.7287338"><ele>110.0</ele><time>2026-05-03T09:19:52.17Z</time></trkpt><trkpt lat="45.2637782" lon="8.7287646"><ele>110.0</ele><time>2026-05-03T09:19:53.171Z</time></trkpt><trkpt lat="45.2638737" lon="8.7287748"><ele>110.0</ele><time>2026-05-03T09:19:54.171Z</time></trkpt><trkpt lat="45.2639656" lon="8.7287219"><ele>110.0</ele><time>2026-05-03T09:19:55.171Z</time></trkpt><trkpt lat="45.2640667" lon="8.7286592"><ele>110.0</ele><time>2026-05-03T09:19:56.17Z</time></trkpt><trkpt lat="45.2641773" lon="8.7286348"><ele>109.75</ele><time>2026-05-03T09:19:57.17Z</time></trkpt><trkpt lat="45.2643044" lon="8.7286393"><ele>109.5</ele><time>2026-05-03T09:19:58.17Z</time></trkpt><trkpt lat="45.264443" lon="8.7286252"><ele>109.25</ele><time>2026-05-03T09:19:59.171Z</time></trkpt><trkpt lat="45.2645736" lon="8.7285659"><ele>109.0</ele><time>2026-05-03T09:20:00.171Z</time></trkpt><trkpt lat="45.264675" lon="8.7284287"><ele>109.0</ele><time>2026-05-03T09:20:01.171Z</time></trkpt><trkpt lat="45.2647765" lon="8.7282422"><ele>109.0</ele><time>2026-05-03T09:20:02.171Z</time></trkpt><trkpt lat="45.2648822" lon="8.7280405"><ele>109.0</ele><time>2026-05-03T09:20:03.171Z</time></trkpt><trkpt lat="45.2649985" lon="8.7278478"><ele>108.66666666666667</ele><time>2026-05-03T09:20:04.171Z</time></trkpt><trkpt lat="45.2651338" lon="8.7276603"><ele>108.33333333333334</ele><time>2026-05-03T09:20:05.17Z</time></trkpt><trkpt lat="45.2652881" lon="8.7275065"><ele>108.0</ele><time>2026-05-03T09:20:06.171Z</time></trkpt><trkpt lat="45.2654679" lon="8.7273752"><ele>108.0</ele><time>2026-05-03T09:20:07.171Z</time></trkpt><trkpt lat="45.2656635" lon="8.7272352"><ele>108.0</ele><time>2026-05-03T09:20:08.171Z</time></trkpt><trkpt lat="45.2658679" lon="8.7270894"><ele>108.0</ele><time>2026-05-03T09:20:09.171Z</time></trkpt><trkpt lat="45.2660704" lon="8.7269441"><ele>108.0</ele><time>2026-05-03T09:20:10.171Z</time></trkpt><trkpt lat="45.266278" lon="8.7267928"><ele>108.0</ele><time>2026-05-03T09:20:11.171Z</time></trkpt><trkpt lat="45.2665006" lon="8.726639"><ele>108.0</ele><time>2026-05-03T09:20:12.171Z</time></trkpt><trkpt lat="45.2667196" lon="8.7264861"><ele>108.0</ele><time>2026-05-03T09:20:13.171Z</time></trkpt><trkpt lat="45.2669408" lon="8.7263304"><ele>108.0</ele><time>2026-05-03T09:20:14.171Z</time></trkpt><trkpt lat="45.2671643" lon="8.7261829"><ele>108.0</ele><time>2026-05-03T09:20:15.17Z</time></trkpt><trkpt lat="45.2673866" lon="8.7260308"><ele>108.0</ele><time>2026-05-03T09:20:16.17Z</time></trkpt><trkpt lat="45.2676084" lon="8.7258725"><ele>108.0</ele><time>2026-05-03T09:20:17.17Z</time></trkpt><trkpt lat="45.2678301" lon="8.7257098"><ele>108.0</ele><time>2026-05-03T09:20:18.17Z</time></trkpt><trkpt lat="45.2680533" lon="8.72555"><ele>108.0</ele><time>2026-05-03T09:20:19.17Z</time></trkpt><trkpt lat="45.2682771" lon="8.7253869"><ele>108.0</ele><time>2026-05-03T09:20:20.17Z</time></trkpt><trkpt lat="45.2685003" lon="8.7252248"><ele>108.0</ele><time>2026-05-03T09:20:21.17Z</time></trkpt><trkpt lat="45.2687216" lon="8.7250681"><ele>108.0</ele><time>2026-05-03T09:20:22.17Z</time></trkpt><trkpt lat="45.2689451" lon="8.7249015"><ele>108.0</ele><time>2026-05-03T09:20:23.171Z</time></trkpt><trkpt lat="45.2691668" lon="8.7247399"><ele>108.0</ele><time>2026-05-03T09:20:24.171Z</time></trkpt><trkpt lat="45.26939" lon="8.7245796"><ele>108.0</ele><time>2026-05-03T09:20:25.17Z</time></trkpt><trkpt lat="45.2696156" lon="8.7244215"><ele>108.0</ele><time>2026-05-03T09:20:26.17Z</time></trkpt><trkpt lat="45.2698406" lon="8.7242665"><ele>108.0</ele><time>2026-05-03T09:20:27.17Z</time></trkpt><trkpt lat="45.2700671" lon="8.7241076"><ele>108.0</ele><time>2026-05-03T09:20:28.17Z</time></trkpt><trkpt lat="45.2702922" lon="8.7239489"><ele>108.0</ele><time>2026-05-03T09:20:29.171Z</time></trkpt><trkpt lat="45.270518" lon="8.7237899"><ele>109.0</ele><time>2026-05-03T09:20:30.17Z</time></trkpt><trkpt lat="45.270744" lon="8.7236288"><ele>110.0</ele><time>2026-05-03T09:20:31.171Z</time></trkpt><trkpt lat="45.2709676" lon="8.7234675"><ele>110.0</ele><time>2026-05-03T09:20:32.171Z</time></trkpt><trkpt lat="45.2711894" lon="8.7233062"><ele>110.0</ele><time>2026-05-03T09:20:33.17Z</time></trkpt><trkpt lat="45.2714142" lon="8.7231429"><ele>108.5</ele><time>2026-05-03T09:20:34.171Z</time></trkpt><trkpt lat="45.2716413" lon="8.7229846"><ele>107.0</ele><time>2026-05-03T09:20:35.171Z</time></trkpt><trkpt lat="45.2718667" lon="8.7228264"><ele>107.0</ele><time>2026-05-03T09:20:36.171Z</time></trkpt><trkpt lat="45.2720928" lon="8.7226647"><ele>107.0</ele><time>2026-05-03T09:20:37.171Z</time></trkpt><trkpt lat="45.2723159" lon="8.7225039"><ele>107.5</ele><time>2026-05-03T09:20:38.17Z</time></trkpt><trkpt lat="45.2725412" lon="8.7223418"><ele>108.0</ele><time>2026-05-03T09:20:39.171Z</time></trkpt><trkpt lat="45.2727665" lon="8.7221786"><ele>108.0</ele><time>2026-05-03T09:20:40.171Z</time></trkpt><trkpt lat="45.2729911" lon="8.7220196"><ele>108.0</ele><time>2026-05-03T09:20:41.171Z</time></trkpt><trkpt lat="45.2732154" lon="8.7218564"><ele>109.0</ele><time>2026-05-03T09:20:42.17Z</time></trkpt><trkpt lat="45.2734383" lon="8.7216985"><ele>110.0</ele><time>2026-05-03T09:20:43.171Z</time></trkpt><trkpt lat="45.2736639" lon="8.7215385"><ele>110.0</ele><time>2026-05-03T09:20:44.17Z</time></trkpt><trkpt lat="45.2738843" lon="8.7213761"><ele>110.0</ele><time>2026-05-03T09:20:45.171Z</time></trkpt><trkpt lat="45.2741063" lon="8.7212139"><ele>110.0</ele><time>2026-05-03T09:20:46.17Z</time></trkpt><trkpt lat="45.2743337" lon="8.7210525"><ele>110.0</ele><time>2026-05-03T09:20:47.171Z</time></trkpt><trkpt lat="45.274556" lon="8.7208989"><ele>110.5</ele><time>2026-05-03T09:20:48.171Z</time></trkpt><trkpt lat="45.2747812" lon="8.7207422"><ele>111.0</ele><time>2026-05-03T09:20:49.171Z</time></trkpt><trkpt lat="45.2750054" lon="8.7205847"><ele>111.0</ele><time>2026-05-03T09:20:50.17Z</time></trkpt><trkpt lat="45.2752293" lon="8.7204259"><ele>111.0</ele><time>2026-05-03T09:20:51.171Z</time></trkpt><trkpt lat="45.2754528" lon="8.7202619"><ele>112.0</ele><time>2026-05-03T09:20:52.17Z</time></trkpt><trkpt lat="45.2756724" lon="8.7201077"><ele>113.0</ele><time>2026-05-03T09:20:53.17Z</time></trkpt><trkpt lat="45.2758892" lon="8.7199513"><ele>113.0</ele><time>2026-05-03T09:20:54.17Z</time></trkpt><trkpt lat="45.2761076" lon="8.7198009"><ele>113.0</ele><time>2026-05-03T09:20:55.171Z</time></trkpt><trkpt lat="45.2763275" lon="8.7196476"><ele>112.0</ele><time>2026-05-03T09:20:56.17Z</time></trkpt><trkpt lat="45.2765466" lon="8.7194931"><ele>111.0</ele><time>2026-05-03T09:20:57.171Z</time></trkpt><trkpt lat="45.2767604" lon="8.7193406"><ele>111.0</ele><time>2026-05-03T09:20:58.17Z</time></trkpt><trkpt lat="45.2769735" lon="8.7191878"><ele>111.0</ele><time>2026-05-03T09:20:59.171Z</time></trkpt><trkpt lat="45.277184" lon="8.7190351"><ele>110.5</ele><time>2026-05-03T09:21:00.171Z</time></trkpt><trkpt lat="45.2773951" lon="8.7188828"><ele>110.0</ele><time>2026-05-03T09:21:01.171Z</time></trkpt><trkpt lat="45.2776026" lon="8.7187329"><ele>110.0</ele><time>2026-05-03T09:21:02.17Z</time></trkpt><trkpt lat="45.2778108" lon="8.718583"><ele>110.0</ele><time>2026-05-03T09:21:03.171Z</time></trkpt><trkpt lat="45.2780202" lon="8.7184383"><ele>109.0</ele><time>2026-05-03T09:21:04.17Z</time></trkpt><trkpt lat="45.2782265" lon="8.7182938"><ele>108.0</ele><time>2026-05-03T09:21:05.171Z</time></trkpt><trkpt lat="45.2784312" lon="8.7181498"><ele>108.0</ele><time>2026-05-03T09:21:06.171Z</time></trkpt><trkpt lat="45.2786347" lon="8.7180022"><ele>108.0</ele><time>2026-05-03T09:21:07.171Z</time></trkpt><trkpt lat="45.278841" lon="8.7178559"><ele>109.0</ele><time>2026-05-03T09:21:08.17Z</time></trkpt><trkpt lat="45.2790477" lon="8.7177099"><ele>110.0</ele><time>2026-05-03T09:21:09.17Z</time></trkpt><trkpt lat="45.2792535" lon="8.7175645"><ele>110.0</ele><time>2026-05-03T09:21:10.171Z</time></trkpt><trkpt lat="45.279459" lon="8.7174149"><ele>110.0</ele><time>2026-05-03T09:21:11.171Z</time></trkpt><trkpt lat="45.2796646" lon="8.7172674"><ele>110.0</ele><time>2026-05-03T09:21:12.171Z</time></trkpt><trkpt lat="45.2798723" lon="8.7171204"><ele>110.0</ele><time>2026-05-03T09:21:13.171Z</time></trkpt><trkpt lat="45.2800795" lon="8.7169697"><ele>109.5</ele><time>2026-05-03T09:21:14.171Z</time></trkpt><trkpt lat="45.2802873" lon="8.7168204"><ele>109.0</ele><time>2026-05-03T09:21:15.17Z</time></trkpt><trkpt lat="45.2804979" lon="8.7166715"><ele>108.5</ele><time>2026-05-03T09:21:16.17Z</time></trkpt><trkpt lat="45.2807068" lon="8.71652"><ele>108.0</ele><time>2026-05-03T09:21:17.171Z</time></trkpt><trkpt lat="45.280915" lon="8.7163709"><ele>108.0</ele><time>2026-05-03T09:21:18.171Z</time></trkpt><trkpt lat="45.2811198" lon="8.7162235"><ele>108.0</ele><time>2026-05-03T09:21:19.171Z</time></trkpt><trkpt lat="45.2813234" lon="8.7160771"><ele>108.5</ele><time>2026-05-03T09:21:20.171Z</time></trkpt><trkpt lat="45.2815257" lon="8.7159328"><ele>109.0</ele><time>2026-05-03T09:21:21.171Z</time></trkpt><trkpt lat="45.2817298" lon="8.7157929"><ele>109.0</ele><time>2026-05-03T09:21:22.171Z</time></trkpt><trkpt lat="45.2819365" lon="8.7156566"><ele>109.0</ele><time>2026-05-03T09:21:23.171Z</time></trkpt><trkpt lat="45.2821459" lon="8.7155134"><ele>109.0</ele><time>2026-05-03T09:21:24.171Z</time></trkpt><trkpt lat="45.282353" lon="8.7153703"><ele>109.0</ele><time>2026-05-03T09:21:25.17Z</time></trkpt><trkpt lat="45.2825612" lon="8.7152323"><ele>109.0</ele><time>2026-05-03T09:21:26.171Z</time></trkpt><trkpt lat="45.2827697" lon="8.7150967"><ele>109.0</ele><time>2026-05-03T09:21:27.171Z</time></trkpt><trkpt lat="45.2829798" lon="8.7149532"><ele>109.0</ele><time>2026-05-03T09:21:28.17Z</time></trkpt><trkpt lat="45.2831862" lon="8.7148016"><ele>109.0</ele><time>2026-05-03T09:21:29.17Z</time></trkpt><trkpt lat="45.2833942" lon="8.7146498"><ele>109.0</ele><time>2026-05-03T09:21:30.17Z</time></trkpt><trkpt lat="45.2835993" lon="8.7144957"><ele>109.0</ele><time>2026-05-03T09:21:31.17Z</time></trkpt><trkpt lat="45.2838064" lon="8.7143419"><ele>110.0</ele><time>2026-05-03T09:21:32.171Z</time></trkpt><trkpt lat="45.284015" lon="8.7141842"><ele>111.0</ele><time>2026-05-03T09:21:33.17Z</time></trkpt><trkpt lat="45.2842209" lon="8.7140342"><ele>111.0</ele><time>2026-05-03T09:21:34.17Z</time></trkpt><trkpt lat="45.2844283" lon="8.7138793"><ele>111.0</ele><time>2026-05-03T09:21:35.17Z</time></trkpt><trkpt lat="45.284638" lon="8.7137264"><ele>110.5</ele><time>2026-05-03T09:21:36.171Z</time></trkpt><trkpt lat="45.2848463" lon="8.7135775"><ele>110.0</ele><time>2026-05-03T09:21:37.17Z</time></trkpt><trkpt lat="45.285057" lon="8.7134259"><ele>109.5</ele><time>2026-05-03T09:21:38.171Z</time></trkpt><trkpt lat="45.2852701" lon="8.7132813"><ele>109.0</ele><time>2026-05-03T09:21:39.171Z</time></trkpt><trkpt lat="45.2854817" lon="8.713133"><ele>109.5</ele><time>2026-05-03T09:21:40.171Z</time></trkpt><trkpt lat="45.28569" lon="8.712986"><ele>110.0</ele><time>2026-05-03T09:21:41.171Z</time></trkpt><trkpt lat="45.2858998" lon="8.7128377"><ele>110.0</ele><time>2026-05-03T09:21:42.17Z</time></trkpt><trkpt lat="45.2861021" lon="8.7126939"><ele>110.0</ele><time>2026-05-03T09:21:43.171Z</time></trkpt><trkpt lat="45.2862933" lon="8.7125547"><ele>110.0</ele><time>2026-05-03T09:21:44.171Z</time></trkpt><trkpt lat="45.2864724" lon="8.7124185"><ele>110.0</ele><time>2026-05-03T09:21:45.171Z</time></trkpt><trkpt lat="45.286645" lon="8.7122998"><ele>110.0</ele><time>2026-05-03T09:21:46.17Z</time></trkpt><trkpt lat="45.2868094" lon="8.7121801"><ele>110.0</ele><time>2026-05-03T09:21:47.171Z</time></trkpt><trkpt lat="45.2869651" lon="8.7120703"><ele>110.0</ele><time>2026-05-03T09:21:48.171Z</time></trkpt><trkpt lat="45.2871121" lon="8.7119625"><ele>110.0</ele><time>2026-05-03T09:21:49.17Z</time></trkpt><trkpt lat="45.2872548" lon="8.7118579"><ele>110.0</ele><time>2026-05-03T09:21:50.171Z</time></trkpt><trkpt lat="45.2873964" lon="8.7117551"><ele>110.33333333333333</ele><time>2026-05-03T09:21:51.171Z</time></trkpt><trkpt lat="45.2875379" lon="8.7116526"><ele>110.66666666666666</ele><time>2026-05-03T09:21:52.17Z</time></trkpt><trkpt lat="45.2876846" lon="8.7115509"><ele>111.0</ele><time>2026-05-03T09:21:53.171Z</time></trkpt><trkpt lat="45.2878295" lon="8.7114456"><ele>111.0</ele><time>2026-05-03T09:21:54.171Z</time></trkpt><trkpt lat="45.2879758" lon="8.7113432"><ele>111.0</ele><time>2026-05-03T09:21:55.171Z</time></trkpt><trkpt lat="45.2881253" lon="8.711238"><ele>111.0</ele><time>2026-05-03T09:21:56.171Z</time></trkpt><trkpt lat="45.2882748" lon="8.7111328"><ele>110.66666666666666</ele><time>2026-05-03T09:21:57.17Z</time></trkpt><trkpt lat="45.2884218" lon="8.7110224"><ele>110.33333333333333</ele><time>2026-05-03T09:21:58.171Z</time></trkpt><trkpt lat="45.2885709" lon="8.710916"><ele>110.0</ele><time>2026-05-03T09:21:59.171Z</time></trkpt><trkpt lat="45.2887208" lon="8.710809"><ele>110.0</ele><time>2026-05-03T09:22:00.17Z</time></trkpt><trkpt lat="45.2888672" lon="8.7107053"><ele>110.0</ele><time>2026-05-03T09:22:01.171Z</time></trkpt><trkpt lat="45.2890062" lon="8.7106049"><ele>110.0</ele><time>2026-05-03T09:22:02.171Z</time></trkpt><trkpt lat="45.289137" lon="8.7105089"><ele>110.0</ele><time>2026-05-03T09:22:03.17Z</time></trkpt><trkpt lat="45.2892675" lon="8.7104216"><ele>110.0</ele><time>2026-05-03T09:22:04.171Z</time></trkpt><trkpt lat="45.2894078" lon="8.7103173"><ele>110.0</ele><time>2026-05-03T09:22:05.171Z</time></trkpt><trkpt lat="45.2895525" lon="8.7102007"><ele>110.0</ele><time>2026-05-03T09:22:06.17Z</time></trkpt><trkpt lat="45.2897002" lon="8.7100876"><ele>110.0</ele><time>2026-05-03T09:22:07.17Z</time></trkpt><trkpt lat="45.2898447" lon="8.7099864"><ele>110.0</ele><time>2026-05-03T09:22:08.171Z</time></trkpt><trkpt lat="45.2899843" lon="8.7099003"><ele>111.0</ele><time>2026-05-03T09:22:09.171Z</time></trkpt><trkpt lat="45.2901301" lon="8.7098136"><ele>112.0</ele><time>2026-05-03T09:22:10.171Z</time></trkpt><trkpt lat="45.2902698" lon="8.7097211"><ele>113.0</ele><time>2026-05-03T09:22:11.171Z</time></trkpt><trkpt lat="45.2904114" lon="8.7096234"><ele>113.0</ele><time>2026-05-03T09:22:12.17Z</time></trkpt><trkpt lat="45.2905444" lon="8.7095289"><ele>113.0</ele><time>2026-05-03T09:22:13.171Z</time></trkpt><trkpt lat="45.2906792" lon="8.7094394"><ele>113.0</ele><time>2026-05-03T09:22:14.171Z</time></trkpt><trkpt lat="45.2908056" lon="8.7093494"><ele>113.0</ele><time>2026-05-03T09:22:15.171Z</time></trkpt><trkpt lat="45.2909344" lon="8.7092589"><ele>113.0</ele><time>2026-05-03T09:22:16.171Z</time></trkpt><trkpt lat="45.2910577" lon="8.709163"><ele>113.0</ele><time>2026-05-03T09:22:17.17Z</time></trkpt><trkpt lat="45.2911818" lon="8.7090751"><ele>113.0</ele><time>2026-05-03T09:22:18.171Z</time></trkpt><trkpt lat="45.2913061" lon="8.7089915"><ele>113.0</ele><time>2026-05-03T09:22:19.171Z</time></trkpt><trkpt lat="45.2914259" lon="8.7089051"><ele>112.75</ele><time>2026-05-03T09:22:20.171Z</time></trkpt><trkpt lat="45.2915442" lon="8.7088209"><ele>112.5</ele><time>2026-05-03T09:22:21.17Z</time></trkpt><trkpt lat="45.2916593" lon="8.7087444"><ele>112.25</ele><time>2026-05-03T09:22:22.171Z</time></trkpt><trkpt lat="45.2917727" lon="8.7086666"><ele>112.0</ele><time>2026-05-03T09:22:23.171Z</time></trkpt><trkpt lat="45.2918868" lon="8.7085864"><ele>112.0</ele><time>2026-05-03T09:22:24.171Z</time></trkpt><trkpt lat="45.2919982" lon="8.7085073"><ele>112.0</ele><time>2026-05-03T09:22:25.171Z</time></trkpt><trkpt lat="45.2921143" lon="8.7084236"><ele>112.0</ele><time>2026-05-03T09:22:26.171Z</time></trkpt><trkpt lat="45.2922273" lon="8.7083287"><ele>112.0</ele><time>2026-05-03T09:22:27.171Z</time></trkpt><trkpt lat="45.2923321" lon="8.708222"><ele>112.0</ele><time>2026-05-03T09:22:28.17Z</time></trkpt><trkpt lat="45.2924229" lon="8.7081058"><ele>112.0</ele><time>2026-05-03T09:22:29.171Z</time></trkpt><trkpt lat="45.2925099" lon="8.7079839"><ele>112.0</ele><time>2026-05-03T09:22:30.171Z</time></trkpt><trkpt lat="45.2925899" lon="8.7078606"><ele>112.0</ele><time>2026-05-03T09:22:31.171Z</time></trkpt><trkpt lat="45.2926702" lon="8.7077413"><ele>112.5</ele><time>2026-05-03T09:22:32.17Z</time></trkpt><trkpt lat="45.2927489" lon="8.7076254"><ele>113.0</ele><time>2026-05-03T09:22:33.171Z</time></trkpt><trkpt lat="45.2928283" lon="8.7075049"><ele>113.5</ele><time>2026-05-03T09:22:34.171Z</time></trkpt><trkpt lat="45.292909" lon="8.7073789"><ele>114.0</ele><time>2026-05-03T09:22:35.171Z</time></trkpt><trkpt lat="45.2929914" lon="8.707257"><ele>114.0</ele><time>2026-05-03T09:22:36.17Z</time></trkpt><trkpt lat="45.2930696" lon="8.7071373"><ele>114.0</ele><time>2026-05-03T09:22:37.17Z</time></trkpt><trkpt lat="45.2931457" lon="8.707026"><ele>114.0</ele><time>2026-05-03T09:22:38.17Z</time></trkpt><trkpt lat="45.2932141" lon="8.7069307"><ele>114.0</ele><time>2026-05-03T09:22:39.17Z</time></trkpt><trkpt lat="45.2932885" lon="8.7068429"><ele>114.0</ele><time>2026-05-03T09:22:40.171Z</time></trkpt><trkpt lat="45.2933592" lon="8.7067658"><ele>114.0</ele><time>2026-05-03T09:22:41.171Z</time></trkpt><trkpt lat="45.2934312" lon="8.7066988"><ele>114.0</ele><time>2026-05-03T09:22:42.171Z</time></trkpt><trkpt lat="45.2934964" lon="8.7066324"><ele>114.0</ele><time>2026-05-03T09:22:43.171Z</time></trkpt><trkpt lat="45.293556" lon="8.7065573"><ele>114.0</ele><time>2026-05-03T09:22:44.171Z</time></trkpt><trkpt lat="45.2936143" lon="8.7064929"><ele>114.0</ele><time>2026-05-03T09:22:45.17Z</time></trkpt><trkpt lat="45.2936632" lon="8.7064294"><ele>114.0</ele><time>2026-05-03T09:22:46.17Z</time></trkpt><trkpt lat="45.2937369" lon="8.7063529"><ele>114.0</ele><time>2026-05-03T09:22:48.171Z</time></trkpt><trkpt lat="45.2938" lon="8.7063187"><ele>114.0</ele><time>2026-05-03T09:22:50.171Z</time></trkpt><trkpt lat="45.2938835" lon="8.7062347"><ele>114.0</ele><time>2026-05-03T09:22:53.17Z</time></trkpt><trkpt lat="45.2939331" lon="8.7061744"><ele>114.0</ele><time>2026-05-03T09:22:54.171Z</time></trkpt><trkpt lat="45.2939996" lon="8.70612"><ele>114.0</ele><time>2026-05-03T09:22:55.17Z</time></trkpt><trkpt lat="45.2940745" lon="8.7060901"><ele>114.0</ele><time>2026-05-03T09:22:56.171Z</time></trkpt><trkpt lat="45.2941592" lon="8.706089"><ele>114.25</ele><time>2026-05-03T09:22:57.171Z</time></trkpt><trkpt lat="45.2942719" lon="8.7060725"><ele>114.5</ele><time>2026-05-03T09:22:58.171Z</time></trkpt><trkpt lat="45.2943896" lon="8.706041"><ele>114.75</ele><time>2026-05-03T09:22:59.17Z</time></trkpt><trkpt lat="45.2945148" lon="8.7060043"><ele>115.0</ele><time>2026-05-03T09:23:00.171Z</time></trkpt><trkpt lat="45.2946566" lon="8.7059703"><ele>114.66666666666667</ele><time>2026-05-03T09:23:01.171Z</time></trkpt><trkpt lat="45.2948036" lon="8.7059309"><ele>114.33333333333334</ele><time>2026-05-03T09:23:02.171Z</time></trkpt><trkpt lat="45.2949609" lon="8.7058922"><ele>114.0</ele><time>2026-05-03T09:23:03.171Z</time></trkpt><trkpt lat="45.2951297" lon="8.7058487"><ele>114.0</ele><time>2026-05-03T09:23:04.17Z</time></trkpt><trkpt lat="45.295297" lon="8.705807"><ele>114.0</ele><time>2026-05-03T09:23:05.171Z</time></trkpt><trkpt lat="45.295458" lon="8.7057642"><ele>114.0</ele><time>2026-05-03T09:23:06.171Z</time></trkpt><trkpt lat="45.2956181" lon="8.7057237"><ele>113.33333333333334</ele><time>2026-05-03T09:23:07.17Z</time></trkpt><trkpt lat="45.2957795" lon="8.7056826"><ele>112.66666666666667</ele><time>2026-05-03T09:23:08.171Z</time></trkpt><trkpt lat="45.2959444" lon="8.7056384"><ele>112.0</ele><time>2026-05-03T09:23:09.17Z</time></trkpt><trkpt lat="45.2961153" lon="8.7055946"><ele>112.0</ele><time>2026-05-03T09:23:10.171Z</time></trkpt><trkpt lat="45.2962899" lon="8.7055516"><ele>112.0</ele><time>2026-05-03T09:23:11.171Z</time></trkpt><trkpt lat="45.2964687" lon="8.7055121"><ele>112.0</ele><time>2026-05-03T09:23:12.17Z</time></trkpt><trkpt lat="45.2966477" lon="8.705464"><ele>111.33333333333334</ele><time>2026-05-03T09:23:13.171Z</time></trkpt><trkpt lat="45.2968253" lon="8.7054182"><ele>110.66666666666666</ele><time>2026-05-03T09:23:14.171Z</time></trkpt><trkpt lat="45.2970019" lon="8.7053663"><ele>110.0</ele><time>2026-05-03T09:23:15.17Z</time></trkpt><trkpt lat="45.2971844" lon="8.7053219"><ele>110.0</ele><time>2026-05-03T09:23:16.171Z</time></trkpt><trkpt lat="45.2973709" lon="8.7052764"><ele>110.0</ele><time>2026-05-03T09:23:17.171Z</time></trkpt><trkpt lat="45.2975602" lon="8.7052261"><ele>110.0</ele><time>2026-05-03T09:23:18.171Z</time></trkpt><trkpt lat="45.2977563" lon="8.705169"><ele>110.0</ele><time>2026-05-03T09:23:19.171Z</time></trkpt><trkpt lat="45.2979626" lon="8.705116"><ele>110.0</ele><time>2026-05-03T09:23:20.17Z</time></trkpt><trkpt lat="45.2981727" lon="8.7050607"><ele>110.0</ele><time>2026-05-03T09:23:21.17Z</time></trkpt><trkpt lat="45.2983863" lon="8.7050055"><ele>110.0</ele><time>2026-05-03T09:23:22.171Z</time></trkpt><trkpt lat="45.2986083" lon="8.7049441"><ele>110.0</ele><time>2026-05-03T09:23:23.17Z</time></trkpt><trkpt lat="45.2988366" lon="8.7048818"><ele>110.5</ele><time>2026-05-03T09:23:24.171Z</time></trkpt><trkpt lat="45.29907" lon="8.7048188"><ele>111.0</ele><time>2026-05-03T09:23:25.17Z</time></trkpt><trkpt lat="45.29931" lon="8.7047542"><ele>111.0</ele><time>2026-05-03T09:23:26.171Z</time></trkpt><trkpt lat="45.2995546" lon="8.7046894"><ele>111.0</ele><time>2026-05-03T09:23:27.17Z</time></trkpt><trkpt lat="45.2998005" lon="8.7046224"><ele>111.5</ele><time>2026-05-03T09:23:28.17Z</time></trkpt><trkpt lat="45.3000467" lon="8.7045588"><ele>112.0</ele><time>2026-05-03T09:23:29.171Z</time></trkpt><trkpt lat="45.30029" lon="8.7044968"><ele>112.0</ele><time>2026-05-03T09:23:30.17Z</time></trkpt><trkpt lat="45.300531" lon="8.7044316"><ele>112.0</ele><time>2026-05-03T09:23:31.171Z</time></trkpt><trkpt lat="45.3007687" lon="8.7043723"><ele>111.5</ele><time>2026-05-03T09:23:32.171Z</time></trkpt><trkpt lat="45.3010045" lon="8.7043156"><ele>111.0</ele><time>2026-05-03T09:23:33.17Z</time></trkpt><trkpt lat="45.301238" lon="8.7042641"><ele>112.0</ele><time>2026-05-03T09:23:34.171Z</time></trkpt><trkpt lat="45.3014749" lon="8.7042085"><ele>113.0</ele><time>2026-05-03T09:23:35.171Z</time></trkpt><trkpt lat="45.3017103" lon="8.7041541"><ele>113.0</ele><time>2026-05-03T09:23:36.171Z</time></trkpt><trkpt lat="45.3019455" lon="8.704094"><ele>113.0</ele><time>2026-05-03T09:23:37.17Z</time></trkpt><trkpt lat="45.3021833" lon="8.7040316"><ele>113.0</ele><time>2026-05-03T09:23:38.17Z</time></trkpt><trkpt lat="45.3024169" lon="8.7039736"><ele>113.0</ele><time>2026-05-03T09:23:39.17Z</time></trkpt><trkpt lat="45.3026543" lon="8.7039153"><ele>113.0</ele><time>2026-05-03T09:23:40.17Z</time></trkpt><trkpt lat="45.3028871" lon="8.7038512"><ele>113.0</ele><time>2026-05-03T09:23:41.171Z</time></trkpt><trkpt lat="45.3031201" lon="8.7037897"><ele>112.5</ele><time>2026-05-03T09:23:42.171Z</time></trkpt><trkpt lat="45.3033518" lon="8.7037321"><ele>112.0</ele><time>2026-05-03T09:23:43.171Z</time></trkpt><trkpt lat="45.3035787" lon="8.7036724"><ele>112.0</ele><time>2026-05-03T09:23:44.171Z</time></trkpt><trkpt lat="45.3038082" lon="8.7036134"><ele>112.0</ele><time>2026-05-03T09:23:45.171Z</time></trkpt><trkpt lat="45.3040299" lon="8.7035544"><ele>111.66666666666667</ele><time>2026-05-03T09:23:46.17Z</time></trkpt><trkpt lat="45.3042507" lon="8.7034989"><ele>111.33333333333334</ele><time>2026-05-03T09:23:47.171Z</time></trkpt><trkpt lat="45.3044677" lon="8.7034456"><ele>111.0</ele><time>2026-05-03T09:23:48.17Z</time></trkpt><trkpt lat="45.3046803" lon="8.7033909"><ele>111.66666666666666</ele><time>2026-05-03T09:23:49.17Z</time></trkpt><trkpt lat="45.3048947" lon="8.7033337"><ele>112.33333333333333</ele><time>2026-05-03T09:23:50.171Z</time></trkpt><trkpt lat="45.3051065" lon="8.7032792"><ele>113.0</ele><time>2026-05-03T09:23:51.171Z</time></trkpt><trkpt lat="45.3053191" lon="8.7032215"><ele>113.0</ele><time>2026-05-03T09:23:52.171Z</time></trkpt><trkpt lat="45.305526" lon="8.703169"><ele>113.0</ele><time>2026-05-03T09:23:53.171Z</time></trkpt><trkpt lat="45.3057327" lon="8.703116"><ele>113.0</ele><time>2026-05-03T09:23:54.17Z</time></trkpt><trkpt lat="45.3059378" lon="8.7030646"><ele>113.0</ele><time>2026-05-03T09:23:55.17Z</time></trkpt><trkpt lat="45.306145" lon="8.7030101"><ele>113.0</ele><time>2026-05-03T09:23:56.17Z</time></trkpt><trkpt lat="45.3063492" lon="8.7029602"><ele>113.0</ele><time>2026-05-03T09:23:57.171Z</time></trkpt><trkpt lat="45.3065521" lon="8.7029099"><ele>113.0</ele><time>2026-05-03T09:23:58.171Z</time></trkpt><trkpt lat="45.3067526" lon="8.7028578"><ele>113.0</ele><time>2026-05-03T09:23:59.17Z</time></trkpt><trkpt lat="45.3069563" lon="8.7028026"><ele>113.0</ele><time>2026-05-03T09:24:00.171Z</time></trkpt><trkpt lat="45.3071598" lon="8.7027473"><ele>112.66666666666666</ele><time>2026-05-03T09:24:01.17Z</time></trkpt><trkpt lat="45.3073675" lon="8.7026888"><ele>112.33333333333334</ele><time>2026-05-03T09:24:02.171Z</time></trkpt><trkpt lat="45.3075788" lon="8.70263"><ele>112.0</ele><time>2026-05-03T09:24:03.17Z</time></trkpt><trkpt lat="45.307794" lon="8.7025729"><ele>112.0</ele><time>2026-05-03T09:24:04.171Z</time></trkpt><trkpt lat="45.3080091" lon="8.7025158"><ele>112.0</ele><time>2026-05-03T09:24:05.171Z</time></trkpt><trkpt lat="45.3082266" lon="8.7024581"><ele>112.0</ele><time>2026-05-03T09:24:06.171Z</time></trkpt><trkpt lat="45.308444" lon="8.7024033"><ele>112.66666666666667</ele><time>2026-05-03T09:24:07.17Z</time></trkpt><trkpt lat="45.3086646" lon="8.7023455"><ele>113.33333333333334</ele><time>2026-05-03T09:24:08.17Z</time></trkpt><trkpt lat="45.3088839" lon="8.7022907"><ele>114.0</ele><time>2026-05-03T09:24:09.171Z</time></trkpt><trkpt lat="45.3090996" lon="8.702232"><ele>114.33333333333334</ele><time>2026-05-03T09:24:10.17Z</time></trkpt><trkpt lat="45.3093121" lon="8.7021751"><ele>114.66666666666667</ele><time>2026-05-03T09:24:11.171Z</time></trkpt><trkpt lat="45.3095243" lon="8.7021205"><ele>115.0</ele><time>2026-05-03T09:24:12.171Z</time></trkpt><trkpt lat="45.3097314" lon="8.7020651"><ele>114.66666666666667</ele><time>2026-05-03T09:24:13.17Z</time></trkpt><trkpt lat="45.3099331" lon="8.7020107"><ele>114.33333333333334</ele><time>2026-05-03T09:24:14.17Z</time></trkpt><trkpt lat="45.3101369" lon="8.7019635"><ele>114.0</ele><time>2026-05-03T09:24:15.17Z</time></trkpt><trkpt lat="45.3103382" lon="8.7019128"><ele>114.0</ele><time>2026-05-03T09:24:16.171Z</time></trkpt><trkpt lat="45.3105418" lon="8.7018573"><ele>114.0</ele><time>2026-05-03T09:24:17.171Z</time></trkpt><trkpt lat="45.310745" lon="8.7018063"><ele>114.0</ele><time>2026-05-03T09:24:18.171Z</time></trkpt><trkpt lat="45.3109438" lon="8.701753"><ele>114.0</ele><time>2026-05-03T09:24:19.171Z</time></trkpt><trkpt lat="45.3111386" lon="8.7016978"><ele>114.0</ele><time>2026-05-03T09:24:20.17Z</time></trkpt><trkpt lat="45.3113338" lon="8.7016507"><ele>114.0</ele><time>2026-05-03T09:24:21.17Z</time></trkpt><trkpt lat="45.3115229" lon="8.7015991"><ele>114.0</ele><time>2026-05-03T09:24:22.17Z</time></trkpt><trkpt lat="45.3117126" lon="8.7015468"><ele>114.0</ele><time>2026-05-03T09:24:23.17Z</time></trkpt><trkpt lat="45.3119029" lon="8.7014978"><ele>114.0</ele><time>2026-05-03T09:24:24.171Z</time></trkpt><trkpt lat="45.3120908" lon="8.7014461"><ele>113.66666666666666</ele><time>2026-05-03T09:24:25.171Z</time></trkpt><trkpt lat="45.3122794" lon="8.7013964"><ele>113.33333333333333</ele><time>2026-05-03T09:24:26.171Z</time></trkpt><trkpt lat="45.3124656" lon="8.7013478"><ele>113.0</ele><time>2026-05-03T09:24:27.171Z</time></trkpt><trkpt lat="45.312647" lon="8.7012984"><ele>113.0</ele><time>2026-05-03T09:24:28.171Z</time></trkpt><trkpt lat="45.3128302" lon="8.701252"><ele>113.0</ele><time>2026-05-03T09:24:29.17Z</time></trkpt><trkpt lat="45.313015" lon="8.7012003"><ele>113.0</ele><time>2026-05-03T09:24:30.17Z</time></trkpt><trkpt lat="45.3131958" lon="8.7011511"><ele>113.0</ele><time>2026-05-03T09:24:31.171Z</time></trkpt><trkpt lat="45.3133687" lon="8.7011072"><ele>113.0</ele><time>2026-05-03T09:24:32.17Z</time></trkpt><trkpt lat="45.3135348" lon="8.7010613"><ele>113.0</ele><time>2026-05-03T09:24:33.17Z</time></trkpt><trkpt lat="45.3136991" lon="8.7010228"><ele>113.33333333333333</ele><time>2026-05-03T09:24:34.171Z</time></trkpt><trkpt lat="45.3138594" lon="8.7009803"><ele>113.66666666666666</ele><time>2026-05-03T09:24:35.171Z</time></trkpt><trkpt lat="45.3140179" lon="8.7009369"><ele>114.0</ele><time>2026-05-03T09:24:36.171Z</time></trkpt><trkpt lat="45.3141727" lon="8.7008901"><ele>114.0</ele><time>2026-05-03T09:24:37.171Z</time></trkpt><trkpt lat="45.3143259" lon="8.7008467"><ele>114.0</ele><time>2026-05-03T09:24:38.171Z</time></trkpt><trkpt lat="45.3144686" lon="8.700803"><ele>114.0</ele><time>2026-05-03T09:24:39.17Z</time></trkpt><trkpt lat="45.3146033" lon="8.7007621"><ele>114.0</ele><time>2026-05-03T09:24:40.17Z</time></trkpt><trkpt lat="45.3147356" lon="8.7007188"><ele>114.25</ele><time>2026-05-03T09:24:41.171Z</time></trkpt><trkpt lat="45.3148661" lon="8.7006843"><ele>114.5</ele><time>2026-05-03T09:24:42.171Z</time></trkpt><trkpt lat="45.3149942" lon="8.7006519"><ele>114.75</ele><time>2026-05-03T09:24:43.17Z</time></trkpt><trkpt lat="45.3151266" lon="8.7006193"><ele>115.0</ele><time>2026-05-03T09:24:44.171Z</time></trkpt><trkpt lat="45.3152527" lon="8.7005846"><ele>115.0</ele><time>2026-05-03T09:24:45.171Z</time></trkpt><trkpt lat="45.3153787" lon="8.70055"><ele>115.0</ele><time>2026-05-03T09:24:46.171Z</time></trkpt><trkpt lat="45.3155025" lon="8.7005158"><ele>115.0</ele><time>2026-05-03T09:24:47.171Z</time></trkpt><trkpt lat="45.3156219" lon="8.7004769"><ele>115.0</ele><time>2026-05-03T09:24:48.171Z</time></trkpt><trkpt lat="45.3157403" lon="8.700448"><ele>115.5</ele><time>2026-05-03T09:24:49.171Z</time></trkpt><trkpt lat="45.3158616" lon="8.7004215"><ele>116.0</ele><time>2026-05-03T09:24:50.17Z</time></trkpt><trkpt lat="45.315983" lon="8.7003923"><ele>116.5</ele><time>2026-05-03T09:24:51.171Z</time></trkpt><trkpt lat="45.3161001" lon="8.7003636"><ele>117.0</ele><time>2026-05-03T09:24:52.171Z</time></trkpt><trkpt lat="45.3162153" lon="8.7003323"><ele>117.0</ele><time>2026-05-03T09:24:53.171Z</time></trkpt><trkpt lat="45.3163311" lon="8.700302"><ele>117.0</ele><time>2026-05-03T09:24:54.171Z</time></trkpt><trkpt lat="45.3164461" lon="8.7002688"><ele>117.0</ele><time>2026-05-03T09:24:55.17Z</time></trkpt><trkpt lat="45.3165606" lon="8.7002355"><ele>117.0</ele><time>2026-05-03T09:24:56.17Z</time></trkpt><trkpt lat="45.3166736" lon="8.7002032"><ele>117.25</ele><time>2026-05-03T09:24:57.171Z</time></trkpt><trkpt lat="45.3167856" lon="8.7001624"><ele>117.5</ele><time>2026-05-03T09:24:58.171Z</time></trkpt><trkpt lat="45.3168997" lon="8.7001213"><ele>117.75</ele><time>2026-05-03T09:24:59.17Z</time></trkpt><trkpt lat="45.3170117" lon="8.7000775"><ele>118.0</ele><time>2026-05-03T09:25:00.171Z</time></trkpt><trkpt lat="45.3171228" lon="8.7000328"><ele>118.0</ele><time>2026-05-03T09:25:01.171Z</time></trkpt><trkpt lat="45.3172353" lon="8.6999868"><ele>118.00000000000001</ele><time>2026-05-03T09:25:02.171Z</time></trkpt><trkpt lat="45.3173425" lon="8.6999428"><ele>118.00000000000001</ele><time>2026-05-03T09:25:03.171Z</time></trkpt><trkpt lat="45.3174482" lon="8.6999003"><ele>118.0</ele><time>2026-05-03T09:25:04.171Z</time></trkpt><trkpt lat="45.3175519" lon="8.6998606"><ele>118.0</ele><time>2026-05-03T09:25:05.171Z</time></trkpt><trkpt lat="45.317651" lon="8.6998189"><ele>118.25</ele><time>2026-05-03T09:25:06.17Z</time></trkpt><trkpt lat="45.3177578" lon="8.6997794"><ele>118.5</ele><time>2026-05-03T09:25:07.171Z</time></trkpt><trkpt lat="45.3178677" lon="8.6997371"><ele>118.75</ele><time>2026-05-03T09:25:08.171Z</time></trkpt><trkpt lat="45.3179786" lon="8.6996946"><ele>119.0</ele><time>2026-05-03T09:25:09.17Z</time></trkpt><trkpt lat="45.3180922" lon="8.6996532"><ele>119.5</ele><time>2026-05-03T09:25:10.17Z</time></trkpt><trkpt lat="45.3182056" lon="8.6996071"><ele>120.0</ele><time>2026-05-03T09:25:11.17Z</time></trkpt><trkpt lat="45.3183197" lon="8.6995637"><ele>120.5</ele><time>2026-05-03T09:25:12.17Z</time></trkpt><trkpt lat="45.318433" lon="8.6995221"><ele>121.0</ele><time>2026-05-03T09:25:13.171Z</time></trkpt><trkpt lat="45.318542" lon="8.6994857"><ele>121.0</ele><time>2026-05-03T09:25:14.171Z</time></trkpt><trkpt lat="45.3186584" lon="8.6994463"><ele>121.0</ele><time>2026-05-03T09:25:15.17Z</time></trkpt><trkpt lat="45.3187719" lon="8.6994061"><ele>121.0</ele><time>2026-05-03T09:25:16.171Z</time></trkpt><trkpt lat="45.3188863" lon="8.6993595"><ele>121.0</ele><time>2026-05-03T09:25:17.171Z</time></trkpt><trkpt lat="45.319001" lon="8.6993211"><ele>120.5</ele><time>2026-05-03T09:25:18.171Z</time></trkpt><trkpt lat="45.3191193" lon="8.6992801"><ele>120.0</ele><time>2026-05-03T09:25:19.171Z</time></trkpt><trkpt lat="45.3192326" lon="8.6992315"><ele>119.5</ele><time>2026-05-03T09:25:20.17Z</time></trkpt><trkpt lat="45.319349" lon="8.699187"><ele>119.0</ele><time>2026-05-03T09:25:21.171Z</time></trkpt><trkpt lat="45.3194535" lon="8.6991377"><ele>119.0</ele><time>2026-05-03T09:25:22.171Z</time></trkpt><trkpt lat="45.3195601" lon="8.6990865"><ele>119.0</ele><time>2026-05-03T09:25:23.171Z</time></trkpt><trkpt lat="45.3196695" lon="8.6990354"><ele>119.0</ele><time>2026-05-03T09:25:24.171Z</time></trkpt><trkpt lat="45.319785" lon="8.6989942"><ele>119.0</ele><time>2026-05-03T09:25:25.17Z</time></trkpt><trkpt lat="45.3199039" lon="8.6989528"><ele>119.0</ele><time>2026-05-03T09:25:26.17Z</time></trkpt><trkpt lat="45.3200215" lon="8.698907"><ele>119.0</ele><time>2026-05-03T09:25:27.171Z</time></trkpt><trkpt lat="45.3201351" lon="8.6988649"><ele>119.0</ele><time>2026-05-03T09:25:28.17Z</time></trkpt><trkpt lat="45.320246" lon="8.6988311"><ele>119.0</ele><time>2026-05-03T09:25:29.171Z</time></trkpt><trkpt lat="45.3203624" lon="8.698791"><ele>119.0</ele><time>2026-05-03T09:25:30.17Z</time></trkpt><trkpt lat="45.3204759" lon="8.6987494"><ele>119.0</ele><time>2026-05-03T09:25:31.17Z</time></trkpt><trkpt lat="45.3205851" lon="8.6987011"><ele>119.0</ele><time>2026-05-03T09:25:32.171Z</time></trkpt><trkpt lat="45.3206936" lon="8.698661"><ele>119.0</ele><time>2026-05-03T09:25:33.171Z</time></trkpt><trkpt lat="45.3207794" lon="8.698627"><ele>119.0</ele><time>2026-05-03T09:25:34.171Z</time></trkpt><trkpt lat="45.3208759" lon="8.6985875"><ele>118.6</ele><time>2026-05-03T09:25:36.171Z</time></trkpt><trkpt lat="45.3209592" lon="8.698568"><ele>118.2</ele><time>2026-05-03T09:25:39.171Z</time></trkpt><trkpt lat="45.3210499" lon="8.6985202"><ele>117.79999999999998</ele><time>2026-05-03T09:25:41.171Z</time></trkpt><trkpt lat="45.3211707" lon="8.69846"><ele>117.39999999999999</ele><time>2026-05-03T09:25:43.17Z</time></trkpt><trkpt lat="45.3212477" lon="8.698425"><ele>117.0</ele><time>2026-05-03T09:25:44.171Z</time></trkpt><trkpt lat="45.3213511" lon="8.6983799"><ele>117.0</ele><time>2026-05-03T09:25:45.17Z</time></trkpt><trkpt lat="45.3214561" lon="8.6983405"><ele>116.99999999999999</ele><time>2026-05-03T09:25:46.171Z</time></trkpt><trkpt lat="45.3215612" lon="8.6982898"><ele>116.99999999999999</ele><time>2026-05-03T09:25:47.171Z</time></trkpt><trkpt lat="45.3216653" lon="8.6982254"><ele>117.0</ele><time>2026-05-03T09:25:48.17Z</time></trkpt><trkpt lat="45.3217674" lon="8.6981535"><ele>117.0</ele><time>2026-05-03T09:25:49.171Z</time></trkpt><trkpt lat="45.321865" lon="8.6980596"><ele>117.0</ele><time>2026-05-03T09:25:50.171Z</time></trkpt><trkpt lat="45.321965" lon="8.697954"><ele>117.0</ele><time>2026-05-03T09:25:51.171Z</time></trkpt><trkpt lat="45.3220655" lon="8.6978441"><ele>117.0</ele><time>2026-05-03T09:25:52.17Z</time></trkpt><trkpt lat="45.3221573" lon="8.6977381"><ele>117.0</ele><time>2026-05-03T09:25:53.17Z</time></trkpt><trkpt lat="45.3222515" lon="8.6976298"><ele>117.25</ele><time>2026-05-03T09:25:54.17Z</time></trkpt><trkpt lat="45.3223447" lon="8.6975239"><ele>117.5</ele><time>2026-05-03T09:25:55.171Z</time></trkpt><trkpt lat="45.3224402" lon="8.6974159"><ele>117.75</ele><time>2026-05-03T09:25:56.171Z</time></trkpt><trkpt lat="45.3225379" lon="8.697303"><ele>118.0</ele><time>2026-05-03T09:25:57.17Z</time></trkpt><trkpt lat="45.3226372" lon="8.6971919"><ele>118.0</ele><time>2026-05-03T09:25:58.171Z</time></trkpt><trkpt lat="45.3227355" lon="8.6970834"><ele>118.0</ele><time>2026-05-03T09:25:59.171Z</time></trkpt><trkpt lat="45.3228299" lon="8.6969789"><ele>118.0</ele><time>2026-05-03T09:26:00.171Z</time></trkpt><trkpt lat="45.3229222" lon="8.6968815"><ele>118.0</ele><time>2026-05-03T09:26:01.171Z</time></trkpt><trkpt lat="45.3230121" lon="8.6967857"><ele>118.0</ele><time>2026-05-03T09:26:02.171Z</time></trkpt><trkpt lat="45.3231054" lon="8.6966821"><ele>118.0</ele><time>2026-05-03T09:26:03.17Z</time></trkpt><trkpt lat="45.3232018" lon="8.6965792"><ele>118.0</ele><time>2026-05-03T09:26:04.17Z</time></trkpt><trkpt lat="45.3232963" lon="8.6964741"><ele>118.0</ele><time>2026-05-03T09:26:05.171Z</time></trkpt><trkpt lat="45.3233873" lon="8.6963697"><ele>118.0</ele><time>2026-05-03T09:26:06.171Z</time></trkpt><trkpt lat="45.3234806" lon="8.6962749"><ele>118.0</ele><time>2026-05-03T09:26:07.171Z</time></trkpt><trkpt lat="45.3235734" lon="8.6961737"><ele>118.0</ele><time>2026-05-03T09:26:08.171Z</time></trkpt><trkpt lat="45.3236686" lon="8.6960655"><ele>118.0</ele><time>2026-05-03T09:26:09.171Z</time></trkpt><trkpt lat="45.3237635" lon="8.6959533"><ele>117.75</ele><time>2026-05-03T09:26:10.171Z</time></trkpt><trkpt lat="45.3238597" lon="8.6958479"><ele>117.5</ele><time>2026-05-03T09:26:11.171Z</time></trkpt><trkpt lat="45.3239575" lon="8.6957395"><ele>117.25</ele><time>2026-05-03T09:26:12.17Z</time></trkpt><trkpt lat="45.3240554" lon="8.6956346"><ele>117.0</ele><time>2026-05-03T09:26:13.171Z</time></trkpt><trkpt lat="45.324154" lon="8.6955199"><ele>116.75</ele><time>2026-05-03T09:26:14.171Z</time></trkpt><trkpt lat="45.3242493" lon="8.6954104"><ele>116.5</ele><time>2026-05-03T09:26:15.17Z</time></trkpt><trkpt lat="45.3243468" lon="8.695304"><ele>116.25</ele><time>2026-05-03T09:26:16.17Z</time></trkpt><trkpt lat="45.3244451" lon="8.6951944"><ele>116.0</ele><time>2026-05-03T09:26:17.171Z</time></trkpt><trkpt lat="45.3245465" lon="8.6950896"><ele>116.0</ele><time>2026-05-03T09:26:18.171Z</time></trkpt><trkpt lat="45.3246511" lon="8.6949713"><ele>116.0</ele><time>2026-05-03T09:26:19.171Z</time></trkpt><trkpt lat="45.3247563" lon="8.6948525"><ele>116.0</ele><time>2026-05-03T09:26:20.17Z</time></trkpt><trkpt lat="45.3248666" lon="8.6947285"><ele>116.0</ele><time>2026-05-03T09:26:21.171Z</time></trkpt><trkpt lat="45.3249826" lon="8.6945983"><ele>116.25</ele><time>2026-05-03T09:26:22.17Z</time></trkpt><trkpt lat="45.3251003" lon="8.6944745"><ele>116.5</ele><time>2026-05-03T09:26:23.171Z</time></trkpt><trkpt lat="45.3252222" lon="8.6943452"><ele>116.75</ele><time>2026-05-03T09:26:24.17Z</time></trkpt><trkpt lat="45.3253418" lon="8.6942173"><ele>117.0</ele><time>2026-05-03T09:26:25.171Z</time></trkpt><trkpt lat="45.3254642" lon="8.6940858"><ele>117.66666666666666</ele><time>2026-05-03T09:26:26.171Z</time></trkpt><trkpt lat="45.3255902" lon="8.693954"><ele>118.33333333333333</ele><time>2026-05-03T09:26:27.171Z</time></trkpt><trkpt lat="45.3257201" lon="8.6938201"><ele>119.0</ele><time>2026-05-03T09:26:28.171Z</time></trkpt><trkpt lat="45.325852" lon="8.693684"><ele>119.0</ele><time>2026-05-03T09:26:29.171Z</time></trkpt><trkpt lat="45.3259828" lon="8.6935402"><ele>119.0</ele><time>2026-05-03T09:26:30.17Z</time></trkpt><trkpt lat="45.3261172" lon="8.6933954"><ele>119.0</ele><time>2026-05-03T09:26:31.171Z</time></trkpt><trkpt lat="45.3262533" lon="8.6932511"><ele>119.0</ele><time>2026-05-03T09:26:32.171Z</time></trkpt><trkpt lat="45.3263891" lon="8.6931016"><ele>119.0</ele><time>2026-05-03T09:26:33.171Z</time></trkpt><trkpt lat="45.3265222" lon="8.6929572"><ele>119.0</ele><time>2026-05-03T09:26:34.171Z</time></trkpt><trkpt lat="45.326659" lon="8.6928094"><ele>118.33333333333333</ele><time>2026-05-03T09:26:35.17Z</time></trkpt><trkpt lat="45.3267954" lon="8.6926515"><ele>117.66666666666666</ele><time>2026-05-03T09:26:36.171Z</time></trkpt><trkpt lat="45.3269353" lon="8.6924955"><ele>117.0</ele><time>2026-05-03T09:26:37.17Z</time></trkpt><trkpt lat="45.3270772" lon="8.6923414"><ele>117.0</ele><time>2026-05-03T09:26:38.17Z</time></trkpt><trkpt lat="45.3272217" lon="8.6921844"><ele>117.0</ele><time>2026-05-03T09:26:39.171Z</time></trkpt><trkpt lat="45.3273765" lon="8.6920212"><ele>117.0</ele><time>2026-05-03T09:26:40.171Z</time></trkpt><trkpt lat="45.3275372" lon="8.6918493"><ele>117.0</ele><time>2026-05-03T09:26:41.17Z</time></trkpt><trkpt lat="45.3277071" lon="8.691673"><ele>117.0</ele><time>2026-05-03T09:26:42.17Z</time></trkpt><trkpt lat="45.3278782" lon="8.6914885"><ele>117.0</ele><time>2026-05-03T09:26:43.171Z</time></trkpt><trkpt lat="45.3280481" lon="8.6913015"><ele>117.0</ele><time>2026-05-03T09:26:44.171Z</time></trkpt><trkpt lat="45.3282182" lon="8.6911159"><ele>117.0</ele><time>2026-05-03T09:26:45.17Z</time></trkpt><trkpt lat="45.328386" lon="8.6909316"><ele>117.0</ele><time>2026-05-03T09:26:46.171Z</time></trkpt><trkpt lat="45.3285494" lon="8.6907526"><ele>116.66666666666666</ele><time>2026-05-03T09:26:47.17Z</time></trkpt><trkpt lat="45.3287126" lon="8.6905714"><ele>116.33333333333333</ele><time>2026-05-03T09:26:48.171Z</time></trkpt><trkpt lat="45.3288855" lon="8.6903742"><ele>116.0</ele><time>2026-05-03T09:26:49.171Z</time></trkpt><trkpt lat="45.3290714" lon="8.6901621"><ele>116.0</ele><time>2026-05-03T09:26:50.171Z</time></trkpt><trkpt lat="45.3292738" lon="8.6899402"><ele>116.0</ele><time>2026-05-03T09:26:51.17Z</time></trkpt><trkpt lat="45.3294998" lon="8.6896987"><ele>116.0</ele><time>2026-05-03T09:26:52.171Z</time></trkpt><trkpt lat="45.3297402" lon="8.6894464"><ele>116.0</ele><time>2026-05-03T09:26:53.171Z</time></trkpt><trkpt lat="45.3299873" lon="8.6891715"><ele>116.0</ele><time>2026-05-03T09:26:54.171Z</time></trkpt><trkpt lat="45.3302364" lon="8.6888989"><ele>116.0</ele><time>2026-05-03T09:26:55.17Z</time></trkpt><trkpt lat="45.3304715" lon="8.6886427"><ele>116.5</ele><time>2026-05-03T09:26:56.171Z</time></trkpt><trkpt lat="45.3306927" lon="8.6884014"><ele>117.0</ele><time>2026-05-03T09:26:57.171Z</time></trkpt><trkpt lat="45.3309033" lon="8.6881668"><ele>117.0</ele><time>2026-05-03T09:26:58.17Z</time></trkpt><trkpt lat="45.3311099" lon="8.6879402"><ele>117.0</ele><time>2026-05-03T09:26:59.171Z</time></trkpt><trkpt lat="45.3313168" lon="8.6877088"><ele>117.5</ele><time>2026-05-03T09:27:00.171Z</time></trkpt><trkpt lat="45.3315207" lon="8.6874857"><ele>118.0</ele><time>2026-05-03T09:27:01.17Z</time></trkpt><trkpt lat="45.331716" lon="8.6872662"><ele>118.0</ele><time>2026-05-03T09:27:02.171Z</time></trkpt><trkpt lat="45.3319105" lon="8.6870452"><ele>118.0</ele><time>2026-05-03T09:27:03.171Z</time></trkpt><trkpt lat="45.3321061" lon="8.6868261"><ele>118.5</ele><time>2026-05-03T09:27:04.17Z</time></trkpt><trkpt lat="45.3322995" lon="8.6866139"><ele>119.0</ele><time>2026-05-03T09:27:05.171Z</time></trkpt><trkpt lat="45.3324914" lon="8.6864034"><ele>119.0</ele><time>2026-05-03T09:27:06.171Z</time></trkpt><trkpt lat="45.3326795" lon="8.6861953"><ele>119.0</ele><time>2026-05-03T09:27:07.171Z</time></trkpt><trkpt lat="45.3328706" lon="8.6859876"><ele>118.0</ele><time>2026-05-03T09:27:08.171Z</time></trkpt><trkpt lat="45.333058" lon="8.6857776"><ele>117.0</ele><time>2026-05-03T09:27:09.17Z</time></trkpt><trkpt lat="45.3332486" lon="8.6855645"><ele>117.0</ele><time>2026-05-03T09:27:10.17Z</time></trkpt><trkpt lat="45.3334378" lon="8.6853516"><ele>117.0</ele><time>2026-05-03T09:27:11.17Z</time></trkpt><trkpt lat="45.3336262" lon="8.6851417"><ele>117.0</ele><time>2026-05-03T09:27:12.171Z</time></trkpt><trkpt lat="45.3338199" lon="8.6849265"><ele>117.0</ele><time>2026-05-03T09:27:13.17Z</time></trkpt><trkpt lat="45.3340105" lon="8.6847179"><ele>117.0</ele><time>2026-05-03T09:27:14.171Z</time></trkpt><trkpt lat="45.3342023" lon="8.6845093"><ele>117.0</ele><time>2026-05-03T09:27:15.171Z</time></trkpt><trkpt lat="45.3343969" lon="8.6842942"><ele>117.0</ele><time>2026-05-03T09:27:16.17Z</time></trkpt><trkpt lat="45.3345905" lon="8.6840834"><ele>117.0</ele><time>2026-05-03T09:27:17.171Z</time></trkpt><trkpt lat="45.3347828" lon="8.683866"><ele>117.0</ele><time>2026-05-03T09:27:18.171Z</time></trkpt><trkpt lat="45.3349747" lon="8.6836469"><ele>117.0</ele><time>2026-05-03T09:27:19.171Z</time></trkpt><trkpt lat="45.3351693" lon="8.6834333"><ele>117.0</ele><time>2026-05-03T09:27:20.171Z</time></trkpt><trkpt lat="45.3353669" lon="8.6832125"><ele>117.0</ele><time>2026-05-03T09:27:21.171Z</time></trkpt><trkpt lat="45.3355635" lon="8.6829916"><ele>117.0</ele><time>2026-05-03T09:27:22.171Z</time></trkpt><trkpt lat="45.3357614" lon="8.6827762"><ele>117.0</ele><time>2026-05-03T09:27:23.17Z</time></trkpt><trkpt lat="45.3359601" lon="8.6825613"><ele>117.5</ele><time>2026-05-03T09:27:24.171Z</time></trkpt><trkpt lat="45.3361605" lon="8.6823418"><ele>118.0</ele><time>2026-05-03T09:27:25.171Z</time></trkpt><trkpt lat="45.3363563" lon="8.6821285"><ele>117.5</ele><time>2026-05-03T09:27:26.171Z</time></trkpt><trkpt lat="45.3365518" lon="8.6819092"><ele>117.0</ele><time>2026-05-03T09:27:27.17Z</time></trkpt><trkpt lat="45.3367439" lon="8.6816904"><ele>117.0</ele><time>2026-05-03T09:27:28.171Z</time></trkpt><trkpt lat="45.3369427" lon="8.6814684"><ele>117.0</ele><time>2026-05-03T09:27:29.171Z</time></trkpt><trkpt lat="45.3371388" lon="8.6812495"><ele>117.5</ele><time>2026-05-03T09:27:30.17Z</time></trkpt><trkpt lat="45.3373375" lon="8.6810297"><ele>118.0</ele><time>2026-05-03T09:27:31.171Z</time></trkpt><trkpt lat="45.3375324" lon="8.6808171"><ele>118.0</ele><time>2026-05-03T09:27:32.17Z</time></trkpt><trkpt lat="45.3377274" lon="8.6806051"><ele>118.0</ele><time>2026-05-03T09:27:33.17Z</time></trkpt><trkpt lat="45.3379203" lon="8.6803881"><ele>119.5</ele><time>2026-05-03T09:27:34.171Z</time></trkpt><trkpt lat="45.3381131" lon="8.6801698"><ele>121.0</ele><time>2026-05-03T09:27:35.171Z</time></trkpt><trkpt lat="45.3383081" lon="8.6799517"><ele>121.0</ele><time>2026-05-03T09:27:36.17Z</time></trkpt><trkpt lat="45.338503" lon="8.6797404"><ele>121.0</ele><time>2026-05-03T09:27:37.17Z</time></trkpt><trkpt lat="45.3386956" lon="8.6795329"><ele>120.5</ele><time>2026-05-03T09:27:38.17Z</time></trkpt><trkpt lat="45.3388855" lon="8.6793229"><ele>120.0</ele><time>2026-05-03T09:27:39.171Z</time></trkpt><trkpt lat="45.3390758" lon="8.679114"><ele>120.0</ele><time>2026-05-03T09:27:40.171Z</time></trkpt><trkpt lat="45.3392682" lon="8.6789039"><ele>120.0</ele><time>2026-05-03T09:27:41.171Z</time></trkpt><trkpt lat="45.3394602" lon="8.6786912"><ele>120.0</ele><time>2026-05-03T09:27:42.17Z</time></trkpt><trkpt lat="45.3396521" lon="8.6784785"><ele>120.0</ele><time>2026-05-03T09:27:43.17Z</time></trkpt><trkpt lat="45.3398431" lon="8.6782646"><ele>120.0</ele><time>2026-05-03T09:27:44.171Z</time></trkpt><trkpt lat="45.3400334" lon="8.6780527"><ele>120.0</ele><time>2026-05-03T09:27:45.171Z</time></trkpt><trkpt lat="45.3402214" lon="8.6778465"><ele>120.0</ele><time>2026-05-03T09:27:46.17Z</time></trkpt><trkpt lat="45.3404065" lon="8.6776409"><ele>120.0</ele><time>2026-05-03T09:27:47.171Z</time></trkpt><trkpt lat="45.34059" lon="8.677439"><ele>120.0</ele><time>2026-05-03T09:27:48.17Z</time></trkpt><trkpt lat="45.3407706" lon="8.677241"><ele>120.0</ele><time>2026-05-03T09:27:49.17Z</time></trkpt><trkpt lat="45.3409524" lon="8.6770422"><ele>120.0</ele><time>2026-05-03T09:27:50.171Z</time></trkpt><trkpt lat="45.341132" lon="8.67684"><ele>120.0</ele><time>2026-05-03T09:27:51.171Z</time></trkpt><trkpt lat="45.3413149" lon="8.6766411"><ele>119.0</ele><time>2026-05-03T09:27:52.17Z</time></trkpt><trkpt lat="45.3414914" lon="8.6764362"><ele>118.0</ele><time>2026-05-03T09:27:53.171Z</time></trkpt><trkpt lat="45.3416711" lon="8.6762334"><ele>118.0</ele><time>2026-05-03T09:27:54.171Z</time></trkpt><trkpt lat="45.3418433" lon="8.676046"><ele>118.0</ele><time>2026-05-03T09:27:55.171Z</time></trkpt><trkpt lat="45.3420049" lon="8.6758708"><ele>118.0</ele><time>2026-05-03T09:27:56.171Z</time></trkpt><trkpt lat="45.3421606" lon="8.6757015"><ele>118.33333333333334</ele><time>2026-05-03T09:27:57.171Z</time></trkpt><trkpt lat="45.3423101" lon="8.6755262"><ele>118.66666666666666</ele><time>2026-05-03T09:27:58.17Z</time></trkpt><trkpt lat="45.3424566" lon="8.6753491"><ele>119.0</ele><time>2026-05-03T09:27:59.171Z</time></trkpt><trkpt lat="45.3425992" lon="8.6751736"><ele>119.0</ele><time>2026-05-03T09:28:00.17Z</time></trkpt><trkpt lat="45.3427339" lon="8.6750016"><ele>119.0</ele><time>2026-05-03T09:28:01.17Z</time></trkpt><trkpt lat="45.3428698" lon="8.674828"><ele>119.0</ele><time>2026-05-03T09:28:02.171Z</time></trkpt><trkpt lat="45.3430073" lon="8.6746577"><ele>119.0</ele><time>2026-05-03T09:28:03.171Z</time></trkpt><trkpt lat="45.3431481" lon="8.6744957"><ele>119.0</ele><time>2026-05-03T09:28:04.17Z</time></trkpt><trkpt lat="45.3432945" lon="8.6743338"><ele>119.0</ele><time>2026-05-03T09:28:05.171Z</time></trkpt><trkpt lat="45.3434386" lon="8.6741778"><ele>119.0</ele><time>2026-05-03T09:28:06.171Z</time></trkpt><trkpt lat="45.3435833" lon="8.6740215"><ele>119.0</ele><time>2026-05-03T09:28:07.171Z</time></trkpt><trkpt lat="45.3437245" lon="8.6738656"><ele>119.0</ele><time>2026-05-03T09:28:08.17Z</time></trkpt><trkpt lat="45.3438594" lon="8.6737198"><ele>119.0</ele><time>2026-05-03T09:28:09.171Z</time></trkpt><trkpt lat="45.3439881" lon="8.673575"><ele>119.0</ele><time>2026-05-03T09:28:10.171Z</time></trkpt><trkpt lat="45.3441161" lon="8.6734376"><ele>119.0</ele><time>2026-05-03T09:28:11.171Z</time></trkpt><trkpt lat="45.3442382" lon="8.6733015"><ele>119.0</ele><time>2026-05-03T09:28:12.17Z</time></trkpt><trkpt lat="45.3443585" lon="8.6731679"><ele>119.0</ele><time>2026-05-03T09:28:13.17Z</time></trkpt><trkpt lat="45.3444836" lon="8.6730327"><ele>119.0</ele><time>2026-05-03T09:28:14.171Z</time></trkpt><trkpt lat="45.3446038" lon="8.6728936"><ele>119.66666666666666</ele><time>2026-05-03T09:28:15.17Z</time></trkpt><trkpt lat="45.344727" lon="8.6727576"><ele>120.33333333333334</ele><time>2026-05-03T09:28:16.171Z</time></trkpt><trkpt lat="45.3448468" lon="8.6726204"><ele>121.0</ele><time>2026-05-03T09:28:17.17Z</time></trkpt><trkpt lat="45.3449675" lon="8.6724875"><ele>121.0</ele><time>2026-05-03T09:28:18.171Z</time></trkpt><trkpt lat="45.3450916" lon="8.6723504"><ele>121.0</ele><time>2026-05-03T09:28:19.17Z</time></trkpt><trkpt lat="45.3452112" lon="8.6722195"><ele>121.0</ele><time>2026-05-03T09:28:20.17Z</time></trkpt><trkpt lat="45.3453261" lon="8.6720873"><ele>121.0</ele><time>2026-05-03T09:28:21.17Z</time></trkpt><trkpt lat="45.3454414" lon="8.6719638"><ele>121.0</ele><time>2026-05-03T09:28:22.17Z</time></trkpt><trkpt lat="45.3455593" lon="8.6718355"><ele>121.0</ele><time>2026-05-03T09:28:23.171Z</time></trkpt><trkpt lat="45.3456743" lon="8.6717108"><ele>121.0</ele><time>2026-05-03T09:28:24.171Z</time></trkpt><trkpt lat="45.3457876" lon="8.6715895"><ele>120.75</ele><time>2026-05-03T09:28:25.171Z</time></trkpt><trkpt lat="45.3459004" lon="8.67146"><ele>120.5</ele><time>2026-05-03T09:28:26.171Z</time></trkpt><trkpt lat="45.346014" lon="8.6713357"><ele>120.25</ele><time>2026-05-03T09:28:27.17Z</time></trkpt><trkpt lat="45.3461257" lon="8.6712129"><ele>120.0</ele><time>2026-05-03T09:28:28.171Z</time></trkpt><trkpt lat="45.3462364" lon="8.6710873"><ele>120.25</ele><time>2026-05-03T09:28:29.17Z</time></trkpt><trkpt lat="45.3463466" lon="8.6709591"><ele>120.5</ele><time>2026-05-03T09:28:30.171Z</time></trkpt><trkpt lat="45.3464542" lon="8.6708398"><ele>120.75</ele><time>2026-05-03T09:28:31.17Z</time></trkpt><trkpt lat="45.3465559" lon="8.6707325"><ele>121.0</ele><time>2026-05-03T09:28:32.171Z</time></trkpt><trkpt lat="45.3466571" lon="8.6706204"><ele>121.0</ele><time>2026-05-03T09:28:33.17Z</time></trkpt><trkpt lat="45.3467572" lon="8.6704965"><ele>121.0</ele><time>2026-05-03T09:28:34.171Z</time></trkpt><trkpt lat="45.3468647" lon="8.6703796"><ele>121.0</ele><time>2026-05-03T09:28:35.17Z</time></trkpt><trkpt lat="45.3469637" lon="8.6702749"><ele>121.0</ele><time>2026-05-03T09:28:36.171Z</time></trkpt><trkpt lat="45.3470555" lon="8.6701735"><ele>121.25</ele><time>2026-05-03T09:28:37.17Z</time></trkpt><trkpt lat="45.3471454" lon="8.6700634"><ele>121.5</ele><time>2026-05-03T09:28:38.17Z</time></trkpt><trkpt lat="45.3472366" lon="8.6699619"><ele>121.75</ele><time>2026-05-03T09:28:39.171Z</time></trkpt><trkpt lat="45.3473316" lon="8.6698559"><ele>122.0</ele><time>2026-05-03T09:28:40.17Z</time></trkpt><trkpt lat="45.3474274" lon="8.6697469"><ele>122.0</ele><time>2026-05-03T09:28:41.171Z</time></trkpt><trkpt lat="45.3475254" lon="8.6696402"><ele>122.0</ele><time>2026-05-03T09:28:42.17Z</time></trkpt><trkpt lat="45.3476184" lon="8.6695333"><ele>122.0</ele><time>2026-05-03T09:28:43.17Z</time></trkpt><trkpt lat="45.347707" lon="8.6694292"><ele>122.0</ele><time>2026-05-03T09:28:44.17Z</time></trkpt><trkpt lat="45.3477916" lon="8.6693413"><ele>122.0</ele><time>2026-05-03T09:28:45.171Z</time></trkpt><trkpt lat="45.3478765" lon="8.6692617"><ele>121.99999999999999</ele><time>2026-05-03T09:28:46.17Z</time></trkpt><trkpt lat="45.3479753" lon="8.6692066"><ele>121.99999999999999</ele><time>2026-05-03T09:28:47.17Z</time></trkpt><trkpt lat="45.3480906" lon="8.6691875"><ele>122.0</ele><time>2026-05-03T09:28:48.171Z</time></trkpt><trkpt lat="45.3482154" lon="8.6691844"><ele>122.0</ele><time>2026-05-03T09:28:49.17Z</time></trkpt><trkpt lat="45.3483345" lon="8.6691899"><ele>122.19999999999999</ele><time>2026-05-03T09:28:50.171Z</time></trkpt><trkpt lat="45.3484455" lon="8.6691962"><ele>122.39999999999999</ele><time>2026-05-03T09:28:51.17Z</time></trkpt><trkpt lat="45.3485528" lon="8.669188"><ele>122.60000000000001</ele><time>2026-05-03T09:28:52.171Z</time></trkpt><trkpt lat="45.3486588" lon="8.6691745"><ele>122.80000000000001</ele><time>2026-05-03T09:28:53.171Z</time></trkpt><trkpt lat="45.3487764" lon="8.6691637"><ele>123.0</ele><time>2026-05-03T09:28:54.165Z</time></trkpt><trkpt lat="45.3488858" lon="8.6691554"><ele>123.5</ele><time>2026-05-03T09:28:55.171Z</time></trkpt><trkpt lat="45.3489953" lon="8.6691574"><ele>124.0</ele><time>2026-05-03T09:28:56.17Z</time></trkpt><trkpt lat="45.3491116" lon="8.6691581"><ele>124.5</ele><time>2026-05-03T09:28:57.171Z</time></trkpt><trkpt lat="45.349226" lon="8.6691772"><ele>125.0</ele><time>2026-05-03T09:28:58.171Z</time></trkpt><trkpt lat="45.3493331" lon="8.669204"><ele>125.0</ele><time>2026-05-03T09:28:59.171Z</time></trkpt><trkpt lat="45.3494335" lon="8.6692357"><ele>125.0</ele><time>2026-05-03T09:29:00.171Z</time></trkpt><trkpt lat="45.3495433" lon="8.6692758"><ele>125.0</ele><time>2026-05-03T09:29:01.171Z</time></trkpt><trkpt lat="45.3496557" lon="8.6692847"><ele>125.0</ele><time>2026-05-03T09:29:02.17Z</time></trkpt><trkpt lat="45.3497641" lon="8.669304"><ele>125.0</ele><time>2026-05-03T09:29:03.171Z</time></trkpt><trkpt lat="45.3498757" lon="8.669327"><ele>124.75</ele><time>2026-05-03T09:29:04.171Z</time></trkpt><trkpt lat="45.3499928" lon="8.6693582"><ele>124.5</ele><time>2026-05-03T09:29:05.171Z</time></trkpt><trkpt lat="45.3501068" lon="8.6693716"><ele>124.25</ele><time>2026-05-03T09:29:06.171Z</time></trkpt><trkpt lat="45.3502215" lon="8.6693876"><ele>124.0</ele><time>2026-05-03T09:29:07.17Z</time></trkpt><trkpt lat="45.350334" lon="8.6694164"><ele>124.0</ele><time>2026-05-03T09:29:08.171Z</time></trkpt><trkpt lat="45.3504493" lon="8.6694387"><ele>124.0</ele><time>2026-05-03T09:29:09.17Z</time></trkpt><trkpt lat="45.350563" lon="8.6694591"><ele>124.0</ele><time>2026-05-03T09:29:10.17Z</time></trkpt><trkpt lat="45.350677" lon="8.6694827"><ele>124.0</ele><time>2026-05-03T09:29:11.171Z</time></trkpt><trkpt lat="45.3507925" lon="8.6694961"><ele>123.6</ele><time>2026-05-03T09:29:12.171Z</time></trkpt><trkpt lat="45.3508994" lon="8.6695014"><ele>123.2</ele><time>2026-05-03T09:29:13.17Z</time></trkpt><trkpt lat="45.3510119" lon="8.669499"><ele>122.79999999999998</ele><time>2026-05-03T09:29:14.171Z</time></trkpt><trkpt lat="45.3511202" lon="8.6694959"><ele>122.39999999999999</ele><time>2026-05-03T09:29:15.17Z</time></trkpt><trkpt lat="45.3512278" lon="8.6694827"><ele>122.0</ele><time>2026-05-03T09:29:16.17Z</time></trkpt><trkpt lat="45.3513356" lon="8.6694651"><ele>122.5</ele><time>2026-05-03T09:29:17.17Z</time></trkpt><trkpt lat="45.3514465" lon="8.6694405"><ele>123.0</ele><time>2026-05-03T09:29:18.171Z</time></trkpt><trkpt lat="45.3515627" lon="8.6694095"><ele>123.5</ele><time>2026-05-03T09:29:19.171Z</time></trkpt><trkpt lat="45.3516785" lon="8.6693752"><ele>124.0</ele><time>2026-05-03T09:29:20.171Z</time></trkpt><trkpt lat="45.3518036" lon="8.6693417"><ele>124.0</ele><time>2026-05-03T09:29:21.171Z</time></trkpt><trkpt lat="45.3519226" lon="8.6693095"><ele>124.0</ele><time>2026-05-03T09:29:22.17Z</time></trkpt><trkpt lat="45.3520462" lon="8.6692736"><ele>124.0</ele><time>2026-05-03T09:29:23.171Z</time></trkpt><trkpt lat="45.352171" lon="8.6692426"><ele>124.0</ele><time>2026-05-03T09:29:24.17Z</time></trkpt><trkpt lat="45.3523013" lon="8.669202"><ele>123.75</ele><time>2026-05-03T09:29:25.171Z</time></trkpt><trkpt lat="45.3524324" lon="8.6691674"><ele>123.5</ele><time>2026-05-03T09:29:26.171Z</time></trkpt><trkpt lat="45.3525691" lon="8.6691357"><ele>123.25</ele><time>2026-05-03T09:29:27.171Z</time></trkpt><trkpt lat="45.3527044" lon="8.6691068"><ele>123.0</ele><time>2026-05-03T09:29:28.17Z</time></trkpt><trkpt lat="45.3528455" lon="8.6690709"><ele>123.0</ele><time>2026-05-03T09:29:29.17Z</time></trkpt><trkpt lat="45.3529935" lon="8.6690301"><ele>123.0</ele><time>2026-05-03T09:29:30.171Z</time></trkpt><trkpt lat="45.3531409" lon="8.6689932"><ele>123.0</ele><time>2026-05-03T09:29:31.17Z</time></trkpt><trkpt lat="45.3532869" lon="8.6689569"><ele>123.0</ele><time>2026-05-03T09:29:32.171Z</time></trkpt><trkpt lat="45.3534355" lon="8.6689124"><ele>122.66666666666666</ele><time>2026-05-03T09:29:33.171Z</time></trkpt><trkpt lat="45.3535846" lon="8.6688689"><ele>122.33333333333333</ele><time>2026-05-03T09:29:34.17Z</time></trkpt><trkpt lat="45.3537435" lon="8.668828"><ele>122.0</ele><time>2026-05-03T09:29:35.171Z</time></trkpt><trkpt lat="45.3539048" lon="8.6687871"><ele>122.0</ele><time>2026-05-03T09:29:36.171Z</time></trkpt><trkpt lat="45.3540729" lon="8.668742"><ele>122.0</ele><time>2026-05-03T09:29:37.17Z</time></trkpt><trkpt lat="45.3542435" lon="8.668695"><ele>122.0</ele><time>2026-05-03T09:29:38.17Z</time></trkpt><trkpt lat="45.3544289" lon="8.6686441"><ele>122.0</ele><time>2026-05-03T09:29:39.171Z</time></trkpt><trkpt lat="45.3546149" lon="8.6685876"><ele>122.0</ele><time>2026-05-03T09:29:40.171Z</time></trkpt><trkpt lat="45.3548076" lon="8.6685351"><ele>122.0</ele><time>2026-05-03T09:29:41.171Z</time></trkpt><trkpt lat="45.3550081" lon="8.6684788"><ele>122.0</ele><time>2026-05-03T09:29:42.171Z</time></trkpt><trkpt lat="45.3552147" lon="8.6684212"><ele>122.0</ele><time>2026-05-03T09:29:43.171Z</time></trkpt><trkpt lat="45.355426" lon="8.6683587"><ele>122.0</ele><time>2026-05-03T09:29:44.171Z</time></trkpt><trkpt lat="45.3556454" lon="8.6682958"><ele>121.5</ele><time>2026-05-03T09:29:45.171Z</time></trkpt><trkpt lat="45.3558734" lon="8.6682348"><ele>121.0</ele><time>2026-05-03T09:29:46.17Z</time></trkpt><trkpt lat="45.3561049" lon="8.6681768"><ele>121.0</ele><time>2026-05-03T09:29:47.171Z</time></trkpt><trkpt lat="45.3563374" lon="8.668109"><ele>121.0</ele><time>2026-05-03T09:29:48.171Z</time></trkpt><trkpt lat="45.3565775" lon="8.6680442"><ele>121.0</ele><time>2026-05-03T09:29:49.17Z</time></trkpt><trkpt lat="45.3568216" lon="8.6679823"><ele>121.0</ele><time>2026-05-03T09:29:50.171Z</time></trkpt><trkpt lat="45.3570595" lon="8.6679232"><ele>120.5</ele><time>2026-05-03T09:29:51.171Z</time></trkpt><trkpt lat="45.3572927" lon="8.6678603"><ele>120.0</ele><time>2026-05-03T09:29:52.171Z</time></trkpt><trkpt lat="45.3575225" lon="8.6677968"><ele>120.5</ele><time>2026-05-03T09:29:53.171Z</time></trkpt><trkpt lat="45.3577514" lon="8.6677365"><ele>121.0</ele><time>2026-05-03T09:29:54.171Z</time></trkpt><trkpt lat="45.3579774" lon="8.6676705"><ele>121.5</ele><time>2026-05-03T09:29:55.171Z</time></trkpt><trkpt lat="45.3582038" lon="8.6676101"><ele>122.0</ele><time>2026-05-03T09:29:56.17Z</time></trkpt><trkpt lat="45.358422" lon="8.6675552"><ele>122.0</ele><time>2026-05-03T09:29:57.171Z</time></trkpt><trkpt lat="45.3586375" lon="8.6675007"><ele>122.0</ele><time>2026-05-03T09:29:58.171Z</time></trkpt><trkpt lat="45.3588502" lon="8.6674496"><ele>122.0</ele><time>2026-05-03T09:29:59.171Z</time></trkpt><trkpt lat="45.3590615" lon="8.6673973"><ele>122.33333333333333</ele><time>2026-05-03T09:30:00.171Z</time></trkpt><trkpt lat="45.35927" lon="8.6673389"><ele>122.66666666666666</ele><time>2026-05-03T09:30:01.17Z</time></trkpt><trkpt lat="45.3594725" lon="8.6672818"><ele>123.0</ele><time>2026-05-03T09:30:02.171Z</time></trkpt><trkpt lat="45.3596735" lon="8.6672311"><ele>122.66666666666666</ele><time>2026-05-03T09:30:03.17Z</time></trkpt><trkpt lat="45.3598682" lon="8.6671765"><ele>122.33333333333333</ele><time>2026-05-03T09:30:04.171Z</time></trkpt><trkpt lat="45.3600638" lon="8.667131"><ele>122.0</ele><time>2026-05-03T09:30:05.171Z</time></trkpt><trkpt lat="45.3602555" lon="8.6670803"><ele>122.0</ele><time>2026-05-03T09:30:06.171Z</time></trkpt><trkpt lat="45.3604453" lon="8.667031"><ele>122.0</ele><time>2026-05-03T09:30:07.171Z</time></trkpt><trkpt lat="45.3606334" lon="8.6669816"><ele>122.0</ele><time>2026-05-03T09:30:08.17Z</time></trkpt><trkpt lat="45.3608209" lon="8.666934"><ele>122.33333333333333</ele><time>2026-05-03T09:30:09.17Z</time></trkpt><trkpt lat="45.3610105" lon="8.666891"><ele>122.66666666666666</ele><time>2026-05-03T09:30:10.171Z</time></trkpt><trkpt lat="45.3611923" lon="8.6668463"><ele>123.0</ele><time>2026-05-03T09:30:11.171Z</time></trkpt><trkpt lat="45.361367" lon="8.6667984"><ele>123.0</ele><time>2026-05-03T09:30:12.171Z</time></trkpt><trkpt lat="45.3615439" lon="8.6667471"><ele>123.0</ele><time>2026-05-03T09:30:13.171Z</time></trkpt><trkpt lat="45.3617221" lon="8.6666989"><ele>123.0</ele><time>2026-05-03T09:30:14.171Z</time></trkpt><trkpt lat="45.3619053" lon="8.6666455"><ele>123.0</ele><time>2026-05-03T09:30:15.171Z</time></trkpt><trkpt lat="45.3620896" lon="8.6665943"><ele>123.0</ele><time>2026-05-03T09:30:16.171Z</time></trkpt><trkpt lat="45.3622875" lon="8.6665378"><ele>123.0</ele><time>2026-05-03T09:30:17.17Z</time></trkpt><trkpt lat="45.3624975" lon="8.6664726"><ele>122.5</ele><time>2026-05-03T09:30:18.17Z</time></trkpt><trkpt lat="45.36273" lon="8.6664001"><ele>122.0</ele><time>2026-05-03T09:30:19.17Z</time></trkpt><trkpt lat="45.3629782" lon="8.666334"><ele>122.0</ele><time>2026-05-03T09:30:20.171Z</time></trkpt><trkpt lat="45.3632445" lon="8.6662688"><ele>122.0</ele><time>2026-05-03T09:30:21.17Z</time></trkpt><trkpt lat="45.3635335" lon="8.6662039"><ele>122.0</ele><time>2026-05-03T09:30:22.171Z</time></trkpt><trkpt lat="45.3638197" lon="8.6661443"><ele>122.0</ele><time>2026-05-03T09:30:23.17Z</time></trkpt><trkpt lat="45.3640906" lon="8.6660803"><ele>123.0</ele><time>2026-05-03T09:30:24.171Z</time></trkpt><trkpt lat="45.3643549" lon="8.6660157"><ele>124.0</ele><time>2026-05-03T09:30:25.17Z</time></trkpt><trkpt lat="45.3646067" lon="8.6659459"><ele>124.0</ele><time>2026-05-03T09:30:26.171Z</time></trkpt><trkpt lat="45.3648605" lon="8.665877"><ele>124.0</ele><time>2026-05-03T09:30:27.171Z</time></trkpt><trkpt lat="45.3651113" lon="8.665813"><ele>124.0</ele><time>2026-05-03T09:30:28.17Z</time></trkpt><trkpt lat="45.3653608" lon="8.6657469"><ele>124.0</ele><time>2026-05-03T09:30:29.17Z</time></trkpt><trkpt lat="45.365614" lon="8.6656807"><ele>123.0</ele><time>2026-05-03T09:30:30.17Z</time></trkpt><trkpt lat="45.3658668" lon="8.6656116"><ele>122.0</ele><time>2026-05-03T09:30:31.171Z</time></trkpt><trkpt lat="45.3661182" lon="8.66554"><ele>122.0</ele><time>2026-05-03T09:30:32.171Z</time></trkpt><trkpt lat="45.3663672" lon="8.6654733"><ele>122.0</ele><time>2026-05-03T09:30:33.171Z</time></trkpt><trkpt lat="45.3666172" lon="8.6654043"><ele>122.0</ele><time>2026-05-03T09:30:34.171Z</time></trkpt><trkpt lat="45.36687" lon="8.6653371"><ele>122.0</ele><time>2026-05-03T09:30:35.17Z</time></trkpt><trkpt lat="45.3671221" lon="8.6652729"><ele>122.5</ele><time>2026-05-03T09:30:36.17Z</time></trkpt><trkpt lat="45.3673712" lon="8.6652107"><ele>123.0</ele><time>2026-05-03T09:30:37.171Z</time></trkpt><trkpt lat="45.3676246" lon="8.6651451"><ele>123.0</ele><time>2026-05-03T09:30:38.17Z</time></trkpt><trkpt lat="45.3678718" lon="8.6650789"><ele>123.0</ele><time>2026-05-03T09:30:39.171Z</time></trkpt><trkpt lat="45.3681191" lon="8.6650189"><ele>124.5</ele><time>2026-05-03T09:30:40.171Z</time></trkpt><trkpt lat="45.368365" lon="8.6649533"><ele>126.0</ele><time>2026-05-03T09:30:41.171Z</time></trkpt><trkpt lat="45.3686071" lon="8.6648961"><ele>126.0</ele><time>2026-05-03T09:30:42.171Z</time></trkpt><trkpt lat="45.3688468" lon="8.6648328"><ele>126.0</ele><time>2026-05-03T09:30:43.17Z</time></trkpt><trkpt lat="45.3690862" lon="8.6647724"><ele>125.0</ele><time>2026-05-03T09:30:44.171Z</time></trkpt><trkpt lat="45.3693288" lon="8.6647071"><ele>124.0</ele><time>2026-05-03T09:30:45.17Z</time></trkpt><trkpt lat="45.3695657" lon="8.664642"><ele>123.5</ele><time>2026-05-03T09:30:46.171Z</time></trkpt><trkpt lat="45.3697967" lon="8.6645793"><ele>123.0</ele><time>2026-05-03T09:30:47.171Z</time></trkpt><trkpt lat="45.3700264" lon="8.6645207"><ele>123.0</ele><time>2026-05-03T09:30:48.171Z</time></trkpt><trkpt lat="45.3702528" lon="8.6644625"><ele>123.0</ele><time>2026-05-03T09:30:49.17Z</time></trkpt><trkpt lat="45.3704752" lon="8.6644016"><ele>123.66666666666666</ele><time>2026-05-03T09:30:50.171Z</time></trkpt><trkpt lat="45.3706917" lon="8.6643436"><ele>124.33333333333333</ele><time>2026-05-03T09:30:51.171Z</time></trkpt><trkpt lat="45.3708995" lon="8.6642915"><ele>125.0</ele><time>2026-05-03T09:30:52.171Z</time></trkpt><trkpt lat="45.3711048" lon="8.6642383"><ele>125.0</ele><time>2026-05-03T09:30:53.17Z</time></trkpt><trkpt lat="45.3713077" lon="8.6641882"><ele>125.0</ele><time>2026-05-03T09:30:54.17Z</time></trkpt><trkpt lat="45.3715081" lon="8.6641378"><ele>125.0</ele><time>2026-05-03T09:30:55.17Z</time></trkpt><trkpt lat="45.3717076" lon="8.6640871"><ele>125.0</ele><time>2026-05-03T09:30:56.171Z</time></trkpt><trkpt lat="45.3719062" lon="8.6640349"><ele>125.0</ele><time>2026-05-03T09:30:57.17Z</time></trkpt><trkpt lat="45.3721019" lon="8.6639854"><ele>125.0</ele><time>2026-05-03T09:30:58.171Z</time></trkpt><trkpt lat="45.3722834" lon="8.6639416"><ele>125.0</ele><time>2026-05-03T09:30:59.171Z</time></trkpt><trkpt lat="45.3724538" lon="8.6638972"><ele>125.0</ele><time>2026-05-03T09:31:00.171Z</time></trkpt><trkpt lat="45.3726232" lon="8.6638471"><ele>125.0</ele><time>2026-05-03T09:31:01.17Z</time></trkpt><trkpt lat="45.3727956" lon="8.6638"><ele>125.0</ele><time>2026-05-03T09:31:02.171Z</time></trkpt><trkpt lat="45.3729636" lon="8.6637561"><ele>125.0</ele><time>2026-05-03T09:31:03.171Z</time></trkpt><trkpt lat="45.3731251" lon="8.6637183"><ele>125.0</ele><time>2026-05-03T09:31:04.171Z</time></trkpt><trkpt lat="45.3732767" lon="8.6636784"><ele>125.25</ele><time>2026-05-03T09:31:05.171Z</time></trkpt><trkpt lat="45.3734253" lon="8.6636407"><ele>125.5</ele><time>2026-05-03T09:31:06.171Z</time></trkpt><trkpt lat="45.3735676" lon="8.6636025"><ele>125.75</ele><time>2026-05-03T09:31:07.17Z</time></trkpt><trkpt lat="45.3737021" lon="8.6635676"><ele>126.0</ele><time>2026-05-03T09:31:08.171Z</time></trkpt><trkpt lat="45.3738293" lon="8.6635278"><ele>126.4</ele><time>2026-05-03T09:31:09.171Z</time></trkpt><trkpt lat="45.3739449" lon="8.6634933"><ele>126.8</ele><time>2026-05-03T09:31:10.171Z</time></trkpt><trkpt lat="45.3740542" lon="8.663465"><ele>127.20000000000002</ele><time>2026-05-03T09:31:11.171Z</time></trkpt><trkpt lat="45.3741485" lon="8.6634522"><ele>127.60000000000001</ele><time>2026-05-03T09:31:12.171Z</time></trkpt><trkpt lat="45.374232" lon="8.6634584"><ele>128.0</ele><time>2026-05-03T09:31:13.171Z</time></trkpt><trkpt lat="45.3743074" lon="8.6634807"><ele>128.0</ele><time>2026-05-03T09:31:14.171Z</time></trkpt><trkpt lat="45.3743885" lon="8.6634751"><ele>128.0</ele><time>2026-05-03T09:31:15.171Z</time></trkpt><trkpt lat="45.3744657" lon="8.663421"><ele>128.0</ele><time>2026-05-03T09:31:16.171Z</time></trkpt><trkpt lat="45.3745503" lon="8.66335"><ele>128.0</ele><time>2026-05-03T09:31:17.171Z</time></trkpt><trkpt lat="45.3746648" lon="8.6632968"><ele>128.0</ele><time>2026-05-03T09:31:18.17Z</time></trkpt><trkpt lat="45.3747924" lon="8.6632588"><ele>128.0</ele><time>2026-05-03T09:31:19.17Z</time></trkpt><trkpt lat="45.374928" lon="8.6632306"><ele>128.0</ele><time>2026-05-03T09:31:20.17Z</time></trkpt><trkpt lat="45.3750654" lon="8.663194"><ele>128.0</ele><time>2026-05-03T09:31:21.17Z</time></trkpt><trkpt lat="45.375202" lon="8.6631605"><ele>128.0</ele><time>2026-05-03T09:31:22.17Z</time></trkpt><trkpt lat="45.3753475" lon="8.663125"><ele>128.0</ele><time>2026-05-03T09:31:23.17Z</time></trkpt><trkpt lat="45.375504" lon="8.6630863"><ele>128.0</ele><time>2026-05-03T09:31:24.171Z</time></trkpt><trkpt lat="45.3756645" lon="8.6630454"><ele>128.0</ele><time>2026-05-03T09:31:25.171Z</time></trkpt><trkpt lat="45.3758155" lon="8.6630022"><ele>127.66666666666666</ele><time>2026-05-03T09:31:26.171Z</time></trkpt><trkpt lat="45.3759594" lon="8.6629648"><ele>127.33333333333334</ele><time>2026-05-03T09:31:27.17Z</time></trkpt><trkpt lat="45.3761097" lon="8.6629251"><ele>127.0</ele><time>2026-05-03T09:31:28.171Z</time></trkpt><trkpt lat="45.3762648" lon="8.6628799"><ele>127.0</ele><time>2026-05-03T09:31:29.17Z</time></trkpt><trkpt lat="45.3764297" lon="8.6628301"><ele>127.0</ele><time>2026-05-03T09:31:30.171Z</time></trkpt><trkpt lat="45.3766079" lon="8.6627861"><ele>127.0</ele><time>2026-05-03T09:31:31.171Z</time></trkpt><trkpt lat="45.37679" lon="8.6627364"><ele>127.33333333333334</ele><time>2026-05-03T09:31:32.171Z</time></trkpt><trkpt lat="45.3769824" lon="8.6626833"><ele>127.66666666666666</ele><time>2026-05-03T09:31:33.17Z</time></trkpt><trkpt lat="45.3771853" lon="8.6626229"><ele>128.0</ele><time>2026-05-03T09:31:34.171Z</time></trkpt><trkpt lat="45.3773943" lon="8.6625645"><ele>128.0</ele><time>2026-05-03T09:31:35.171Z</time></trkpt><trkpt lat="45.3776066" lon="8.6625046"><ele>128.0</ele><time>2026-05-03T09:31:36.17Z</time></trkpt><trkpt lat="45.3778237" lon="8.662446"><ele>128.0</ele><time>2026-05-03T09:31:37.171Z</time></trkpt><trkpt lat="45.3780491" lon="8.6623893"><ele>127.5</ele><time>2026-05-03T09:31:38.171Z</time></trkpt><trkpt lat="45.3782763" lon="8.6623242"><ele>127.0</ele><time>2026-05-03T09:31:39.171Z</time></trkpt><trkpt lat="45.3784988" lon="8.6622622"><ele>127.0</ele><time>2026-05-03T09:31:40.171Z</time></trkpt><trkpt lat="45.3787237" lon="8.6622104"><ele>127.0</ele><time>2026-05-03T09:31:41.17Z</time></trkpt><trkpt lat="45.3789527" lon="8.6621561"><ele>127.5</ele><time>2026-05-03T09:31:42.171Z</time></trkpt><trkpt lat="45.3791825" lon="8.6621063"><ele>128.0</ele><time>2026-05-03T09:31:43.171Z</time></trkpt><trkpt lat="45.379405" lon="8.6620513"><ele>128.0</ele><time>2026-05-03T09:31:44.17Z</time></trkpt><trkpt lat="45.3796262" lon="8.6619918"><ele>128.0</ele><time>2026-05-03T09:31:45.171Z</time></trkpt><trkpt lat="45.3798471" lon="8.6619336"><ele>128.33333333333331</ele><time>2026-05-03T09:31:46.17Z</time></trkpt><trkpt lat="45.3800653" lon="8.6618792"><ele>128.66666666666666</ele><time>2026-05-03T09:31:47.17Z</time></trkpt><trkpt lat="45.3802825" lon="8.6618258"><ele>129.0</ele><time>2026-05-03T09:31:48.17Z</time></trkpt><trkpt lat="45.3804996" lon="8.661775"><ele>128.66666666666666</ele><time>2026-05-03T09:31:49.171Z</time></trkpt><trkpt lat="45.3807171" lon="8.6617219"><ele>128.33333333333331</ele><time>2026-05-03T09:31:50.171Z</time></trkpt><trkpt lat="45.3809344" lon="8.661667"><ele>128.0</ele><time>2026-05-03T09:31:51.171Z</time></trkpt><trkpt lat="45.3811498" lon="8.6616131"><ele>128.33333333333331</ele><time>2026-05-03T09:31:52.171Z</time></trkpt><trkpt lat="45.3813608" lon="8.6615556"><ele>128.66666666666666</ele><time>2026-05-03T09:31:53.171Z</time></trkpt><trkpt lat="45.3815654" lon="8.6614985"><ele>129.0</ele><time>2026-05-03T09:31:54.171Z</time></trkpt><trkpt lat="45.3817648" lon="8.6614416"><ele>129.0</ele><time>2026-05-03T09:31:55.171Z</time></trkpt><trkpt lat="45.3819595" lon="8.6613878"><ele>129.0</ele><time>2026-05-03T09:31:56.171Z</time></trkpt><trkpt lat="45.3821443" lon="8.6613422"><ele>129.0</ele><time>2026-05-03T09:31:57.17Z</time></trkpt><trkpt lat="45.3823206" lon="8.6612927"><ele>128.66666666666666</ele><time>2026-05-03T09:31:58.171Z</time></trkpt><trkpt lat="45.3824953" lon="8.6612505"><ele>128.33333333333331</ele><time>2026-05-03T09:31:59.171Z</time></trkpt><trkpt lat="45.3826679" lon="8.6612057"><ele>128.0</ele><time>2026-05-03T09:32:00.17Z</time></trkpt><trkpt lat="45.3828424" lon="8.6611621"><ele>128.0</ele><time>2026-05-03T09:32:01.17Z</time></trkpt><trkpt lat="45.3830066" lon="8.6611207"><ele>128.0</ele><time>2026-05-03T09:32:02.171Z</time></trkpt><trkpt lat="45.3831593" lon="8.6610801"><ele>128.0</ele><time>2026-05-03T09:32:03.171Z</time></trkpt><trkpt lat="45.3833088" lon="8.6610404"><ele>128.25</ele><time>2026-05-03T09:32:04.171Z</time></trkpt><trkpt lat="45.3834558" lon="8.6610002"><ele>128.5</ele><time>2026-05-03T09:32:05.171Z</time></trkpt><trkpt lat="45.3835962" lon="8.6609669"><ele>128.75</ele><time>2026-05-03T09:32:06.17Z</time></trkpt><trkpt lat="45.3837353" lon="8.6609335"><ele>129.0</ele><time>2026-05-03T09:32:07.171Z</time></trkpt><trkpt lat="45.3838729" lon="8.6608965"><ele>129.0</ele><time>2026-05-03T09:32:08.171Z</time></trkpt><trkpt lat="45.3840079" lon="8.6608576"><ele>129.0</ele><time>2026-05-03T09:32:09.171Z</time></trkpt><trkpt lat="45.384146" lon="8.6608189"><ele>129.0</ele><time>2026-05-03T09:32:10.171Z</time></trkpt><trkpt lat="45.3842845" lon="8.6607833"><ele>129.0</ele><time>2026-05-03T09:32:11.171Z</time></trkpt><trkpt lat="45.3844213" lon="8.6607506"><ele>129.0</ele><time>2026-05-03T09:32:12.171Z</time></trkpt><trkpt lat="45.3845541" lon="8.6607181"><ele>129.0</ele><time>2026-05-03T09:32:13.171Z</time></trkpt><trkpt lat="45.3846781" lon="8.6606815"><ele>129.0</ele><time>2026-05-03T09:32:14.171Z</time></trkpt><trkpt lat="45.3847888" lon="8.6606533"><ele>129.0</ele><time>2026-05-03T09:32:15.171Z</time></trkpt><trkpt lat="45.3848861" lon="8.6606238"><ele>129.0</ele><time>2026-05-03T09:32:16.171Z</time></trkpt><trkpt lat="45.3849815" lon="8.6605999"><ele>129.0</ele><time>2026-05-03T09:32:17.171Z</time></trkpt><trkpt lat="45.3850819" lon="8.6605691"><ele>129.0</ele><time>2026-05-03T09:32:18.17Z</time></trkpt><trkpt lat="45.3851904" lon="8.6605386"><ele>129.0</ele><time>2026-05-03T09:32:19.171Z</time></trkpt><trkpt lat="45.3853007" lon="8.6605138"><ele>129.0</ele><time>2026-05-03T09:32:20.171Z</time></trkpt><trkpt lat="45.385413" lon="8.6604851"><ele>129.25</ele><time>2026-05-03T09:32:21.171Z</time></trkpt><trkpt lat="45.3855242" lon="8.66046"><ele>129.5</ele><time>2026-05-03T09:32:22.17Z</time></trkpt><trkpt lat="45.3856403" lon="8.6604395"><ele>129.75</ele><time>2026-05-03T09:32:23.17Z</time></trkpt><trkpt lat="45.3857599" lon="8.6604139"><ele>130.0</ele><time>2026-05-03T09:32:24.17Z</time></trkpt><trkpt lat="45.385878" lon="8.6603932"><ele>130.0</ele><time>2026-05-03T09:32:25.171Z</time></trkpt><trkpt lat="45.3859961" lon="8.6603725"><ele>130.0</ele><time>2026-05-03T09:32:26.171Z</time></trkpt><trkpt lat="45.3861108" lon="8.660348"><ele>130.0</ele><time>2026-05-03T09:32:27.171Z</time></trkpt><trkpt lat="45.3862228" lon="8.6603299"><ele>130.0</ele><time>2026-05-03T09:32:28.17Z</time></trkpt><trkpt lat="45.3863354" lon="8.660315"><ele>130.0</ele><time>2026-05-03T09:32:29.171Z</time></trkpt><trkpt lat="45.386447" lon="8.6602952"><ele>130.0</ele><time>2026-05-03T09:32:30.171Z</time></trkpt><trkpt lat="45.386561" lon="8.6602689"><ele>130.0</ele><time>2026-05-03T09:32:31.171Z</time></trkpt><trkpt lat="45.3866717" lon="8.6602469"><ele>130.0</ele><time>2026-05-03T09:32:32.171Z</time></trkpt><trkpt lat="45.386783" lon="8.6602328"><ele>130.25</ele><time>2026-05-03T09:32:33.17Z</time></trkpt><trkpt lat="45.3868978" lon="8.6602154"><ele>130.5</ele><time>2026-05-03T09:32:34.171Z</time></trkpt><trkpt lat="45.3870106" lon="8.6601938"><ele>130.75</ele><time>2026-05-03T09:32:35.17Z</time></trkpt><trkpt lat="45.3871248" lon="8.6601736"><ele>131.0</ele><time>2026-05-03T09:32:36.171Z</time></trkpt><trkpt lat="45.3872429" lon="8.6601449"><ele>131.0</ele><time>2026-05-03T09:32:37.171Z</time></trkpt><trkpt lat="45.3873627" lon="8.6601082"><ele>131.0</ele><time>2026-05-03T09:32:38.17Z</time></trkpt><trkpt lat="45.3874772" lon="8.6600714"><ele>131.0</ele><time>2026-05-03T09:32:39.17Z</time></trkpt><trkpt lat="45.3875963" lon="8.6600389"><ele>131.0</ele><time>2026-05-03T09:32:40.17Z</time></trkpt><trkpt lat="45.3877184" lon="8.6600176"><ele>131.0</ele><time>2026-05-03T09:32:41.17Z</time></trkpt><trkpt lat="45.387842" lon="8.6599923"><ele>131.0</ele><time>2026-05-03T09:32:42.171Z</time></trkpt><trkpt lat="45.3879644" lon="8.6599628"><ele>131.0</ele><time>2026-05-03T09:32:43.171Z</time></trkpt><trkpt lat="45.3880884" lon="8.6599354"><ele>131.0</ele><time>2026-05-03T09:32:44.171Z</time></trkpt><trkpt lat="45.388214" lon="8.6599215"><ele>131.25</ele><time>2026-05-03T09:32:45.171Z</time></trkpt><trkpt lat="45.3883412" lon="8.6599174"><ele>131.5</ele><time>2026-05-03T09:32:46.171Z</time></trkpt><trkpt lat="45.3884702" lon="8.6599004"><ele>131.75</ele><time>2026-05-03T09:32:47.171Z</time></trkpt><trkpt lat="45.3885951" lon="8.6598906"><ele>132.0</ele><time>2026-05-03T09:32:48.17Z</time></trkpt><trkpt lat="45.3887251" lon="8.6598897"><ele>132.0</ele><time>2026-05-03T09:32:49.17Z</time></trkpt><trkpt lat="45.3888563" lon="8.6598915"><ele>132.0</ele><time>2026-05-03T09:32:50.171Z</time></trkpt><trkpt lat="45.3889886" lon="8.6598977"><ele>132.0</ele><time>2026-05-03T09:32:51.171Z</time></trkpt><trkpt lat="45.3891203" lon="8.6599051"><ele>132.0</ele><time>2026-05-03T09:32:52.17Z</time></trkpt><trkpt lat="45.3892517" lon="8.6599078"><ele>132.0</ele><time>2026-05-03T09:32:53.171Z</time></trkpt><trkpt lat="45.3893865" lon="8.6599137"><ele>132.0</ele><time>2026-05-03T09:32:54.171Z</time></trkpt><trkpt lat="45.3895213" lon="8.6599151"><ele>132.0</ele><time>2026-05-03T09:32:55.17Z</time></trkpt><trkpt lat="45.3896494" lon="8.6599182"><ele>132.0</ele><time>2026-05-03T09:32:56.171Z</time></trkpt><trkpt lat="45.3897738" lon="8.6599182"><ele>131.75</ele><time>2026-05-03T09:32:57.17Z</time></trkpt><trkpt lat="45.3898962" lon="8.6599131"><ele>131.5</ele><time>2026-05-03T09:32:58.171Z</time></trkpt><trkpt lat="45.3900301" lon="8.6599139"><ele>131.25</ele><time>2026-05-03T09:32:59.171Z</time></trkpt><trkpt lat="45.3901614" lon="8.6599177"><ele>131.0</ele><time>2026-05-03T09:33:00.17Z</time></trkpt><trkpt lat="45.3902897" lon="8.6599159"><ele>131.0</ele><time>2026-05-03T09:33:01.17Z</time></trkpt><trkpt lat="45.3904195" lon="8.6599194"><ele>131.0</ele><time>2026-05-03T09:33:02.17Z</time></trkpt><trkpt lat="45.3905475" lon="8.6599251"><ele>131.0</ele><time>2026-05-03T09:33:03.17Z</time></trkpt><trkpt lat="45.3906759" lon="8.6599311"><ele>131.0</ele><time>2026-05-03T09:33:04.17Z</time></trkpt><trkpt lat="45.390804" lon="8.6599354"><ele>131.0</ele><time>2026-05-03T09:33:05.171Z</time></trkpt><trkpt lat="45.3909372" lon="8.6599374"><ele>131.0</ele><time>2026-05-03T09:33:06.171Z</time></trkpt><trkpt lat="45.3910719" lon="8.6599382"><ele>131.0</ele><time>2026-05-03T09:33:07.17Z</time></trkpt><trkpt lat="45.3912079" lon="8.6599351"><ele>131.0</ele><time>2026-05-03T09:33:08.171Z</time></trkpt><trkpt lat="45.3913467" lon="8.6599302"><ele>131.0</ele><time>2026-05-03T09:33:09.171Z</time></trkpt><trkpt lat="45.3914899" lon="8.6599358"><ele>131.0</ele><time>2026-05-03T09:33:10.171Z</time></trkpt><trkpt lat="45.3916396" lon="8.6599368"><ele>131.0</ele><time>2026-05-03T09:33:11.17Z</time></trkpt><trkpt lat="45.3917938" lon="8.6599394"><ele>131.0</ele><time>2026-05-03T09:33:12.171Z</time></trkpt><trkpt lat="45.3919514" lon="8.6599402"><ele>131.0</ele><time>2026-05-03T09:33:13.171Z</time></trkpt><trkpt lat="45.3921137" lon="8.6599468"><ele>131.0</ele><time>2026-05-03T09:33:14.171Z</time></trkpt><trkpt lat="45.3922787" lon="8.6599521"><ele>131.0</ele><time>2026-05-03T09:33:15.17Z</time></trkpt><trkpt lat="45.3924485" lon="8.659955"><ele>131.0</ele><time>2026-05-03T09:33:16.17Z</time></trkpt><trkpt lat="45.3926145" lon="8.6599578"><ele>131.0</ele><time>2026-05-03T09:33:17.171Z</time></trkpt><trkpt lat="45.3927757" lon="8.6599578"><ele>131.0</ele><time>2026-05-03T09:33:18.17Z</time></trkpt><trkpt lat="45.392931" lon="8.6599596"><ele>131.33333333333331</ele><time>2026-05-03T09:33:19.171Z</time></trkpt><trkpt lat="45.3930852" lon="8.6599536"><ele>131.66666666666666</ele><time>2026-05-03T09:33:20.171Z</time></trkpt><trkpt lat="45.3932439" lon="8.6599551"><ele>132.0</ele><time>2026-05-03T09:33:21.17Z</time></trkpt><trkpt lat="45.3934015" lon="8.6599579"><ele>132.0</ele><time>2026-05-03T09:33:22.171Z</time></trkpt><trkpt lat="45.3935582" lon="8.6599629"><ele>132.0</ele><time>2026-05-03T09:33:23.171Z</time></trkpt><trkpt lat="45.3937132" lon="8.6599657"><ele>132.0</ele><time>2026-05-03T09:33:24.17Z</time></trkpt><trkpt lat="45.393869" lon="8.6599716"><ele>131.66666666666666</ele><time>2026-05-03T09:33:25.17Z</time></trkpt><trkpt lat="45.3940276" lon="8.6599757"><ele>131.33333333333331</ele><time>2026-05-03T09:33:26.171Z</time></trkpt><trkpt lat="45.3941937" lon="8.6599788"><ele>131.0</ele><time>2026-05-03T09:33:27.171Z</time></trkpt><trkpt lat="45.3943689" lon="8.6599774"><ele>131.0</ele><time>2026-05-03T09:33:28.171Z</time></trkpt><trkpt lat="45.3945555" lon="8.6599769"><ele>131.0</ele><time>2026-05-03T09:33:29.171Z</time></trkpt><trkpt lat="45.39475" lon="8.6599766"><ele>131.0</ele><time>2026-05-03T09:33:30.17Z</time></trkpt><trkpt lat="45.3949555" lon="8.6599802"><ele>130.66666666666666</ele><time>2026-05-03T09:33:31.17Z</time></trkpt><trkpt lat="45.3951696" lon="8.6599825"><ele>130.33333333333334</ele><time>2026-05-03T09:33:32.171Z</time></trkpt><trkpt lat="45.3953895" lon="8.6599906"><ele>130.0</ele><time>2026-05-03T09:33:33.171Z</time></trkpt><trkpt lat="45.3956202" lon="8.6599918"><ele>129.5</ele><time>2026-05-03T09:33:34.17Z</time></trkpt><trkpt lat="45.3958521" lon="8.6599974"><ele>129.0</ele><time>2026-05-03T09:33:35.17Z</time></trkpt><trkpt lat="45.3960842" lon="8.6600021"><ele>129.0</ele><time>2026-05-03T09:33:36.171Z</time></trkpt><trkpt lat="45.396319" lon="8.6600023"><ele>129.0</ele><time>2026-05-03T09:33:37.17Z</time></trkpt><trkpt lat="45.396557" lon="8.6600036"><ele>130.0</ele><time>2026-05-03T09:33:38.17Z</time></trkpt><trkpt lat="45.3968" lon="8.6600085"><ele>131.0</ele><time>2026-05-03T09:33:39.171Z</time></trkpt><trkpt lat="45.3970469" lon="8.6600113"><ele>131.0</ele><time>2026-05-03T09:33:40.17Z</time></trkpt><trkpt lat="45.3972932" lon="8.6600147"><ele>131.0</ele><time>2026-05-03T09:33:41.171Z</time></trkpt><trkpt lat="45.3975402" lon="8.6600148"><ele>131.0</ele><time>2026-05-03T09:33:42.17Z</time></trkpt><trkpt lat="45.3977892" lon="8.6600166"><ele>131.0</ele><time>2026-05-03T09:33:43.17Z</time></trkpt><trkpt lat="45.3980407" lon="8.6600209"><ele>132.5</ele><time>2026-05-03T09:33:44.171Z</time></trkpt><trkpt lat="45.3982891" lon="8.6600222"><ele>134.0</ele><time>2026-05-03T09:33:45.171Z</time></trkpt><trkpt lat="45.3985398" lon="8.6600208"><ele>134.0</ele><time>2026-05-03T09:33:46.17Z</time></trkpt><trkpt lat="45.3987938" lon="8.6600177"><ele>134.0</ele><time>2026-05-03T09:33:47.171Z</time></trkpt><trkpt lat="45.3990431" lon="8.6600269"><ele>134.5</ele><time>2026-05-03T09:33:48.171Z</time></trkpt><trkpt lat="45.3992919" lon="8.6600332"><ele>135.0</ele><time>2026-05-03T09:33:49.171Z</time></trkpt><trkpt lat="45.3995406" lon="8.6600358"><ele>136.5</ele><time>2026-05-03T09:33:50.171Z</time></trkpt><trkpt lat="45.3997824" lon="8.660036"><ele>138.0</ele><time>2026-05-03T09:33:51.171Z</time></trkpt><trkpt lat="45.4000242" lon="8.6600413"><ele>138.0</ele><time>2026-05-03T09:33:52.17Z</time></trkpt><trkpt lat="45.4002637" lon="8.6600408"><ele>138.0</ele><time>2026-05-03T09:33:53.17Z</time></trkpt><trkpt lat="45.4005045" lon="8.6600462"><ele>137.0</ele><time>2026-05-03T09:33:54.171Z</time></trkpt><trkpt lat="45.4007472" lon="8.6600517"><ele>136.0</ele><time>2026-05-03T09:33:55.17Z</time></trkpt><trkpt lat="45.4009911" lon="8.6600551"><ele>136.0</ele><time>2026-05-03T09:33:56.17Z</time></trkpt><trkpt lat="45.4012352" lon="8.66006"><ele>136.0</ele><time>2026-05-03T09:33:57.17Z</time></trkpt><trkpt lat="45.4014788" lon="8.660062"><ele>135.5</ele><time>2026-05-03T09:33:58.171Z</time></trkpt><trkpt lat="45.4017231" lon="8.6600679"><ele>135.0</ele><time>2026-05-03T09:33:59.171Z</time></trkpt><trkpt lat="45.4019677" lon="8.660072"><ele>135.0</ele><time>2026-05-03T09:34:00.171Z</time></trkpt><trkpt lat="45.4022117" lon="8.6600744"><ele>135.0</ele><time>2026-05-03T09:34:01.17Z</time></trkpt><trkpt lat="45.4024538" lon="8.6600749"><ele>135.0</ele><time>2026-05-03T09:34:02.17Z</time></trkpt><trkpt lat="45.4026967" lon="8.6600767"><ele>135.0</ele><time>2026-05-03T09:34:03.171Z</time></trkpt><trkpt lat="45.4029393" lon="8.6600798"><ele>135.0</ele><time>2026-05-03T09:34:04.171Z</time></trkpt><trkpt lat="45.4031823" lon="8.6600789"><ele>135.0</ele><time>2026-05-03T09:34:05.171Z</time></trkpt><trkpt lat="45.4034212" lon="8.6600796"><ele>135.0</ele><time>2026-05-03T09:34:06.171Z</time></trkpt><trkpt lat="45.4036543" lon="8.6600807"><ele>135.0</ele><time>2026-05-03T09:34:07.17Z</time></trkpt><trkpt lat="45.4038755" lon="8.660084"><ele>136.0</ele><time>2026-05-03T09:34:08.171Z</time></trkpt><trkpt lat="45.4040919" lon="8.6600884"><ele>137.0</ele><time>2026-05-03T09:34:09.17Z</time></trkpt><trkpt lat="45.4043006" lon="8.6600752"><ele>138.0</ele><time>2026-05-03T09:34:10.171Z</time></trkpt><trkpt lat="45.4045052" lon="8.6600479"><ele>138.66666666666666</ele><time>2026-05-03T09:34:11.17Z</time></trkpt><trkpt lat="45.4047058" lon="8.6599863"><ele>139.33333333333331</ele><time>2026-05-03T09:34:12.171Z</time></trkpt><trkpt lat="45.4049021" lon="8.6599091"><ele>140.0</ele><time>2026-05-03T09:34:13.171Z</time></trkpt><trkpt lat="45.4050985" lon="8.6598001"><ele>140.0</ele><time>2026-05-03T09:34:14.17Z</time></trkpt><trkpt lat="45.4052935" lon="8.659665"><ele>140.0</ele><time>2026-05-03T09:34:15.17Z</time></trkpt><trkpt lat="45.4054935" lon="8.6595128"><ele>140.0</ele><time>2026-05-03T09:34:16.17Z</time></trkpt><trkpt lat="45.4057033" lon="8.6593508"><ele>140.0</ele><time>2026-05-03T09:34:17.171Z</time></trkpt><trkpt lat="45.4059151" lon="8.659182"><ele>140.0</ele><time>2026-05-03T09:34:18.171Z</time></trkpt><trkpt lat="45.4061281" lon="8.6590122"><ele>140.0</ele><time>2026-05-03T09:34:19.171Z</time></trkpt><trkpt lat="45.4063437" lon="8.6588416"><ele>140.0</ele><time>2026-05-03T09:34:20.17Z</time></trkpt><trkpt lat="45.406558" lon="8.6586756"><ele>140.0</ele><time>2026-05-03T09:34:21.17Z</time></trkpt><trkpt lat="45.4067739" lon="8.6585074"><ele>140.0</ele><time>2026-05-03T09:34:22.17Z</time></trkpt><trkpt lat="45.406987" lon="8.6583367"><ele>141.5</ele><time>2026-05-03T09:34:23.171Z</time></trkpt><trkpt lat="45.4072007" lon="8.6581656"><ele>143.0</ele><time>2026-05-03T09:34:24.171Z</time></trkpt><trkpt lat="45.4074131" lon="8.6579969"><ele>143.0</ele><time>2026-05-03T09:34:25.171Z</time></trkpt><trkpt lat="45.4076252" lon="8.6578298"><ele>143.0</ele><time>2026-05-03T09:34:26.171Z</time></trkpt><trkpt lat="45.4078382" lon="8.6576654"><ele>143.0</ele><time>2026-05-03T09:34:27.17Z</time></trkpt><trkpt lat="45.4080455" lon="8.6575009"><ele>143.0</ele><time>2026-05-03T09:34:28.17Z</time></trkpt><trkpt lat="45.4082538" lon="8.6573339"><ele>143.0</ele><time>2026-05-03T09:34:29.171Z</time></trkpt><trkpt lat="45.4084593" lon="8.6571694"><ele>143.0</ele><time>2026-05-03T09:34:30.171Z</time></trkpt><trkpt lat="45.4086608" lon="8.657005"><ele>143.0</ele><time>2026-05-03T09:34:31.171Z</time></trkpt><trkpt lat="45.4088601" lon="8.6568463"><ele>143.0</ele><time>2026-05-03T09:34:32.171Z</time></trkpt><trkpt lat="45.4090586" lon="8.6566904"><ele>143.0</ele><time>2026-05-03T09:34:33.171Z</time></trkpt><trkpt lat="45.4092551" lon="8.656532"><ele>143.0</ele><time>2026-05-03T09:34:34.171Z</time></trkpt><trkpt lat="45.4094518" lon="8.6563779"><ele>143.0</ele><time>2026-05-03T09:34:35.171Z</time></trkpt><trkpt lat="45.4096426" lon="8.6562259"><ele>143.0</ele><time>2026-05-03T09:34:36.171Z</time></trkpt><trkpt lat="45.4098357" lon="8.6560753"><ele>143.0</ele><time>2026-05-03T09:34:37.171Z</time></trkpt><trkpt lat="45.4100231" lon="8.6559295"><ele>142.66666666666666</ele><time>2026-05-03T09:34:38.17Z</time></trkpt><trkpt lat="45.4102064" lon="8.6557816"><ele>142.33333333333334</ele><time>2026-05-03T09:34:39.17Z</time></trkpt><trkpt lat="45.4103882" lon="8.6556371"><ele>142.0</ele><time>2026-05-03T09:34:40.171Z</time></trkpt><trkpt lat="45.4105672" lon="8.6554921"><ele>142.0</ele><time>2026-05-03T09:34:41.171Z</time></trkpt><trkpt lat="45.4107371" lon="8.6553545"><ele>142.0</ele><time>2026-05-03T09:34:42.17Z</time></trkpt><trkpt lat="45.4109044" lon="8.6552197"><ele>142.0</ele><time>2026-05-03T09:34:43.17Z</time></trkpt><trkpt lat="45.4110692" lon="8.6550846"><ele>141.66666666666669</ele><time>2026-05-03T09:34:44.17Z</time></trkpt><trkpt lat="45.4112228" lon="8.6549647"><ele>141.33333333333334</ele><time>2026-05-03T09:34:45.171Z</time></trkpt><trkpt lat="45.4113674" lon="8.6548438"><ele>141.0</ele><time>2026-05-03T09:34:46.17Z</time></trkpt><trkpt lat="45.4115025" lon="8.654741"><ele>141.0</ele><time>2026-05-03T09:34:47.171Z</time></trkpt><trkpt lat="45.4116329" lon="8.6546506"><ele>141.0</ele><time>2026-05-03T09:34:48.171Z</time></trkpt><trkpt lat="45.4117599" lon="8.6545832"><ele>141.0</ele><time>2026-05-03T09:34:49.171Z</time></trkpt><trkpt lat="45.4118856" lon="8.6545424"><ele>141.0</ele><time>2026-05-03T09:34:50.171Z</time></trkpt><trkpt lat="45.4120003" lon="8.6545232"><ele>141.0</ele><time>2026-05-03T09:34:51.171Z</time></trkpt><trkpt lat="45.4121038" lon="8.65447"><ele>141.0</ele><time>2026-05-03T09:34:52.171Z</time></trkpt><trkpt lat="45.4121961" lon="8.6543764"><ele>141.0</ele><time>2026-05-03T09:34:53.17Z</time></trkpt><trkpt lat="45.4122796" lon="8.654247"><ele>141.0</ele><time>2026-05-03T09:34:54.17Z</time></trkpt><trkpt lat="45.4123662" lon="8.6541112"><ele>142.0</ele><time>2026-05-03T09:34:55.171Z</time></trkpt><trkpt lat="45.4124719" lon="8.653986"><ele>143.0</ele><time>2026-05-03T09:34:56.171Z</time></trkpt><trkpt lat="45.4126077" lon="8.6538841"><ele>144.0</ele><time>2026-05-03T09:34:57.171Z</time></trkpt><trkpt lat="45.4127564" lon="8.6537835"><ele>144.0</ele><time>2026-05-03T09:34:58.171Z</time></trkpt><trkpt lat="45.4129171" lon="8.6536605"><ele>144.0</ele><time>2026-05-03T09:34:59.171Z</time></trkpt><trkpt lat="45.413084" lon="8.6535292"><ele>144.0</ele><time>2026-05-03T09:35:00.171Z</time></trkpt><trkpt lat="45.4132401" lon="8.6533976"><ele>144.33333333333334</ele><time>2026-05-03T09:35:01.171Z</time></trkpt><trkpt lat="45.4134045" lon="8.6532585"><ele>144.66666666666669</ele><time>2026-05-03T09:35:02.171Z</time></trkpt><trkpt lat="45.4135768" lon="8.6531178"><ele>145.0</ele><time>2026-05-03T09:35:03.171Z</time></trkpt><trkpt lat="45.4137628" lon="8.6529622"><ele>144.66666666666669</ele><time>2026-05-03T09:35:04.17Z</time></trkpt><trkpt lat="45.4139584" lon="8.6528044"><ele>144.33333333333334</ele><time>2026-05-03T09:35:05.171Z</time></trkpt><trkpt lat="45.4141541" lon="8.6526532"><ele>144.0</ele><time>2026-05-03T09:35:06.171Z</time></trkpt><trkpt lat="45.414342" lon="8.6525078"><ele>144.0</ele><time>2026-05-03T09:35:07.171Z</time></trkpt><trkpt lat="45.4145348" lon="8.6523568"><ele>144.0</ele><time>2026-05-03T09:35:08.171Z</time></trkpt><trkpt lat="45.4147224" lon="8.6522081"><ele>144.0</ele><time>2026-05-03T09:35:09.171Z</time></trkpt><trkpt lat="45.4149063" lon="8.6520632"><ele>145.0</ele><time>2026-05-03T09:35:10.17Z</time></trkpt><trkpt lat="45.4150803" lon="8.6519191"><ele>146.0</ele><time>2026-05-03T09:35:11.171Z</time></trkpt><trkpt lat="45.41525" lon="8.6517772"><ele>147.0</ele><time>2026-05-03T09:35:12.171Z</time></trkpt><trkpt lat="45.4154246" lon="8.65164"><ele>147.33333333333334</ele><time>2026-05-03T09:35:13.171Z</time></trkpt><trkpt lat="45.4156034" lon="8.6514966"><ele>147.66666666666669</ele><time>2026-05-03T09:35:14.171Z</time></trkpt><trkpt lat="45.4157825" lon="8.6513584"><ele>148.0</ele><time>2026-05-03T09:35:15.171Z</time></trkpt><trkpt lat="45.4159595" lon="8.6512182"><ele>148.0</ele><time>2026-05-03T09:35:16.171Z</time></trkpt><trkpt lat="45.416134" lon="8.6510801"><ele>148.0</ele><time>2026-05-03T09:35:17.171Z</time></trkpt><trkpt lat="45.4163036" lon="8.6509513"><ele>148.0</ele><time>2026-05-03T09:35:18.171Z</time></trkpt><trkpt lat="45.4164611" lon="8.6508269"><ele>148.0</ele><time>2026-05-03T09:35:19.171Z</time></trkpt><trkpt lat="45.4166147" lon="8.6507049"><ele>148.0</ele><time>2026-05-03T09:35:20.17Z</time></trkpt><trkpt lat="45.4167701" lon="8.6505829"><ele>148.0</ele><time>2026-05-03T09:35:21.171Z</time></trkpt><trkpt lat="45.4169304" lon="8.6504521"><ele>148.0</ele><time>2026-05-03T09:35:22.171Z</time></trkpt><trkpt lat="45.4170906" lon="8.6503217"><ele>148.0</ele><time>2026-05-03T09:35:23.17Z</time></trkpt><trkpt lat="45.4172502" lon="8.6501917"><ele>148.0</ele><time>2026-05-03T09:35:24.17Z</time></trkpt><trkpt lat="45.4174101" lon="8.6500664"><ele>147.66666666666669</ele><time>2026-05-03T09:35:25.171Z</time></trkpt><trkpt lat="45.4175686" lon="8.649941"><ele>147.33333333333334</ele><time>2026-05-03T09:35:26.17Z</time></trkpt><trkpt lat="45.4177253" lon="8.6498186"><ele>147.0</ele><time>2026-05-03T09:35:27.171Z</time></trkpt><trkpt lat="45.4178832" lon="8.6496932"><ele>147.0</ele><time>2026-05-03T09:35:28.171Z</time></trkpt><trkpt lat="45.4180309" lon="8.6495725"><ele>147.0</ele><time>2026-05-03T09:35:29.171Z</time></trkpt><trkpt lat="45.4181721" lon="8.6494655"><ele>147.0</ele><time>2026-05-03T09:35:30.17Z</time></trkpt><trkpt lat="45.418309" lon="8.6493541"><ele>147.0</ele><time>2026-05-03T09:35:31.171Z</time></trkpt><trkpt lat="45.4184471" lon="8.6492393"><ele>147.0</ele><time>2026-05-03T09:35:32.171Z</time></trkpt><trkpt lat="45.4185859" lon="8.6491276"><ele>147.0</ele><time>2026-05-03T09:35:33.171Z</time></trkpt><trkpt lat="45.4187243" lon="8.6490171"><ele>147.0</ele><time>2026-05-03T09:35:34.17Z</time></trkpt><trkpt lat="45.4188649" lon="8.6489028"><ele>147.0</ele><time>2026-05-03T09:35:35.17Z</time></trkpt><trkpt lat="45.4190046" lon="8.6487919"><ele>147.0</ele><time>2026-05-03T09:35:36.17Z</time></trkpt><trkpt lat="45.4191408" lon="8.6486872"><ele>147.0</ele><time>2026-05-03T09:35:37.171Z</time></trkpt><trkpt lat="45.419277" lon="8.6485765"><ele>147.0</ele><time>2026-05-03T09:35:38.17Z</time></trkpt><trkpt lat="45.4194118" lon="8.6484725"><ele>147.0</ele><time>2026-05-03T09:35:39.17Z</time></trkpt><trkpt lat="45.419546" lon="8.6483673"><ele>146.75</ele><time>2026-05-03T09:35:40.17Z</time></trkpt><trkpt lat="45.4196783" lon="8.6482609"><ele>146.5</ele><time>2026-05-03T09:35:41.17Z</time></trkpt><trkpt lat="45.419801" lon="8.6481609"><ele>146.25</ele><time>2026-05-03T09:35:42.171Z</time></trkpt><trkpt lat="45.4199239" lon="8.6480629"><ele>146.0</ele><time>2026-05-03T09:35:43.171Z</time></trkpt><trkpt lat="45.4200465" lon="8.6479674"><ele>146.0</ele><time>2026-05-03T09:35:44.171Z</time></trkpt><trkpt lat="45.4201697" lon="8.647867"><ele>146.0</ele><time>2026-05-03T09:35:45.17Z</time></trkpt><trkpt lat="45.4202993" lon="8.6477624"><ele>146.0</ele><time>2026-05-03T09:35:46.17Z</time></trkpt><trkpt lat="45.4204374" lon="8.6476585"><ele>146.0</ele><time>2026-05-03T09:35:47.17Z</time></trkpt><trkpt lat="45.4205733" lon="8.6475547"><ele>146.66666666666666</ele><time>2026-05-03T09:35:48.171Z</time></trkpt><trkpt lat="45.4207115" lon="8.6474539"><ele>147.33333333333334</ele><time>2026-05-03T09:35:49.171Z</time></trkpt><trkpt lat="45.4208434" lon="8.6473486"><ele>148.0</ele><time>2026-05-03T09:35:50.171Z</time></trkpt><trkpt lat="45.4209761" lon="8.6472457"><ele>148.0</ele><time>2026-05-03T09:35:51.17Z</time></trkpt><trkpt lat="45.4211079" lon="8.6471354"><ele>148.0</ele><time>2026-05-03T09:35:52.171Z</time></trkpt><trkpt lat="45.4212455" lon="8.6470237"><ele>148.0</ele><time>2026-05-03T09:35:53.171Z</time></trkpt><trkpt lat="45.4213816" lon="8.6469133"><ele>148.33333333333334</ele><time>2026-05-03T09:35:54.17Z</time></trkpt><trkpt lat="45.4215203" lon="8.646802"><ele>148.66666666666666</ele><time>2026-05-03T09:35:55.171Z</time></trkpt><trkpt lat="45.4216653" lon="8.6466882"><ele>149.0</ele><time>2026-05-03T09:35:56.171Z</time></trkpt><trkpt lat="45.421806" lon="8.6465789"><ele>149.0</ele><time>2026-05-03T09:35:57.171Z</time></trkpt><trkpt lat="45.4219389" lon="8.6464762"><ele>149.0</ele><time>2026-05-03T09:35:58.17Z</time></trkpt><trkpt lat="45.4220637" lon="8.6463766"><ele>149.0</ele><time>2026-05-03T09:35:59.17Z</time></trkpt><trkpt lat="45.4221887" lon="8.6462823"><ele>149.0</ele><time>2026-05-03T09:36:00.171Z</time></trkpt><trkpt lat="45.4223157" lon="8.6461838"><ele>149.75</ele><time>2026-05-03T09:36:01.171Z</time></trkpt><trkpt lat="45.422439" lon="8.6460834"><ele>150.5</ele><time>2026-05-03T09:36:02.171Z</time></trkpt><trkpt lat="45.4225617" lon="8.6459861"><ele>151.25</ele><time>2026-05-03T09:36:03.17Z</time></trkpt><trkpt lat="45.4226778" lon="8.6458967"><ele>152.0</ele><time>2026-05-03T09:36:04.171Z</time></trkpt><trkpt lat="45.4227901" lon="8.6458114"><ele>152.0</ele><time>2026-05-03T09:36:05.17Z</time></trkpt><trkpt lat="45.422894" lon="8.6457254"><ele>152.0</ele><time>2026-05-03T09:36:06.169Z</time></trkpt><trkpt lat="45.4230004" lon="8.6456436"><ele>152.0</ele><time>2026-05-03T09:36:07.17Z</time></trkpt><trkpt lat="45.4231057" lon="8.6455653"><ele>152.0</ele><time>2026-05-03T09:36:08.17Z</time></trkpt><trkpt lat="45.4232153" lon="8.6454853"><ele>151.75</ele><time>2026-05-03T09:36:09.17Z</time></trkpt><trkpt lat="45.4233205" lon="8.6454005"><ele>151.5</ele><time>2026-05-03T09:36:10.17Z</time></trkpt><trkpt lat="45.4234264" lon="8.6453157"><ele>151.25</ele><time>2026-05-03T09:36:11.17Z</time></trkpt><trkpt lat="45.4235312" lon="8.6452273"><ele>151.0</ele><time>2026-05-03T09:36:12.17Z</time></trkpt><trkpt lat="45.4236352" lon="8.6451448"><ele>151.0</ele><time>2026-05-03T09:36:13.17Z</time></trkpt><trkpt lat="45.4237336" lon="8.645064"><ele>151.0</ele><time>2026-05-03T09:36:14.17Z</time></trkpt><trkpt lat="45.4238246" lon="8.6449948"><ele>151.0</ele><time>2026-05-03T09:36:15.169Z</time></trkpt><trkpt lat="45.4239125" lon="8.6449277"><ele>151.0</ele><time>2026-05-03T09:36:16.17Z</time></trkpt><trkpt lat="45.4239994" lon="8.6448667"><ele>151.0</ele><time>2026-05-03T09:36:17.17Z</time></trkpt><trkpt lat="45.4240813" lon="8.6448023"><ele>151.33333333333334</ele><time>2026-05-03T09:36:18.17Z</time></trkpt><trkpt lat="45.4241593" lon="8.644736"><ele>151.66666666666669</ele><time>2026-05-03T09:36:19.17Z</time></trkpt><trkpt lat="45.4242372" lon="8.6446722"><ele>152.0</ele><time>2026-05-03T09:36:20.17Z</time></trkpt><trkpt lat="45.4243074" lon="8.6446128"><ele>152.33333333333334</ele><time>2026-05-03T09:36:21.169Z</time></trkpt><trkpt lat="45.4243764" lon="8.6445542"><ele>152.66666666666666</ele><time>2026-05-03T09:36:22.17Z</time></trkpt><trkpt lat="45.4244389" lon="8.6445035"><ele>153.0</ele><time>2026-05-03T09:36:23.17Z</time></trkpt><trkpt lat="45.4244987" lon="8.6444601"><ele>153.0</ele><time>2026-05-03T09:36:24.17Z</time></trkpt><trkpt lat="45.4245564" lon="8.6444192"><ele>153.0</ele><time>2026-05-03T09:36:25.17Z</time></trkpt><trkpt lat="45.4246176" lon="8.6443698"><ele>153.0</ele><time>2026-05-03T09:36:26.17Z</time></trkpt><trkpt lat="45.4246886" lon="8.6443182"><ele>153.0</ele><time>2026-05-03T09:36:27.17Z</time></trkpt><trkpt lat="45.4247598" lon="8.6442557"><ele>153.0</ele><time>2026-05-03T09:36:28.17Z</time></trkpt><trkpt lat="45.4248348" lon="8.6441896"><ele>153.0</ele><time>2026-05-03T09:36:29.169Z</time></trkpt><trkpt lat="45.4249153" lon="8.6441324"><ele>153.4</ele><time>2026-05-03T09:36:30.17Z</time></trkpt><trkpt lat="45.4249941" lon="8.6440696"><ele>153.8</ele><time>2026-05-03T09:36:31.169Z</time></trkpt><trkpt lat="45.4250773" lon="8.6440122"><ele>154.2</ele><time>2026-05-03T09:36:32.17Z</time></trkpt><trkpt lat="45.4251632" lon="8.6439457"><ele>154.6</ele><time>2026-05-03T09:36:33.169Z</time></trkpt><trkpt lat="45.4252498" lon="8.6438776"><ele>155.0</ele><time>2026-05-03T09:36:34.17Z</time></trkpt><trkpt lat="45.4253298" lon="8.6438151"><ele>155.0</ele><time>2026-05-03T09:36:35.169Z</time></trkpt><trkpt lat="45.4254028" lon="8.6437574"><ele>155.0</ele><time>2026-05-03T09:36:36.169Z</time></trkpt><trkpt lat="45.4254753" lon="8.6436939"><ele>155.0</ele><time>2026-05-03T09:36:37.17Z</time></trkpt><trkpt lat="45.425564" lon="8.6436223"><ele>155.0</ele><time>2026-05-03T09:36:38.17Z</time></trkpt><trkpt lat="45.4256623" lon="8.6435394"><ele>155.0</ele><time>2026-05-03T09:36:39.169Z</time></trkpt><trkpt lat="45.4257633" lon="8.6434579"><ele>154.83333333333331</ele><time>2026-05-03T09:36:40.17Z</time></trkpt><trkpt lat="45.4258557" lon="8.6433779"><ele>154.66666666666666</ele><time>2026-05-03T09:36:41.17Z</time></trkpt><trkpt lat="45.4259407" lon="8.6433074"><ele>154.5</ele><time>2026-05-03T09:36:42.17Z</time></trkpt><trkpt lat="45.4260163" lon="8.643249"><ele>154.33333333333334</ele><time>2026-05-03T09:36:43.17Z</time></trkpt><trkpt lat="45.4260855" lon="8.6431911"><ele>154.16666666666669</ele><time>2026-05-03T09:36:44.169Z</time></trkpt><trkpt lat="45.4261499" lon="8.6431338"><ele>154.0</ele><time>2026-05-03T09:36:45.17Z</time></trkpt><trkpt lat="45.4262202" lon="8.6430804"><ele>154.0</ele><time>2026-05-03T09:36:46.17Z</time></trkpt><trkpt lat="45.4262948" lon="8.6430326"><ele>154.0</ele><time>2026-05-03T09:36:47.17Z</time></trkpt><trkpt lat="45.4263614" lon="8.6429836"><ele>154.0</ele><time>2026-05-03T09:36:48.17Z</time></trkpt><trkpt lat="45.4264168" lon="8.6429363"><ele>154.0</ele><time>2026-05-03T09:36:49.17Z</time></trkpt><trkpt lat="45.4264803" lon="8.642879"><ele>154.0</ele><time>2026-05-03T09:36:50.17Z</time></trkpt><trkpt lat="45.4265571" lon="8.6428078"><ele>154.0</ele><time>2026-05-03T09:36:51.169Z</time></trkpt><trkpt lat="45.4266496" lon="8.6427351"><ele>154.5</ele><time>2026-05-03T09:36:52.169Z</time></trkpt><trkpt lat="45.426755" lon="8.64265"><ele>155.0</ele><time>2026-05-03T09:36:53.17Z</time></trkpt><trkpt lat="45.4268701" lon="8.6425705"><ele>155.5</ele><time>2026-05-03T09:36:54.17Z</time></trkpt><trkpt lat="45.4269842" lon="8.6424852"><ele>156.0</ele><time>2026-05-03T09:36:55.17Z</time></trkpt><trkpt lat="45.4270985" lon="8.6423978"><ele>156.25</ele><time>2026-05-03T09:36:56.17Z</time></trkpt><trkpt lat="45.4272102" lon="8.6423099"><ele>156.5</ele><time>2026-05-03T09:36:57.169Z</time></trkpt><trkpt lat="45.4273177" lon="8.6422257"><ele>156.75</ele><time>2026-05-03T09:36:58.169Z</time></trkpt><trkpt lat="45.4274196" lon="8.6421433"><ele>157.0</ele><time>2026-05-03T09:36:59.17Z</time></trkpt><trkpt lat="45.4275118" lon="8.6420658"><ele>157.0</ele><time>2026-05-03T09:37:00.17Z</time></trkpt><trkpt lat="45.4275932" lon="8.6419987"><ele>157.0</ele><time>2026-05-03T09:37:01.169Z</time></trkpt><trkpt lat="45.4276705" lon="8.6419444"><ele>157.0</ele><time>2026-05-03T09:37:02.17Z</time></trkpt><trkpt lat="45.4277333" lon="8.6418991"><ele>157.0</ele><time>2026-05-03T09:37:03.17Z</time></trkpt><trkpt lat="45.427827" lon="8.6418402"><ele>157.0</ele><time>2026-05-03T09:37:05.169Z</time></trkpt><trkpt lat="45.4279272" lon="8.6417811"><ele>156.79999999999998</ele><time>2026-05-03T09:37:07.17Z</time></trkpt><trkpt lat="45.427987" lon="8.641727"><ele>156.6</ele><time>2026-05-03T09:37:08.17Z</time></trkpt><trkpt lat="45.4280612" lon="8.6416736"><ele>156.39999999999998</ele><time>2026-05-03T09:37:09.169Z</time></trkpt><trkpt lat="45.4281449" lon="8.6416093"><ele>156.2</ele><time>2026-05-03T09:37:10.169Z</time></trkpt><trkpt lat="45.4282437" lon="8.6415355"><ele>156.0</ele><time>2026-05-03T09:37:11.17Z</time></trkpt><trkpt lat="45.4283425" lon="8.6414568"><ele>156.0</ele><time>2026-05-03T09:37:12.169Z</time></trkpt><trkpt lat="45.4284365" lon="8.6413817"><ele>156.0</ele><time>2026-05-03T09:37:13.17Z</time></trkpt><trkpt lat="45.4285354" lon="8.6412983"><ele>156.0</ele><time>2026-05-03T09:37:14.169Z</time></trkpt><trkpt lat="45.428629" lon="8.6412189"><ele>156.0</ele><time>2026-05-03T09:37:15.17Z</time></trkpt><trkpt lat="45.4287258" lon="8.6411384"><ele>156.0</ele><time>2026-05-03T09:37:16.169Z</time></trkpt><trkpt lat="45.4288204" lon="8.6410514"><ele>156.0</ele><time>2026-05-03T09:37:17.17Z</time></trkpt><trkpt lat="45.4289174" lon="8.6409746"><ele>156.0</ele><time>2026-05-03T09:37:18.17Z</time></trkpt><trkpt lat="45.4290146" lon="8.6408963"><ele>156.0</ele><time>2026-05-03T09:37:19.169Z</time></trkpt><trkpt lat="45.4291105" lon="8.6408169"><ele>156.0</ele><time>2026-05-03T09:37:20.17Z</time></trkpt><trkpt lat="45.4292079" lon="8.640741"><ele>156.0</ele><time>2026-05-03T09:37:21.17Z</time></trkpt><trkpt lat="45.4293031" lon="8.6406572"><ele>156.0</ele><time>2026-05-03T09:37:22.17Z</time></trkpt><trkpt lat="45.4293982" lon="8.6405785"><ele>156.0</ele><time>2026-05-03T09:37:23.17Z</time></trkpt><trkpt lat="45.4294886" lon="8.6404994"><ele>156.0</ele><time>2026-05-03T09:37:24.17Z</time></trkpt><trkpt lat="45.4295555" lon="8.6404251"><ele>156.0</ele><time>2026-05-03T09:37:25.169Z</time></trkpt><trkpt lat="45.4296309" lon="8.6403623"><ele>156.0</ele><time>2026-05-03T09:37:27.17Z</time></trkpt><trkpt lat="45.4296869" lon="8.6403059"><ele>156.2857142857143</ele><time>2026-05-03T09:37:29.169Z</time></trkpt><trkpt lat="45.4297416" lon="8.6402578"><ele>156.57142857142856</ele><time>2026-05-03T09:37:31.169Z</time></trkpt><trkpt lat="45.4298164" lon="8.640179"><ele>156.85714285714286</ele><time>2026-05-03T09:37:33.17Z</time></trkpt><trkpt lat="45.4298691" lon="8.6401198"><ele>157.14285714285717</ele><time>2026-05-03T09:37:34.17Z</time></trkpt><trkpt lat="45.4299252" lon="8.640057"><ele>157.42857142857144</ele><time>2026-05-03T09:37:35.17Z</time></trkpt><trkpt lat="45.4299822" lon="8.6399898"><ele>157.71428571428572</ele><time>2026-05-03T09:37:36.17Z</time></trkpt><trkpt lat="45.4300369" lon="8.6399163"><ele>158.0</ele><time>2026-05-03T09:37:37.17Z</time></trkpt><trkpt lat="45.4300954" lon="8.6398455"><ele>158.0</ele><time>2026-05-03T09:37:38.17Z</time></trkpt><trkpt lat="45.430146" lon="8.6397778"><ele>158.0</ele><time>2026-05-03T09:37:39.169Z</time></trkpt><trkpt lat="45.4302231" lon="8.6396649"><ele>158.0</ele><time>2026-05-03T09:37:41.17Z</time></trkpt><trkpt lat="45.4302829" lon="8.6395598"><ele>158.0</ele><time>2026-05-03T09:37:43.17Z</time></trkpt><trkpt lat="45.4303445" lon="8.6394651"><ele>158.0</ele><time>2026-05-03T09:37:45.17Z</time></trkpt><trkpt lat="45.4304161" lon="8.6393616"><ele>157.66666666666666</ele><time>2026-05-03T09:37:47.17Z</time></trkpt><trkpt lat="45.430488" lon="8.6392641"><ele>157.33333333333331</ele><time>2026-05-03T09:37:49.169Z</time></trkpt><trkpt lat="45.4305314" lon="8.6391896"><ele>157.0</ele><time>2026-05-03T09:37:50.17Z</time></trkpt><trkpt lat="45.4305691" lon="8.6391068"><ele>156.66666666666666</ele><time>2026-05-03T09:37:51.169Z</time></trkpt><trkpt lat="45.4306125" lon="8.6390176"><ele>156.33333333333334</ele><time>2026-05-03T09:37:52.169Z</time></trkpt><trkpt lat="45.4306528" lon="8.6389213"><ele>156.0</ele><time>2026-05-03T09:37:53.17Z</time></trkpt><trkpt lat="45.4306901" lon="8.6388211"><ele>156.0</ele><time>2026-05-03T09:37:54.17Z</time></trkpt><trkpt lat="45.430735" lon="8.6387206"><ele>156.0</ele><time>2026-05-03T09:37:55.17Z</time></trkpt><trkpt lat="45.4307812" lon="8.6386161"><ele>156.0</ele><time>2026-05-03T09:37:56.169Z</time></trkpt><trkpt lat="45.4308264" lon="8.6385104"><ele>156.0</ele><time>2026-05-03T09:37:57.17Z</time></trkpt><trkpt lat="45.4308729" lon="8.6384027"><ele>156.0</ele><time>2026-05-03T09:37:58.17Z</time></trkpt><trkpt lat="45.4309278" lon="8.6382951"><ele>156.0</ele><time>2026-05-03T09:37:59.17Z</time></trkpt><trkpt lat="45.4309878" lon="8.6381909"><ele>155.6</ele><time>2026-05-03T09:38:00.169Z</time></trkpt><trkpt lat="45.4310453" lon="8.6380783"><ele>155.2</ele><time>2026-05-03T09:38:01.17Z</time></trkpt><trkpt lat="45.4311039" lon="8.6379649"><ele>154.8</ele><time>2026-05-03T09:38:02.169Z</time></trkpt><trkpt lat="45.4311749" lon="8.6378623"><ele>154.4</ele><time>2026-05-03T09:38:03.17Z</time></trkpt><trkpt lat="45.4312405" lon="8.6377574"><ele>154.0</ele><time>2026-05-03T09:38:04.169Z</time></trkpt><trkpt lat="45.4313099" lon="8.6376448"><ele>154.0</ele><time>2026-05-03T09:38:05.17Z</time></trkpt><trkpt lat="45.4313847" lon="8.6375349"><ele>154.0</ele><time>2026-05-03T09:38:06.17Z</time></trkpt><trkpt lat="45.4314617" lon="8.6374243"><ele>154.0</ele><time>2026-05-03T09:38:07.17Z</time></trkpt><trkpt lat="45.4315368" lon="8.6373135"><ele>154.0</ele><time>2026-05-03T09:38:08.17Z</time></trkpt><trkpt lat="45.4316077" lon="8.6371964"><ele>154.0</ele><time>2026-05-03T09:38:09.17Z</time></trkpt><trkpt lat="45.431684" lon="8.6370781"><ele>154.0</ele><time>2026-05-03T09:38:10.17Z</time></trkpt><trkpt lat="45.4317602" lon="8.6369581"><ele>154.0</ele><time>2026-05-03T09:38:11.17Z</time></trkpt><trkpt lat="45.4318333" lon="8.636834"><ele>154.0</ele><time>2026-05-03T09:38:12.17Z</time></trkpt><trkpt lat="45.4319066" lon="8.6367123"><ele>154.0</ele><time>2026-05-03T09:38:13.169Z</time></trkpt><trkpt lat="45.431975" lon="8.636598"><ele>154.0</ele><time>2026-05-03T09:38:14.169Z</time></trkpt><trkpt lat="45.4320424" lon="8.6364914"><ele>154.0</ele><time>2026-05-03T09:38:15.17Z</time></trkpt><trkpt lat="45.432101" lon="8.6363949"><ele>154.0</ele><time>2026-05-03T09:38:16.17Z</time></trkpt><trkpt lat="45.4321608" lon="8.6363156"><ele>154.0</ele><time>2026-05-03T09:38:17.17Z</time></trkpt><trkpt lat="45.4322103" lon="8.6362472"><ele>154.0</ele><time>2026-05-03T09:38:18.17Z</time></trkpt><trkpt lat="45.4322826" lon="8.6361341"><ele>154.0</ele><time>2026-05-03T09:38:20.169Z</time></trkpt><trkpt lat="45.4323353" lon="8.636062"><ele>154.0</ele><time>2026-05-03T09:38:23.169Z</time></trkpt><trkpt lat="45.4324256" lon="8.6359288"><ele>154.25</ele><time>2026-05-03T09:38:41.17Z</time></trkpt><trkpt lat="45.4324953" lon="8.6358356"><ele>154.5</ele><time>2026-05-03T09:38:42.17Z</time></trkpt><trkpt lat="45.4325843" lon="8.6357028"><ele>154.75</ele><time>2026-05-03T09:38:43.169Z</time></trkpt><trkpt lat="45.4326803" lon="8.6355383"><ele>155.0</ele><time>2026-05-03T09:38:44.169Z</time></trkpt><trkpt lat="45.4327866" lon="8.6353569"><ele>155.0</ele><time>2026-05-03T09:38:45.17Z</time></trkpt><trkpt lat="45.4329077" lon="8.6351777"><ele>155.0</ele><time>2026-05-03T09:38:46.17Z</time></trkpt><trkpt lat="45.4330184" lon="8.6349978"><ele>155.0</ele><time>2026-05-03T09:38:47.169Z</time></trkpt><trkpt lat="45.4331292" lon="8.634838"><ele>154.5</ele><time>2026-05-03T09:38:48.17Z</time></trkpt><trkpt lat="45.4332274" lon="8.6346822"><ele>154.0</ele><time>2026-05-03T09:38:49.17Z</time></trkpt><trkpt lat="45.4333238" lon="8.6345311"><ele>153.5</ele><time>2026-05-03T09:38:50.169Z</time></trkpt><trkpt lat="45.4334203" lon="8.6343831"><ele>153.0</ele><time>2026-05-03T09:38:51.169Z</time></trkpt><trkpt lat="45.4335107" lon="8.6342374"><ele>153.0</ele><time>2026-05-03T09:38:52.169Z</time></trkpt><trkpt lat="45.4336" lon="8.6341008"><ele>153.0</ele><time>2026-05-03T09:38:53.17Z</time></trkpt><trkpt lat="45.4336916" lon="8.6339693"><ele>153.0</ele><time>2026-05-03T09:38:54.17Z</time></trkpt><trkpt lat="45.4337772" lon="8.6338301"><ele>153.0</ele><time>2026-05-03T09:38:55.17Z</time></trkpt><trkpt lat="45.4338598" lon="8.6337007"><ele>152.5</ele><time>2026-05-03T09:38:56.169Z</time></trkpt><trkpt lat="45.4339424" lon="8.6335724"><ele>152.0</ele><time>2026-05-03T09:38:57.169Z</time></trkpt><trkpt lat="45.4340249" lon="8.6334399"><ele>151.5</ele><time>2026-05-03T09:38:58.17Z</time></trkpt><trkpt lat="45.4341147" lon="8.6333111"><ele>151.0</ele><time>2026-05-03T09:38:59.17Z</time></trkpt><trkpt lat="45.4342031" lon="8.6331807"><ele>151.0</ele><time>2026-05-03T09:39:00.169Z</time></trkpt><trkpt lat="45.434285" lon="8.6330542"><ele>151.0</ele><time>2026-05-03T09:39:01.169Z</time></trkpt><trkpt lat="45.4343602" lon="8.6329419"><ele>151.0</ele><time>2026-05-03T09:39:02.17Z</time></trkpt><trkpt lat="45.4344237" lon="8.6328504"><ele>151.0</ele><time>2026-05-03T09:39:03.17Z</time></trkpt><trkpt lat="45.4344695" lon="8.6327822"><ele>151.0</ele><time>2026-05-03T09:39:04.169Z</time></trkpt><trkpt lat="45.4345221" lon="8.6327216"><ele>151.16666666666669</ele><time>2026-05-03T09:39:05.17Z</time></trkpt><trkpt lat="45.4345727" lon="8.6326528"><ele>151.33333333333334</ele><time>2026-05-03T09:39:06.17Z</time></trkpt><trkpt lat="45.4346254" lon="8.6325857"><ele>151.5</ele><time>2026-05-03T09:39:07.169Z</time></trkpt><trkpt lat="45.4346766" lon="8.6325101"><ele>151.66666666666666</ele><time>2026-05-03T09:39:08.17Z</time></trkpt><trkpt lat="45.434731" lon="8.6324235"><ele>151.83333333333331</ele><time>2026-05-03T09:39:09.17Z</time></trkpt><trkpt lat="45.434795" lon="8.6323243"><ele>152.0</ele><time>2026-05-03T09:39:10.17Z</time></trkpt><trkpt lat="45.4348608" lon="8.6322152"><ele>152.0</ele><time>2026-05-03T09:39:11.169Z</time></trkpt><trkpt lat="45.434927" lon="8.6321098"><ele>152.0</ele><time>2026-05-03T09:39:12.17Z</time></trkpt><trkpt lat="45.4349909" lon="8.6320115"><ele>152.0</ele><time>2026-05-03T09:39:13.17Z</time></trkpt><trkpt lat="45.4350568" lon="8.6319144"><ele>152.0</ele><time>2026-05-03T09:39:14.17Z</time></trkpt><trkpt lat="45.4351216" lon="8.6318075"><ele>152.0</ele><time>2026-05-03T09:39:15.17Z</time></trkpt><trkpt lat="45.4351888" lon="8.6317089"><ele>151.79999999999998</ele><time>2026-05-03T09:39:16.169Z</time></trkpt><trkpt lat="45.4352565" lon="8.6316275"><ele>151.6</ele><time>2026-05-03T09:39:17.17Z</time></trkpt><trkpt lat="45.4353134" lon="8.6315653"><ele>151.39999999999998</ele><time>2026-05-03T09:39:18.169Z</time></trkpt><trkpt lat="45.4354061" lon="8.6314701"><ele>151.2</ele><time>2026-05-03T09:39:20.169Z</time></trkpt><trkpt lat="45.435493" lon="8.6314099"><ele>151.0</ele><time>2026-05-03T09:39:22.17Z</time></trkpt><trkpt lat="45.4355877" lon="8.6313716"><ele>151.0</ele><time>2026-05-03T09:39:24.17Z</time></trkpt><trkpt lat="45.4357205" lon="8.6313354"><ele>151.0</ele><time>2026-05-03T09:39:26.169Z</time></trkpt><trkpt lat="45.4358025" lon="8.6313291"><ele>151.0</ele><time>2026-05-03T09:39:27.169Z</time></trkpt><trkpt lat="45.4358976" lon="8.6313479"><ele>151.0</ele><time>2026-05-03T09:39:28.169Z</time></trkpt><trkpt lat="45.436006" lon="8.6313661"><ele>151.0</ele><time>2026-05-03T09:39:29.169Z</time></trkpt><trkpt lat="45.4361385" lon="8.6313792"><ele>151.0</ele><time>2026-05-03T09:39:30.17Z</time></trkpt><trkpt lat="45.4362854" lon="8.6313847"><ele>151.0</ele><time>2026-05-03T09:39:31.17Z</time></trkpt><trkpt lat="45.4364323" lon="8.6313871"><ele>151.0</ele><time>2026-05-03T09:39:32.17Z</time></trkpt><trkpt lat="45.4365857" lon="8.6313895"><ele>151.0</ele><time>2026-05-03T09:39:33.17Z</time></trkpt><trkpt lat="45.436736" lon="8.6313978"><ele>151.33333333333334</ele><time>2026-05-03T09:39:34.17Z</time></trkpt><trkpt lat="45.4368944" lon="8.6313979"><ele>151.66666666666666</ele><time>2026-05-03T09:39:35.17Z</time></trkpt><trkpt lat="45.4370538" lon="8.6314033"><ele>152.0</ele><time>2026-05-03T09:39:36.17Z</time></trkpt><trkpt lat="45.4372103" lon="8.6314031"><ele>153.25</ele><time>2026-05-03T09:39:37.169Z</time></trkpt><trkpt lat="45.4373591" lon="8.6314118"><ele>154.5</ele><time>2026-05-03T09:39:38.169Z</time></trkpt><trkpt lat="45.4375108" lon="8.6314163"><ele>155.75</ele><time>2026-05-03T09:39:39.169Z</time></trkpt><trkpt lat="45.4376564" lon="8.6314214"><ele>157.0</ele><time>2026-05-03T09:39:40.169Z</time></trkpt><trkpt lat="45.437795" lon="8.6314266"><ele>157.0</ele><time>2026-05-03T09:39:41.169Z</time></trkpt><trkpt lat="45.4379259" lon="8.6314337"><ele>157.0</ele><time>2026-05-03T09:39:42.169Z</time></trkpt><trkpt lat="45.4380524" lon="8.6314342"><ele>157.0</ele><time>2026-05-03T09:39:43.169Z</time></trkpt><trkpt lat="45.4381781" lon="8.6314445"><ele>157.0</ele><time>2026-05-03T09:39:44.17Z</time></trkpt><trkpt lat="45.4383057" lon="8.6314492"><ele>157.0</ele><time>2026-05-03T09:39:45.17Z</time></trkpt><trkpt lat="45.4384334" lon="8.6314458"><ele>157.0</ele><time>2026-05-03T09:39:46.17Z</time></trkpt><trkpt lat="45.4385659" lon="8.6314297"><ele>157.0</ele><time>2026-05-03T09:39:47.17Z</time></trkpt><trkpt lat="45.4386984" lon="8.6313915"><ele>157.0</ele><time>2026-05-03T09:39:48.17Z</time></trkpt><trkpt lat="45.4388358" lon="8.631338"><ele>157.25</ele><time>2026-05-03T09:39:49.169Z</time></trkpt><trkpt lat="45.4389746" lon="8.631278"><ele>157.5</ele><time>2026-05-03T09:39:50.17Z</time></trkpt><trkpt lat="45.439112" lon="8.6312199"><ele>157.75</ele><time>2026-05-03T09:39:51.17Z</time></trkpt><trkpt lat="45.4392549" lon="8.6311538"><ele>158.0</ele><time>2026-05-03T09:39:52.17Z</time></trkpt><trkpt lat="45.4393902" lon="8.6311006"><ele>157.0</ele><time>2026-05-03T09:39:53.17Z</time></trkpt><trkpt lat="45.4395242" lon="8.6310433"><ele>156.0</ele><time>2026-05-03T09:39:54.17Z</time></trkpt><trkpt lat="45.4396544" lon="8.630988"><ele>155.0</ele><time>2026-05-03T09:39:55.169Z</time></trkpt><trkpt lat="45.4397855" lon="8.6309298"><ele>154.0</ele><time>2026-05-03T09:39:56.17Z</time></trkpt><trkpt lat="45.4399147" lon="8.6308726"><ele>153.5</ele><time>2026-05-03T09:39:57.17Z</time></trkpt><trkpt lat="45.4400408" lon="8.6308184"><ele>153.0</ele><time>2026-05-03T09:39:58.17Z</time></trkpt><trkpt lat="45.4401647" lon="8.6307659"><ele>152.5</ele><time>2026-05-03T09:39:59.17Z</time></trkpt><trkpt lat="45.4402875" lon="8.6307118"><ele>152.0</ele><time>2026-05-03T09:40:00.169Z</time></trkpt><trkpt lat="45.4404128" lon="8.6306665"><ele>152.0</ele><time>2026-05-03T09:40:01.17Z</time></trkpt><trkpt lat="45.4405384" lon="8.6306211"><ele>152.0</ele><time>2026-05-03T09:40:02.169Z</time></trkpt><trkpt lat="45.4406607" lon="8.6305741"><ele>152.0</ele><time>2026-05-03T09:40:03.17Z</time></trkpt><trkpt lat="45.4407868" lon="8.6305265"><ele>152.0</ele><time>2026-05-03T09:40:04.17Z</time></trkpt><trkpt lat="45.4409129" lon="8.6304723"><ele>152.0</ele><time>2026-05-03T09:40:05.17Z</time></trkpt><trkpt lat="45.4410407" lon="8.6304163"><ele>152.0</ele><time>2026-05-03T09:40:06.169Z</time></trkpt><trkpt lat="45.4411739" lon="8.6303629"><ele>152.0</ele><time>2026-05-03T09:40:07.17Z</time></trkpt><trkpt lat="45.4413095" lon="8.6302933"><ele>152.0</ele><time>2026-05-03T09:40:08.169Z</time></trkpt><trkpt lat="45.4414425" lon="8.6302178"><ele>153.25</ele><time>2026-05-03T09:40:09.17Z</time></trkpt><trkpt lat="45.4415692" lon="8.6301476"><ele>154.5</ele><time>2026-05-03T09:40:10.169Z</time></trkpt><trkpt lat="45.441691" lon="8.6300826"><ele>155.75</ele><time>2026-05-03T09:40:11.169Z</time></trkpt><trkpt lat="45.4418014" lon="8.6300211"><ele>157.0</ele><time>2026-05-03T09:40:12.17Z</time></trkpt><trkpt lat="45.4419077" lon="8.6299685"><ele>157.0</ele><time>2026-05-03T09:40:13.17Z</time></trkpt><trkpt lat="45.4420093" lon="8.6299239"><ele>157.0</ele><time>2026-05-03T09:40:14.169Z</time></trkpt><trkpt lat="45.4421028" lon="8.6298802"><ele>157.0</ele><time>2026-05-03T09:40:15.17Z</time></trkpt><trkpt lat="45.4421935" lon="8.6298416"><ele>157.0</ele><time>2026-05-03T09:40:16.169Z</time></trkpt><trkpt lat="45.4422799" lon="8.6298076"><ele>157.0</ele><time>2026-05-03T09:40:17.17Z</time></trkpt><trkpt lat="45.4423613" lon="8.6297819"><ele>156.33333333333334</ele><time>2026-05-03T09:40:18.17Z</time></trkpt><trkpt lat="45.4424419" lon="8.6297663"><ele>155.66666666666669</ele><time>2026-05-03T09:40:19.17Z</time></trkpt><trkpt lat="45.4425188" lon="8.6297642"><ele>155.0</ele><time>2026-05-03T09:40:20.17Z</time></trkpt><trkpt lat="45.4425832" lon="8.6297553"><ele>154.33333333333334</ele><time>2026-05-03T09:40:21.17Z</time></trkpt><trkpt lat="45.4426919" lon="8.6296974"><ele>153.66666666666666</ele><time>2026-05-03T09:40:23.169Z</time></trkpt><trkpt lat="45.4427545" lon="8.6296442"><ele>153.0</ele><time>2026-05-03T09:40:24.17Z</time></trkpt><trkpt lat="45.4428246" lon="8.6295892"><ele>153.0</ele><time>2026-05-03T09:40:25.169Z</time></trkpt><trkpt lat="45.4429048" lon="8.6295379"><ele>153.0</ele><time>2026-05-03T09:40:26.17Z</time></trkpt><trkpt lat="45.4429926" lon="8.6294988"><ele>153.0</ele><time>2026-05-03T09:40:27.17Z</time></trkpt><trkpt lat="45.4430845" lon="8.6294635"><ele>153.0</ele><time>2026-05-03T09:40:28.169Z</time></trkpt><trkpt lat="45.4431843" lon="8.6294303"><ele>153.0</ele><time>2026-05-03T09:40:29.17Z</time></trkpt><trkpt lat="45.4432886" lon="8.6293899"><ele>153.20000000000002</ele><time>2026-05-03T09:40:30.17Z</time></trkpt><trkpt lat="45.4433956" lon="8.629349"><ele>153.4</ele><time>2026-05-03T09:40:31.17Z</time></trkpt><trkpt lat="45.4434995" lon="8.6293131"><ele>153.60000000000002</ele><time>2026-05-03T09:40:32.169Z</time></trkpt><trkpt lat="45.4435937" lon="8.6292774"><ele>153.8</ele><time>2026-05-03T09:40:33.17Z</time></trkpt><trkpt lat="45.4436814" lon="8.6292482"><ele>154.0</ele><time>2026-05-03T09:40:34.17Z</time></trkpt><trkpt lat="45.4437693" lon="8.6292206"><ele>154.4</ele><time>2026-05-03T09:40:35.17Z</time></trkpt><trkpt lat="45.4438596" lon="8.6291942"><ele>154.8</ele><time>2026-05-03T09:40:36.17Z</time></trkpt><trkpt lat="45.4439507" lon="8.6291717"><ele>155.2</ele><time>2026-05-03T09:40:37.17Z</time></trkpt><trkpt lat="45.4440469" lon="8.6291571"><ele>155.6</ele><time>2026-05-03T09:40:38.169Z</time></trkpt><trkpt lat="45.4441354" lon="8.6291536"><ele>156.0</ele><time>2026-05-03T09:40:39.169Z</time></trkpt><trkpt lat="45.4442199" lon="8.6291536"><ele>156.0</ele><time>2026-05-03T09:40:40.169Z</time></trkpt><trkpt lat="45.4443031" lon="8.6291549"><ele>156.0</ele><time>2026-05-03T09:40:41.169Z</time></trkpt><trkpt lat="45.4443903" lon="8.6291531"><ele>156.0</ele><time>2026-05-03T09:40:42.169Z</time></trkpt><trkpt lat="45.4444859" lon="8.629154"><ele>156.0</ele><time>2026-05-03T09:40:43.17Z</time></trkpt><trkpt lat="45.4445842" lon="8.6291698"><ele>156.0</ele><time>2026-05-03T09:40:44.17Z</time></trkpt><trkpt lat="45.4446857" lon="8.629194"><ele>155.8</ele><time>2026-05-03T09:40:45.17Z</time></trkpt><trkpt lat="45.4447833" lon="8.6292127"><ele>155.6</ele><time>2026-05-03T09:40:46.17Z</time></trkpt><trkpt lat="45.4448859" lon="8.6292443"><ele>155.4</ele><time>2026-05-03T09:40:47.169Z</time></trkpt><trkpt lat="45.4449901" lon="8.6292673"><ele>155.2</ele><time>2026-05-03T09:40:48.17Z</time></trkpt><trkpt lat="45.4450953" lon="8.6292747"><ele>155.0</ele><time>2026-05-03T09:40:49.169Z</time></trkpt><trkpt lat="45.4452001" lon="8.6292883"><ele>155.0</ele><time>2026-05-03T09:40:50.169Z</time></trkpt><trkpt lat="45.4453074" lon="8.6293066"><ele>155.0</ele><time>2026-05-03T09:40:51.17Z</time></trkpt><trkpt lat="45.44541" lon="8.6293157"><ele>155.0</ele><time>2026-05-03T09:40:52.169Z</time></trkpt><trkpt lat="45.4455116" lon="8.6293328"><ele>155.0</ele><time>2026-05-03T09:40:53.169Z</time></trkpt><trkpt lat="45.4456148" lon="8.6293499"><ele>155.0</ele><time>2026-05-03T09:40:54.169Z</time></trkpt><trkpt lat="45.4457178" lon="8.6293687"><ele>154.8</ele><time>2026-05-03T09:40:55.17Z</time></trkpt><trkpt lat="45.4458204" lon="8.6293881"><ele>154.6</ele><time>2026-05-03T09:40:56.17Z</time></trkpt><trkpt lat="45.4459245" lon="8.629406"><ele>154.4</ele><time>2026-05-03T09:40:57.17Z</time></trkpt><trkpt lat="45.446032" lon="8.6294223"><ele>154.2</ele><time>2026-05-03T09:40:58.17Z</time></trkpt><trkpt lat="45.4461345" lon="8.629441"><ele>154.0</ele><time>2026-05-03T09:40:59.17Z</time></trkpt><trkpt lat="45.4462318" lon="8.6294578"><ele>153.0</ele><time>2026-05-03T09:41:00.169Z</time></trkpt><trkpt lat="45.4463216" lon="8.6294789"><ele>152.0</ele><time>2026-05-03T09:41:01.17Z</time></trkpt><trkpt lat="45.4464188" lon="8.6294958"><ele>151.0</ele><time>2026-05-03T09:41:02.169Z</time></trkpt><trkpt lat="45.4465167" lon="8.6295187"><ele>150.0</ele><time>2026-05-03T09:41:03.17Z</time></trkpt><trkpt lat="45.4466106" lon="8.6295334"><ele>149.0</ele><time>2026-05-03T09:41:04.169Z</time></trkpt><trkpt lat="45.4467014" lon="8.6295407"><ele>149.0</ele><time>2026-05-03T09:41:05.17Z</time></trkpt><trkpt lat="45.446788" lon="8.6295271"><ele>149.0</ele><time>2026-05-03T09:41:06.17Z</time></trkpt><trkpt lat="45.4468744" lon="8.6294765"><ele>149.0</ele><time>2026-05-03T09:41:07.17Z</time></trkpt><trkpt lat="45.4469591" lon="8.6294009"><ele>149.0</ele><time>2026-05-03T09:41:08.169Z</time></trkpt><trkpt lat="45.4470356" lon="8.6293093"><ele>149.0</ele><time>2026-05-03T09:41:09.17Z</time></trkpt><trkpt lat="45.4471039" lon="8.6292049"><ele>149.2</ele><time>2026-05-03T09:41:10.17Z</time></trkpt><trkpt lat="45.4471711" lon="8.6291065"><ele>149.4</ele><time>2026-05-03T09:41:11.17Z</time></trkpt><trkpt lat="45.4472441" lon="8.6290014"><ele>149.6</ele><time>2026-05-03T09:41:12.169Z</time></trkpt><trkpt lat="45.4473302" lon="8.628895"><ele>149.8</ele><time>2026-05-03T09:41:13.169Z</time></trkpt><trkpt lat="45.4474205" lon="8.6287636"><ele>150.0</ele><time>2026-05-03T09:41:14.17Z</time></trkpt><trkpt lat="45.447516" lon="8.6286285"><ele>150.0</ele><time>2026-05-03T09:41:15.17Z</time></trkpt><trkpt lat="45.4476182" lon="8.6284969"><ele>150.0</ele><time>2026-05-03T09:41:16.17Z</time></trkpt><trkpt lat="45.4477286" lon="8.6283608"><ele>150.0</ele><time>2026-05-03T09:41:17.17Z</time></trkpt><trkpt lat="45.4478367" lon="8.6282269"><ele>150.0</ele><time>2026-05-03T09:41:18.17Z</time></trkpt><trkpt lat="45.4479464" lon="8.6281038"><ele>149.25</ele><time>2026-05-03T09:41:19.17Z</time></trkpt><trkpt lat="45.4480522" lon="8.627972"><ele>148.5</ele><time>2026-05-03T09:41:20.17Z</time></trkpt><trkpt lat="45.4481558" lon="8.6278487"><ele>147.75</ele><time>2026-05-03T09:41:21.17Z</time></trkpt><trkpt lat="45.44826" lon="8.6277169"><ele>147.0</ele><time>2026-05-03T09:41:22.169Z</time></trkpt><trkpt lat="45.448364" lon="8.6275777"><ele>147.0</ele><time>2026-05-03T09:41:23.169Z</time></trkpt><trkpt lat="45.4484672" lon="8.6274407"><ele>147.0</ele><time>2026-05-03T09:41:24.169Z</time></trkpt><trkpt lat="45.4485715" lon="8.6273106"><ele>147.0</ele><time>2026-05-03T09:41:25.17Z</time></trkpt><trkpt lat="45.4486713" lon="8.6271825"><ele>147.0</ele><time>2026-05-03T09:41:26.17Z</time></trkpt><trkpt lat="45.4487704" lon="8.6270529"><ele>147.5</ele><time>2026-05-03T09:41:27.169Z</time></trkpt><trkpt lat="45.4488735" lon="8.6269267"><ele>148.0</ele><time>2026-05-03T09:41:28.17Z</time></trkpt><trkpt lat="45.4489716" lon="8.6268003"><ele>148.5</ele><time>2026-05-03T09:41:29.17Z</time></trkpt><trkpt lat="45.4490671" lon="8.6266739"><ele>149.0</ele><time>2026-05-03T09:41:30.17Z</time></trkpt><trkpt lat="45.4491674" lon="8.626546"><ele>149.0</ele><time>2026-05-03T09:41:31.169Z</time></trkpt><trkpt lat="45.4492704" lon="8.6264176"><ele>149.0</ele><time>2026-05-03T09:41:32.17Z</time></trkpt><trkpt lat="45.4493734" lon="8.62628"><ele>149.0</ele><time>2026-05-03T09:41:33.169Z</time></trkpt><trkpt lat="45.4494777" lon="8.6261451"><ele>149.0</ele><time>2026-05-03T09:41:34.17Z</time></trkpt><trkpt lat="45.449578" lon="8.6260115"><ele>149.25</ele><time>2026-05-03T09:41:35.17Z</time></trkpt><trkpt lat="45.4496799" lon="8.6258759"><ele>149.5</ele><time>2026-05-03T09:41:36.169Z</time></trkpt><trkpt lat="45.4497839" lon="8.625743"><ele>149.75</ele><time>2026-05-03T09:41:37.169Z</time></trkpt><trkpt lat="45.4498857" lon="8.625614"><ele>150.0</ele><time>2026-05-03T09:41:38.17Z</time></trkpt><trkpt lat="45.4499819" lon="8.6254845"><ele>150.0</ele><time>2026-05-03T09:41:39.17Z</time></trkpt><trkpt lat="45.4500751" lon="8.6253666"><ele>150.0</ele><time>2026-05-03T09:41:40.169Z</time></trkpt><trkpt lat="45.4501608" lon="8.6252515"><ele>150.0</ele><time>2026-05-03T09:41:41.17Z</time></trkpt><trkpt lat="45.4502424" lon="8.6251388"><ele>150.0</ele><time>2026-05-03T09:41:42.17Z</time></trkpt><trkpt lat="45.4503238" lon="8.6250345"><ele>150.0</ele><time>2026-05-03T09:41:43.17Z</time></trkpt><trkpt lat="45.4504068" lon="8.6249325"><ele>150.0</ele><time>2026-05-03T09:41:44.17Z</time></trkpt><trkpt lat="45.4504926" lon="8.6248368"><ele>150.0</ele><time>2026-05-03T09:41:45.17Z</time></trkpt><trkpt lat="45.4505727" lon="8.62475"><ele>150.0</ele><time>2026-05-03T09:41:46.169Z</time></trkpt><trkpt lat="45.4506398" lon="8.6246639"><ele>150.0</ele><time>2026-05-03T09:41:47.17Z</time></trkpt><trkpt lat="45.4506964" lon="8.6245861"><ele>150.0</ele><time>2026-05-03T09:41:48.17Z</time></trkpt><trkpt lat="45.4507521" lon="8.6245156"><ele>150.0</ele><time>2026-05-03T09:41:49.17Z</time></trkpt><trkpt lat="45.4508013" lon="8.6244482"><ele>150.0</ele><time>2026-05-03T09:41:50.17Z</time></trkpt><trkpt lat="45.4508593" lon="8.624374"><ele>150.0</ele><time>2026-05-03T09:41:51.17Z</time></trkpt><trkpt lat="45.4509225" lon="8.6242858"><ele>150.0</ele><time>2026-05-03T09:41:52.17Z</time></trkpt><trkpt lat="45.4509943" lon="8.6241976"><ele>150.0</ele><time>2026-05-03T09:41:53.17Z</time></trkpt><trkpt lat="45.4510639" lon="8.6241016"><ele>150.0</ele><time>2026-05-03T09:41:54.17Z</time></trkpt><trkpt lat="45.4511372" lon="8.6240051"><ele>150.0</ele><time>2026-05-03T09:41:55.169Z</time></trkpt><trkpt lat="45.4512158" lon="8.6239094"><ele>150.0</ele><time>2026-05-03T09:41:56.17Z</time></trkpt><trkpt lat="45.4512974" lon="8.6238041"><ele>150.0</ele><time>2026-05-03T09:41:57.17Z</time></trkpt><trkpt lat="45.4513809" lon="8.6236933"><ele>150.0</ele><time>2026-05-03T09:41:58.17Z</time></trkpt><trkpt lat="45.4514683" lon="8.6235776"><ele>150.2</ele><time>2026-05-03T09:41:59.17Z</time></trkpt><trkpt lat="45.4515593" lon="8.6234607"><ele>150.4</ele><time>2026-05-03T09:42:00.17Z</time></trkpt><trkpt lat="45.4516438" lon="8.6233534"><ele>150.6</ele><time>2026-05-03T09:42:01.169Z</time></trkpt><trkpt lat="45.4517095" lon="8.6232598"><ele>150.8</ele><time>2026-05-03T09:42:02.169Z</time></trkpt><trkpt lat="45.4517669" lon="8.6231805"><ele>151.0</ele><time>2026-05-03T09:42:03.169Z</time></trkpt><trkpt lat="45.4518394" lon="8.6230881"><ele>151.0</ele><time>2026-05-03T09:42:05.17Z</time></trkpt><trkpt lat="45.4518786" lon="8.6230055"><ele>151.0</ele><time>2026-05-03T09:42:14.17Z</time></trkpt><trkpt lat="45.4519367" lon="8.6229125"><ele>151.0</ele><time>2026-05-03T09:42:16.17Z</time></trkpt><trkpt lat="45.4520108" lon="8.6228424"><ele>151.0</ele><time>2026-05-03T09:42:18.17Z</time></trkpt><trkpt lat="45.4521207" lon="8.6227796"><ele>151.0</ele><time>2026-05-03T09:42:20.17Z</time></trkpt><trkpt lat="45.4522089" lon="8.6226658"><ele>151.16666666666669</ele><time>2026-05-03T09:42:22.169Z</time></trkpt><trkpt lat="45.4522536" lon="8.6225038"><ele>151.33333333333334</ele><time>2026-05-03T09:42:24.169Z</time></trkpt><trkpt lat="45.4522699" lon="8.6224064"><ele>151.5</ele><time>2026-05-03T09:42:25.17Z</time></trkpt><trkpt lat="45.4522833" lon="8.6223114"><ele>151.66666666666666</ele><time>2026-05-03T09:42:26.169Z</time></trkpt><trkpt lat="45.452304" lon="8.6222048"><ele>151.83333333333331</ele><time>2026-05-03T09:42:27.17Z</time></trkpt><trkpt lat="45.4523246" lon="8.6220992"><ele>152.0</ele><time>2026-05-03T09:42:28.169Z</time></trkpt><trkpt lat="45.4523464" lon="8.6219814"><ele>152.5</ele><time>2026-05-03T09:42:29.168Z</time></trkpt><trkpt lat="45.452368" lon="8.6218626"><ele>153.0</ele><time>2026-05-03T09:42:30.169Z</time></trkpt><trkpt lat="45.4523882" lon="8.6217321"><ele>153.5</ele><time>2026-05-03T09:42:31.168Z</time></trkpt><trkpt lat="45.4524113" lon="8.6216101"><ele>154.0</ele><time>2026-05-03T09:42:32.169Z</time></trkpt><trkpt lat="45.4524288" lon="8.6215015"><ele>154.5</ele><time>2026-05-03T09:42:33.168Z</time></trkpt><trkpt lat="45.4524532" lon="8.6213704"><ele>155.0</ele><time>2026-05-03T09:42:35.169Z</time></trkpt><trkpt lat="45.4525083" lon="8.621159"><ele>155.4</ele><time>2026-05-03T09:42:45.169Z</time></trkpt><trkpt lat="45.4525447" lon="8.6209736"><ele>155.8</ele><time>2026-05-03T09:42:47.168Z</time></trkpt><trkpt lat="45.4525626" lon="8.6208683"><ele>156.2</ele><time>2026-05-03T09:42:48.168Z</time></trkpt><trkpt lat="45.4525841" lon="8.620773"><ele>156.6</ele><time>2026-05-03T09:42:49.168Z</time></trkpt><trkpt lat="45.452604" lon="8.6206835"><ele>157.0</ele><time>2026-05-03T09:42:50.169Z</time></trkpt><trkpt lat="45.452688" lon="8.6205609"><ele>157.0</ele><time>2026-05-03T09:42:52.169Z</time></trkpt><trkpt lat="45.4527884" lon="8.6204794"><ele>157.0</ele><time>2026-05-03T09:42:54.169Z</time></trkpt><trkpt lat="45.4528368" lon="8.6204158"><ele>157.0</ele><time>2026-05-03T09:42:55.169Z</time></trkpt><trkpt lat="45.452896" lon="8.6203424"><ele>157.0</ele><time>2026-05-03T09:42:56.169Z</time></trkpt><trkpt lat="45.4529629" lon="8.6202627"><ele>157.0</ele><time>2026-05-03T09:42:57.169Z</time></trkpt><trkpt lat="45.4530435" lon="8.6201748"><ele>157.0</ele><time>2026-05-03T09:42:58.168Z</time></trkpt><trkpt lat="45.45312" lon="8.6201011"><ele>156.4</ele><time>2026-05-03T09:42:59.169Z</time></trkpt><trkpt lat="45.4531935" lon="8.6200289"><ele>155.79999999999998</ele><time>2026-05-03T09:43:00.169Z</time></trkpt><trkpt lat="45.4532811" lon="8.6199477"><ele>155.2</ele><time>2026-05-03T09:43:01.169Z</time></trkpt><trkpt lat="45.453367" lon="8.6198584"><ele>154.6</ele><time>2026-05-03T09:43:02.169Z</time></trkpt><trkpt lat="45.4534506" lon="8.6197629"><ele>154.0</ele><time>2026-05-03T09:43:03.169Z</time></trkpt><trkpt lat="45.4535427" lon="8.6196672"><ele>154.0</ele><time>2026-05-03T09:43:04.169Z</time></trkpt><trkpt lat="45.4536322" lon="8.6195633"><ele>154.0</ele><time>2026-05-03T09:43:05.169Z</time></trkpt><trkpt lat="45.4537247" lon="8.6194586"><ele>154.0</ele><time>2026-05-03T09:43:06.168Z</time></trkpt><trkpt lat="45.4538187" lon="8.6193616"><ele>154.0</ele><time>2026-05-03T09:43:07.168Z</time></trkpt><trkpt lat="45.4539008" lon="8.6192566"><ele>153.6</ele><time>2026-05-03T09:43:08.168Z</time></trkpt><trkpt lat="45.4539816" lon="8.6191669"><ele>153.2</ele><time>2026-05-03T09:43:09.168Z</time></trkpt><trkpt lat="45.4540585" lon="8.6190835"><ele>152.79999999999998</ele><time>2026-05-03T09:43:10.168Z</time></trkpt><trkpt lat="45.4541404" lon="8.6190047"><ele>152.4</ele><time>2026-05-03T09:43:11.169Z</time></trkpt><trkpt lat="45.4542212" lon="8.6189358"><ele>152.0</ele><time>2026-05-03T09:43:12.168Z</time></trkpt><trkpt lat="45.454295" lon="8.6188552"><ele>152.0</ele><time>2026-05-03T09:43:13.168Z</time></trkpt><trkpt lat="45.4543708" lon="8.6187749"><ele>152.0</ele><time>2026-05-03T09:43:14.169Z</time></trkpt><trkpt lat="45.4544431" lon="8.6186936"><ele>152.0</ele><time>2026-05-03T09:43:15.168Z</time></trkpt><trkpt lat="45.4545059" lon="8.618624"><ele>152.0</ele><time>2026-05-03T09:43:16.168Z</time></trkpt><trkpt lat="45.4545654" lon="8.6185659"><ele>152.0</ele><time>2026-05-03T09:43:17.169Z</time></trkpt><trkpt lat="45.4546193" lon="8.6185102"><ele>152.0</ele><time>2026-05-03T09:43:18.168Z</time></trkpt><trkpt lat="45.4546735" lon="8.6184631"><ele>152.0</ele><time>2026-05-03T09:43:19.169Z</time></trkpt><trkpt lat="45.4547288" lon="8.6184069"><ele>152.0</ele><time>2026-05-03T09:43:20.169Z</time></trkpt><trkpt lat="45.4547879" lon="8.6183466"><ele>152.0</ele><time>2026-05-03T09:43:21.168Z</time></trkpt><trkpt lat="45.454844" lon="8.6182925"><ele>152.0</ele><time>2026-05-03T09:43:22.168Z</time></trkpt><trkpt lat="45.4548977" lon="8.618242"><ele>152.0</ele><time>2026-05-03T09:43:23.169Z</time></trkpt><trkpt lat="45.4549564" lon="8.618181"><ele>152.0</ele><time>2026-05-03T09:43:24.169Z</time></trkpt><trkpt lat="45.4550221" lon="8.6181239"><ele>152.0</ele><time>2026-05-03T09:43:25.169Z</time></trkpt><trkpt lat="45.4550954" lon="8.6180622"><ele>152.0</ele><time>2026-05-03T09:43:26.169Z</time></trkpt><trkpt lat="45.4551771" lon="8.6180019"><ele>152.0</ele><time>2026-05-03T09:43:27.169Z</time></trkpt><trkpt lat="45.4552584" lon="8.6179516"><ele>152.0</ele><time>2026-05-03T09:43:28.169Z</time></trkpt><trkpt lat="45.4553378" lon="8.6179125"><ele>152.0</ele><time>2026-05-03T09:43:29.169Z</time></trkpt><trkpt lat="45.4554082" lon="8.6178792"><ele>152.0</ele><time>2026-05-03T09:43:30.169Z</time></trkpt><trkpt lat="45.4555196" lon="8.6178435"><ele>152.0</ele><time>2026-05-03T09:43:32.169Z</time></trkpt><trkpt lat="45.4556449" lon="8.6178148"><ele>152.0</ele><time>2026-05-03T09:43:34.168Z</time></trkpt><trkpt lat="45.4557171" lon="8.6178011"><ele>152.0</ele><time>2026-05-03T09:43:35.168Z</time></trkpt><trkpt lat="45.4557991" lon="8.6177841"><ele>152.0</ele><time>2026-05-03T09:43:36.169Z</time></trkpt><trkpt lat="45.4558838" lon="8.6177631"><ele>152.0</ele><time>2026-05-03T09:43:37.168Z</time></trkpt><trkpt lat="45.4559737" lon="8.6177439"><ele>152.0</ele><time>2026-05-03T09:43:38.169Z</time></trkpt><trkpt lat="45.4560605" lon="8.6177335"><ele>152.0</ele><time>2026-05-03T09:43:39.168Z</time></trkpt><trkpt lat="45.4561553" lon="8.6177213"><ele>152.0</ele><time>2026-05-03T09:43:40.168Z</time></trkpt><trkpt lat="45.4562417" lon="8.6177001"><ele>152.0</ele><time>2026-05-03T09:43:41.169Z</time></trkpt><trkpt lat="45.4563294" lon="8.6176745"><ele>152.0</ele><time>2026-05-03T09:43:42.168Z</time></trkpt><trkpt lat="45.4564189" lon="8.6176528"><ele>152.2</ele><time>2026-05-03T09:43:43.168Z</time></trkpt><trkpt lat="45.4565158" lon="8.6176255"><ele>152.39999999999998</ele><time>2026-05-03T09:43:44.168Z</time></trkpt><trkpt lat="45.4566091" lon="8.6175921"><ele>152.60000000000002</ele><time>2026-05-03T09:43:45.169Z</time></trkpt><trkpt lat="45.4567064" lon="8.6175596"><ele>152.8</ele><time>2026-05-03T09:43:46.169Z</time></trkpt><trkpt lat="45.4568078" lon="8.6175425"><ele>153.0</ele><time>2026-05-03T09:43:47.168Z</time></trkpt><trkpt lat="45.4569176" lon="8.6175245"><ele>153.0</ele><time>2026-05-03T09:43:48.168Z</time></trkpt><trkpt lat="45.4570322" lon="8.617498"><ele>153.0</ele><time>2026-05-03T09:43:49.169Z</time></trkpt><trkpt lat="45.457148" lon="8.6174626"><ele>153.0</ele><time>2026-05-03T09:43:50.168Z</time></trkpt><trkpt lat="45.4572671" lon="8.6174344"><ele>153.0</ele><time>2026-05-03T09:43:51.168Z</time></trkpt><trkpt lat="45.4573789" lon="8.6173974"><ele>153.0</ele><time>2026-05-03T09:43:52.169Z</time></trkpt><trkpt lat="45.4574866" lon="8.6173769"><ele>153.0</ele><time>2026-05-03T09:43:53.169Z</time></trkpt><trkpt lat="45.4575965" lon="8.6173576"><ele>153.0</ele><time>2026-05-03T09:43:54.168Z</time></trkpt><trkpt lat="45.4577204" lon="8.6173207"><ele>153.0</ele><time>2026-05-03T09:43:55.169Z</time></trkpt><trkpt lat="45.4578383" lon="8.6172952"><ele>152.5</ele><time>2026-05-03T09:43:56.168Z</time></trkpt><trkpt lat="45.4579573" lon="8.6172632"><ele>152.0</ele><time>2026-05-03T09:43:57.168Z</time></trkpt><trkpt lat="45.458072" lon="8.6172311"><ele>151.5</ele><time>2026-05-03T09:43:58.169Z</time></trkpt><trkpt lat="45.4581811" lon="8.6172052"><ele>151.0</ele><time>2026-05-03T09:43:59.169Z</time></trkpt><trkpt lat="45.4582888" lon="8.617174"><ele>151.0</ele><time>2026-05-03T09:44:00.169Z</time></trkpt><trkpt lat="45.4583914" lon="8.6171458"><ele>151.0</ele><time>2026-05-03T09:44:01.169Z</time></trkpt><trkpt lat="45.4585002" lon="8.6171186"><ele>151.0</ele><time>2026-05-03T09:44:02.169Z</time></trkpt><trkpt lat="45.4585994" lon="8.6170869"><ele>151.0</ele><time>2026-05-03T09:44:03.169Z</time></trkpt><trkpt lat="45.4587021" lon="8.617061"><ele>151.0</ele><time>2026-05-03T09:44:04.168Z</time></trkpt><trkpt lat="45.458802" lon="8.6170352"><ele>151.4</ele><time>2026-05-03T09:44:05.169Z</time></trkpt><trkpt lat="45.458898" lon="8.6170114"><ele>151.8</ele><time>2026-05-03T09:44:06.168Z</time></trkpt><trkpt lat="45.4589979" lon="8.6169861"><ele>152.20000000000002</ele><time>2026-05-03T09:44:07.168Z</time></trkpt><trkpt lat="45.4590949" lon="8.6169559"><ele>152.6</ele><time>2026-05-03T09:44:08.169Z</time></trkpt><trkpt lat="45.4591919" lon="8.616931"><ele>153.0</ele><time>2026-05-03T09:44:09.169Z</time></trkpt><trkpt lat="45.4592826" lon="8.6169103"><ele>153.0</ele><time>2026-05-03T09:44:10.168Z</time></trkpt><trkpt lat="45.4593762" lon="8.616896"><ele>153.0</ele><time>2026-05-03T09:44:11.169Z</time></trkpt><trkpt lat="45.4594634" lon="8.6168703"><ele>153.0</ele><time>2026-05-03T09:44:12.169Z</time></trkpt><trkpt lat="45.4595421" lon="8.6168431"><ele>153.0</ele><time>2026-05-03T09:44:13.168Z</time></trkpt><trkpt lat="45.4596183" lon="8.6168123"><ele>153.0</ele><time>2026-05-03T09:44:14.168Z</time></trkpt><trkpt lat="45.4596958" lon="8.6167936"><ele>153.0</ele><time>2026-05-03T09:44:15.168Z</time></trkpt><trkpt lat="45.4597702" lon="8.6167804"><ele>153.0</ele><time>2026-05-03T09:44:16.169Z</time></trkpt><trkpt lat="45.4598355" lon="8.6167685"><ele>153.0</ele><time>2026-05-03T09:44:17.169Z</time></trkpt><trkpt lat="45.4599535" lon="8.6167359"><ele>153.0</ele><time>2026-05-03T09:44:19.169Z</time></trkpt><trkpt lat="45.4600166" lon="8.6167176"><ele>153.0</ele><time>2026-05-03T09:44:20.168Z</time></trkpt><trkpt lat="45.4600846" lon="8.6166965"><ele>153.0</ele><time>2026-05-03T09:44:21.168Z</time></trkpt><trkpt lat="45.4601571" lon="8.6166753"><ele>153.0</ele><time>2026-05-03T09:44:22.169Z</time></trkpt><trkpt lat="45.4602418" lon="8.6166556"><ele>153.0</ele><time>2026-05-03T09:44:23.169Z</time></trkpt><trkpt lat="45.4603416" lon="8.6166334"><ele>153.0</ele><time>2026-05-03T09:44:24.169Z</time></trkpt><trkpt lat="45.4604392" lon="8.6166061"><ele>153.0</ele><time>2026-05-03T09:44:25.169Z</time></trkpt><trkpt lat="45.4605355" lon="8.6165822"><ele>153.0</ele><time>2026-05-03T09:44:26.168Z</time></trkpt><trkpt lat="45.4606292" lon="8.6165568"><ele>153.0</ele><time>2026-05-03T09:44:27.169Z</time></trkpt><trkpt lat="45.4607249" lon="8.6165341"><ele>153.20000000000002</ele><time>2026-05-03T09:44:28.169Z</time></trkpt><trkpt lat="45.4608198" lon="8.6165144"><ele>153.4</ele><time>2026-05-03T09:44:29.169Z</time></trkpt><trkpt lat="45.4609106" lon="8.6164944"><ele>153.60000000000002</ele><time>2026-05-03T09:44:30.169Z</time></trkpt><trkpt lat="45.4609991" lon="8.616477"><ele>153.8</ele><time>2026-05-03T09:44:31.169Z</time></trkpt><trkpt lat="45.4610856" lon="8.6164551"><ele>154.0</ele><time>2026-05-03T09:44:32.168Z</time></trkpt><trkpt lat="45.4611731" lon="8.6164348"><ele>154.0</ele><time>2026-05-03T09:44:33.168Z</time></trkpt><trkpt lat="45.4612609" lon="8.6164103"><ele>154.0</ele><time>2026-05-03T09:44:34.169Z</time></trkpt><trkpt lat="45.4613466" lon="8.6163844"><ele>154.0</ele><time>2026-05-03T09:44:35.169Z</time></trkpt><trkpt lat="45.4614348" lon="8.616363"><ele>154.0</ele><time>2026-05-03T09:44:36.168Z</time></trkpt><trkpt lat="45.4615195" lon="8.6163418"><ele>154.0</ele><time>2026-05-03T09:44:37.168Z</time></trkpt><trkpt lat="45.4616003" lon="8.6163208"><ele>154.0</ele><time>2026-05-03T09:44:38.169Z</time></trkpt><trkpt lat="45.4616789" lon="8.6163015"><ele>154.0</ele><time>2026-05-03T09:44:39.168Z</time></trkpt><trkpt lat="45.4617627" lon="8.6162802"><ele>154.0</ele><time>2026-05-03T09:44:40.169Z</time></trkpt><trkpt lat="45.4618422" lon="8.6162654"><ele>154.0</ele><time>2026-05-03T09:44:41.168Z</time></trkpt><trkpt lat="45.4619236" lon="8.6162381"><ele>154.0</ele><time>2026-05-03T09:44:42.169Z</time></trkpt><trkpt lat="45.462004" lon="8.6162213"><ele>154.0</ele><time>2026-05-03T09:44:43.169Z</time></trkpt><trkpt lat="45.4621016" lon="8.6161993"><ele>154.0</ele><time>2026-05-03T09:44:44.169Z</time></trkpt><trkpt lat="45.4622001" lon="8.6161708"><ele>154.2</ele><time>2026-05-03T09:44:45.169Z</time></trkpt><trkpt lat="45.4622906" lon="8.6161334"><ele>154.4</ele><time>2026-05-03T09:44:46.168Z</time></trkpt><trkpt lat="45.4623847" lon="8.616107"><ele>154.6</ele><time>2026-05-03T09:44:47.169Z</time></trkpt><trkpt lat="45.4624773" lon="8.6160858"><ele>154.8</ele><time>2026-05-03T09:44:48.169Z</time></trkpt><trkpt lat="45.462572" lon="8.6160619"><ele>155.0</ele><time>2026-05-03T09:44:49.168Z</time></trkpt><trkpt lat="45.4626663" lon="8.6160443"><ele>155.0</ele><time>2026-05-03T09:44:50.169Z</time></trkpt><trkpt lat="45.4627584" lon="8.6160174"><ele>155.0</ele><time>2026-05-03T09:44:51.168Z</time></trkpt><trkpt lat="45.4628515" lon="8.6159943"><ele>155.0</ele><time>2026-05-03T09:44:52.169Z</time></trkpt><trkpt lat="45.4629487" lon="8.6159666"><ele>155.0</ele><time>2026-05-03T09:44:53.169Z</time></trkpt><trkpt lat="45.4630501" lon="8.6159407"><ele>155.0</ele><time>2026-05-03T09:44:54.168Z</time></trkpt><trkpt lat="45.4631514" lon="8.6159143"><ele>155.2</ele><time>2026-05-03T09:44:55.169Z</time></trkpt><trkpt lat="45.4632586" lon="8.6158859"><ele>155.4</ele><time>2026-05-03T09:44:56.169Z</time></trkpt><trkpt lat="45.4633612" lon="8.6158589"><ele>155.6</ele><time>2026-05-03T09:44:57.168Z</time></trkpt><trkpt lat="45.4634601" lon="8.6158354"><ele>155.8</ele><time>2026-05-03T09:44:58.169Z</time></trkpt><trkpt lat="45.4635653" lon="8.6158098"><ele>156.0</ele><time>2026-05-03T09:44:59.169Z</time></trkpt><trkpt lat="45.4636697" lon="8.6157842"><ele>156.0</ele><time>2026-05-03T09:45:00.168Z</time></trkpt><trkpt lat="45.4637824" lon="8.6157559"><ele>156.0</ele><time>2026-05-03T09:45:01.169Z</time></trkpt><trkpt lat="45.4638956" lon="8.6157237"><ele>156.0</ele><time>2026-05-03T09:45:02.168Z</time></trkpt><trkpt lat="45.4640125" lon="8.6156947"><ele>156.0</ele><time>2026-05-03T09:45:03.169Z</time></trkpt><trkpt lat="45.464121" lon="8.6156627"><ele>156.0</ele><time>2026-05-03T09:45:04.168Z</time></trkpt><trkpt lat="45.4642326" lon="8.6156377"><ele>156.0</ele><time>2026-05-03T09:45:05.169Z</time></trkpt><trkpt lat="45.4643432" lon="8.6156086"><ele>156.0</ele><time>2026-05-03T09:45:06.168Z</time></trkpt><trkpt lat="45.4644542" lon="8.6155856"><ele>156.0</ele><time>2026-05-03T09:45:07.169Z</time></trkpt><trkpt lat="45.4645671" lon="8.6155517"><ele>155.5</ele><time>2026-05-03T09:45:08.168Z</time></trkpt><trkpt lat="45.4646828" lon="8.6155243"><ele>155.0</ele><time>2026-05-03T09:45:09.169Z</time></trkpt><trkpt lat="45.4648022" lon="8.6154975"><ele>154.5</ele><time>2026-05-03T09:45:10.169Z</time></trkpt><trkpt lat="45.4649243" lon="8.6154695"><ele>154.0</ele><time>2026-05-03T09:45:11.169Z</time></trkpt><trkpt lat="45.4650523" lon="8.6154357"><ele>154.0</ele><time>2026-05-03T09:45:12.169Z</time></trkpt><trkpt lat="45.4651867" lon="8.6154015"><ele>154.0</ele><time>2026-05-03T09:45:13.168Z</time></trkpt><trkpt lat="45.4653167" lon="8.6153609"><ele>154.0</ele><time>2026-05-03T09:45:14.169Z</time></trkpt><trkpt lat="45.4654365" lon="8.6153271"><ele>154.0</ele><time>2026-05-03T09:45:15.168Z</time></trkpt><trkpt lat="45.4655525" lon="8.6152979"><ele>154.0</ele><time>2026-05-03T09:45:16.168Z</time></trkpt><trkpt lat="45.4656658" lon="8.615268"><ele>154.0</ele><time>2026-05-03T09:45:17.169Z</time></trkpt><trkpt lat="45.4657788" lon="8.615236"><ele>154.0</ele><time>2026-05-03T09:45:18.169Z</time></trkpt><trkpt lat="45.4658964" lon="8.6152007"><ele>154.0</ele><time>2026-05-03T09:45:19.168Z</time></trkpt><trkpt lat="45.466014" lon="8.6151698"><ele>154.0</ele><time>2026-05-03T09:45:20.168Z</time></trkpt><trkpt lat="45.4661391" lon="8.6151344"><ele>154.0</ele><time>2026-05-03T09:45:21.169Z</time></trkpt><trkpt lat="45.4662678" lon="8.6151017"><ele>154.0</ele><time>2026-05-03T09:45:22.168Z</time></trkpt><trkpt lat="45.466405" lon="8.6150709"><ele>154.0</ele><time>2026-05-03T09:45:23.168Z</time></trkpt><trkpt lat="45.4665421" lon="8.6150409"><ele>154.5</ele><time>2026-05-03T09:45:24.169Z</time></trkpt><trkpt lat="45.466681" lon="8.6150104"><ele>155.0</ele><time>2026-05-03T09:45:25.168Z</time></trkpt><trkpt lat="45.46682" lon="8.6149797"><ele>155.5</ele><time>2026-05-03T09:45:26.169Z</time></trkpt><trkpt lat="45.4669552" lon="8.6149477"><ele>156.0</ele><time>2026-05-03T09:45:27.168Z</time></trkpt><trkpt lat="45.4670842" lon="8.6149119"><ele>156.0</ele><time>2026-05-03T09:45:28.169Z</time></trkpt><trkpt lat="45.4672098" lon="8.6148786"><ele>156.0</ele><time>2026-05-03T09:45:29.169Z</time></trkpt><trkpt lat="45.4673258" lon="8.6148513"><ele>156.0</ele><time>2026-05-03T09:45:30.168Z</time></trkpt><trkpt lat="45.4674293" lon="8.6148274"><ele>156.0</ele><time>2026-05-03T09:45:31.168Z</time></trkpt><trkpt lat="45.4675282" lon="8.6148103"><ele>156.0</ele><time>2026-05-03T09:45:32.169Z</time></trkpt><trkpt lat="45.4676205" lon="8.6147902"><ele>156.0</ele><time>2026-05-03T09:45:33.169Z</time></trkpt><trkpt lat="45.4677075" lon="8.6147702"><ele>156.0</ele><time>2026-05-03T09:45:34.169Z</time></trkpt><trkpt lat="45.4677925" lon="8.614751"><ele>156.0</ele><time>2026-05-03T09:45:35.169Z</time></trkpt><trkpt lat="45.4678681" lon="8.6147339"><ele>156.0</ele><time>2026-05-03T09:45:36.168Z</time></trkpt><trkpt lat="45.4679478" lon="8.6147104"><ele>156.0</ele><time>2026-05-03T09:45:37.169Z</time></trkpt><trkpt lat="45.4680348" lon="8.6146795"><ele>156.0</ele><time>2026-05-03T09:45:38.168Z</time></trkpt><trkpt lat="45.4681298" lon="8.6146533"><ele>156.0</ele><time>2026-05-03T09:45:39.169Z</time></trkpt><trkpt lat="45.4682211" lon="8.6146343"><ele>156.0</ele><time>2026-05-03T09:45:40.169Z</time></trkpt><trkpt lat="45.4683086" lon="8.6146079"><ele>156.0</ele><time>2026-05-03T09:45:41.169Z</time></trkpt><trkpt lat="45.4683878" lon="8.6145831"><ele>156.0</ele><time>2026-05-03T09:45:42.169Z</time></trkpt><trkpt lat="45.4684934" lon="8.61457"><ele>156.0</ele><time>2026-05-03T09:45:44.169Z</time></trkpt><trkpt lat="45.4685913" lon="8.6145524"><ele>156.0</ele><time>2026-05-03T09:45:52.168Z</time></trkpt><trkpt lat="45.4686648" lon="8.6145444"><ele>156.0</ele><time>2026-05-03T09:45:53.169Z</time></trkpt><trkpt lat="45.4687512" lon="8.6145152"><ele>156.0</ele><time>2026-05-03T09:45:54.169Z</time></trkpt><trkpt lat="45.4688587" lon="8.6144947"><ele>156.0</ele><time>2026-05-03T09:45:55.168Z</time></trkpt><trkpt lat="45.4689826" lon="8.6144553"><ele>155.5</ele><time>2026-05-03T09:45:56.169Z</time></trkpt><trkpt lat="45.469114" lon="8.6144191"><ele>155.0</ele><time>2026-05-03T09:45:57.169Z</time></trkpt><trkpt lat="45.4692551" lon="8.6143784"><ele>154.5</ele><time>2026-05-03T09:45:58.169Z</time></trkpt><trkpt lat="45.4694082" lon="8.6143344"><ele>154.0</ele><time>2026-05-03T09:45:59.168Z</time></trkpt><trkpt lat="45.4695601" lon="8.6142965"><ele>153.66666666666669</ele><time>2026-05-03T09:46:00.169Z</time></trkpt><trkpt lat="45.4697112" lon="8.6142562"><ele>153.33333333333334</ele><time>2026-05-03T09:46:01.168Z</time></trkpt><trkpt lat="45.4698671" lon="8.6142194"><ele>153.0</ele><time>2026-05-03T09:46:02.169Z</time></trkpt><trkpt lat="45.4700214" lon="8.6141786"><ele>153.0</ele><time>2026-05-03T09:46:03.169Z</time></trkpt><trkpt lat="45.4701649" lon="8.6141375"><ele>153.0</ele><time>2026-05-03T09:46:04.169Z</time></trkpt><trkpt lat="45.4703065" lon="8.6141007"><ele>153.0</ele><time>2026-05-03T09:46:05.169Z</time></trkpt><trkpt lat="45.4704463" lon="8.6140664"><ele>153.0</ele><time>2026-05-03T09:46:06.168Z</time></trkpt><trkpt lat="45.470581" lon="8.6140288"><ele>153.5</ele><time>2026-05-03T09:46:07.169Z</time></trkpt><trkpt lat="45.470715" lon="8.6139973"><ele>154.0</ele><time>2026-05-03T09:46:08.169Z</time></trkpt><trkpt lat="45.4708441" lon="8.6139642"><ele>154.5</ele><time>2026-05-03T09:46:09.169Z</time></trkpt><trkpt lat="45.4709748" lon="8.6139317"><ele>155.0</ele><time>2026-05-03T09:46:10.169Z</time></trkpt><trkpt lat="45.4711064" lon="8.6138927"><ele>155.0</ele><time>2026-05-03T09:46:11.168Z</time></trkpt><trkpt lat="45.4712381" lon="8.6138465"><ele>155.0</ele><time>2026-05-03T09:46:12.169Z</time></trkpt><trkpt lat="45.4713746" lon="8.6138252"><ele>155.0</ele><time>2026-05-03T09:46:13.169Z</time></trkpt><trkpt lat="45.4715182" lon="8.6137765"><ele>155.0</ele><time>2026-05-03T09:46:14.168Z</time></trkpt><trkpt lat="45.4716732" lon="8.6137267"><ele>155.0</ele><time>2026-05-03T09:46:15.169Z</time></trkpt><trkpt lat="45.4718196" lon="8.6136802"><ele>155.0</ele><time>2026-05-03T09:46:16.169Z</time></trkpt><trkpt lat="45.471963" lon="8.6136398"><ele>155.0</ele><time>2026-05-03T09:46:17.169Z</time></trkpt><trkpt lat="45.4721135" lon="8.6135896"><ele>155.0</ele><time>2026-05-03T09:46:18.168Z</time></trkpt><trkpt lat="45.4722679" lon="8.6135534"><ele>155.0</ele><time>2026-05-03T09:46:19.168Z</time></trkpt><trkpt lat="45.4724207" lon="8.6135132"><ele>155.0</ele><time>2026-05-03T09:46:20.169Z</time></trkpt><trkpt lat="45.4725733" lon="8.6134756"><ele>155.0</ele><time>2026-05-03T09:46:21.169Z</time></trkpt><trkpt lat="45.4727224" lon="8.6134424"><ele>155.0</ele><time>2026-05-03T09:46:22.168Z</time></trkpt><trkpt lat="45.4728707" lon="8.6134107"><ele>155.0</ele><time>2026-05-03T09:46:23.169Z</time></trkpt><trkpt lat="45.4730215" lon="8.6133697"><ele>155.0</ele><time>2026-05-03T09:46:24.168Z</time></trkpt><trkpt lat="45.4731752" lon="8.6133305"><ele>155.0</ele><time>2026-05-03T09:46:25.169Z</time></trkpt><trkpt lat="45.4733321" lon="8.6132902"><ele>155.0</ele><time>2026-05-03T09:46:26.169Z</time></trkpt><trkpt lat="45.4734885" lon="8.6132548"><ele>155.0</ele><time>2026-05-03T09:46:27.169Z</time></trkpt><trkpt lat="45.4736471" lon="8.6132183"><ele>155.0</ele><time>2026-05-03T09:46:28.169Z</time></trkpt><trkpt lat="45.4738051" lon="8.6131737"><ele>155.0</ele><time>2026-05-03T09:46:29.168Z</time></trkpt><trkpt lat="45.4739607" lon="8.6131321"><ele>155.33333333333331</ele><time>2026-05-03T09:46:30.168Z</time></trkpt><trkpt lat="45.4741195" lon="8.6130891"><ele>155.66666666666666</ele><time>2026-05-03T09:46:31.168Z</time></trkpt><trkpt lat="45.4742791" lon="8.6130533"><ele>156.0</ele><time>2026-05-03T09:46:32.168Z</time></trkpt><trkpt lat="45.4744367" lon="8.6130139"><ele>156.0</ele><time>2026-05-03T09:46:33.169Z</time></trkpt><trkpt lat="45.4745976" lon="8.6129724"><ele>156.0</ele><time>2026-05-03T09:46:34.169Z</time></trkpt><trkpt lat="45.4747551" lon="8.6129306"><ele>156.0</ele><time>2026-05-03T09:46:35.168Z</time></trkpt><trkpt lat="45.4749127" lon="8.612887"><ele>156.0</ele><time>2026-05-03T09:46:36.168Z</time></trkpt><trkpt lat="45.4750664" lon="8.6128494"><ele>156.0</ele><time>2026-05-03T09:46:37.169Z</time></trkpt><trkpt lat="45.4752162" lon="8.6128057"><ele>156.0</ele><time>2026-05-03T09:46:38.168Z</time></trkpt><trkpt lat="45.4753575" lon="8.6127719"><ele>156.5</ele><time>2026-05-03T09:46:39.169Z</time></trkpt><trkpt lat="45.4754984" lon="8.6127312"><ele>157.0</ele><time>2026-05-03T09:46:40.168Z</time></trkpt><trkpt lat="45.4756387" lon="8.6126907"><ele>157.5</ele><time>2026-05-03T09:46:41.169Z</time></trkpt><trkpt lat="45.4757827" lon="8.6126495"><ele>158.0</ele><time>2026-05-03T09:46:42.169Z</time></trkpt><trkpt lat="45.4759253" lon="8.6126144"><ele>158.0</ele><time>2026-05-03T09:46:43.169Z</time></trkpt><trkpt lat="45.4760639" lon="8.61258"><ele>158.0</ele><time>2026-05-03T09:46:44.169Z</time></trkpt><trkpt lat="45.4762035" lon="8.6125448"><ele>158.0</ele><time>2026-05-03T09:46:45.169Z</time></trkpt><trkpt lat="45.4763382" lon="8.612509"><ele>158.0</ele><time>2026-05-03T09:46:46.168Z</time></trkpt><trkpt lat="45.476467" lon="8.6124701"><ele>158.0</ele><time>2026-05-03T09:46:47.169Z</time></trkpt><trkpt lat="45.476592" lon="8.6124375"><ele>158.0</ele><time>2026-05-03T09:46:48.168Z</time></trkpt><trkpt lat="45.4767156" lon="8.6124014"><ele>158.0</ele><time>2026-05-03T09:46:49.169Z</time></trkpt><trkpt lat="45.4768468" lon="8.612359"><ele>158.0</ele><time>2026-05-03T09:46:50.169Z</time></trkpt><trkpt lat="45.4769839" lon="8.6123193"><ele>158.0</ele><time>2026-05-03T09:46:51.169Z</time></trkpt><trkpt lat="45.4771302" lon="8.6122779"><ele>158.0</ele><time>2026-05-03T09:46:52.169Z</time></trkpt><trkpt lat="45.4772727" lon="8.6122364"><ele>158.0</ele><time>2026-05-03T09:46:53.169Z</time></trkpt><trkpt lat="45.4774182" lon="8.6121924"><ele>158.0</ele><time>2026-05-03T09:46:54.169Z</time></trkpt><trkpt lat="45.4775598" lon="8.6121475"><ele>158.0</ele><time>2026-05-03T09:46:55.169Z</time></trkpt><trkpt lat="45.4777003" lon="8.6121031"><ele>158.0</ele><time>2026-05-03T09:46:56.169Z</time></trkpt><trkpt lat="45.4778394" lon="8.6120548"><ele>158.0</ele><time>2026-05-03T09:46:57.169Z</time></trkpt><trkpt lat="45.4779789" lon="8.6120101"><ele>158.0</ele><time>2026-05-03T09:46:58.168Z</time></trkpt><trkpt lat="45.4781182" lon="8.6119608"><ele>158.33333333333331</ele><time>2026-05-03T09:46:59.168Z</time></trkpt><trkpt lat="45.4782637" lon="8.6119168"><ele>158.66666666666666</ele><time>2026-05-03T09:47:00.168Z</time></trkpt><trkpt lat="45.4784114" lon="8.6118693"><ele>159.0</ele><time>2026-05-03T09:47:01.168Z</time></trkpt><trkpt lat="45.4785616" lon="8.6118189"><ele>159.0</ele><time>2026-05-03T09:47:02.169Z</time></trkpt><trkpt lat="45.4787148" lon="8.6117673"><ele>159.0</ele><time>2026-05-03T09:47:03.169Z</time></trkpt><trkpt lat="45.4788624" lon="8.6117187"><ele>159.0</ele><time>2026-05-03T09:47:04.169Z</time></trkpt><trkpt lat="45.479009" lon="8.6116744"><ele>159.0</ele><time>2026-05-03T09:47:05.168Z</time></trkpt><trkpt lat="45.4791582" lon="8.6116223"><ele>159.0</ele><time>2026-05-03T09:47:06.169Z</time></trkpt><trkpt lat="45.4793113" lon="8.6115757"><ele>159.0</ele><time>2026-05-03T09:47:07.168Z</time></trkpt><trkpt lat="45.4794611" lon="8.6115302"><ele>159.0</ele><time>2026-05-03T09:47:08.169Z</time></trkpt><trkpt lat="45.4796119" lon="8.6114791"><ele>159.0</ele><time>2026-05-03T09:47:09.168Z</time></trkpt><trkpt lat="45.4797685" lon="8.6114348"><ele>159.0</ele><time>2026-05-03T09:47:10.168Z</time></trkpt><trkpt lat="45.479925" lon="8.6113828"><ele>159.0</ele><time>2026-05-03T09:47:11.169Z</time></trkpt><trkpt lat="45.4800753" lon="8.6113287"><ele>159.0</ele><time>2026-05-03T09:47:12.169Z</time></trkpt><trkpt lat="45.4802228" lon="8.6112829"><ele>159.0</ele><time>2026-05-03T09:47:13.169Z</time></trkpt><trkpt lat="45.4803597" lon="8.6112407"><ele>159.0</ele><time>2026-05-03T09:47:14.168Z</time></trkpt><trkpt lat="45.4804912" lon="8.6111937"><ele>159.25</ele><time>2026-05-03T09:47:15.169Z</time></trkpt><trkpt lat="45.480616" lon="8.6111489"><ele>159.5</ele><time>2026-05-03T09:47:16.169Z</time></trkpt><trkpt lat="45.4807365" lon="8.6111102"><ele>159.75</ele><time>2026-05-03T09:47:17.169Z</time></trkpt><trkpt lat="45.48086" lon="8.6110704"><ele>160.0</ele><time>2026-05-03T09:47:18.169Z</time></trkpt><trkpt lat="45.4809904" lon="8.6110249"><ele>160.0</ele><time>2026-05-03T09:47:19.169Z</time></trkpt><trkpt lat="45.4811256" lon="8.6109746"><ele>160.0</ele><time>2026-05-03T09:47:20.168Z</time></trkpt><trkpt lat="45.4812668" lon="8.6109253"><ele>160.0</ele><time>2026-05-03T09:47:21.169Z</time></trkpt><trkpt lat="45.4814086" lon="8.610874"><ele>160.0</ele><time>2026-05-03T09:47:22.169Z</time></trkpt><trkpt lat="45.4815471" lon="8.6108228"><ele>160.25</ele><time>2026-05-03T09:47:23.168Z</time></trkpt><trkpt lat="45.4816851" lon="8.610777"><ele>160.5</ele><time>2026-05-03T09:47:24.168Z</time></trkpt><trkpt lat="45.4818138" lon="8.6107325"><ele>160.75</ele><time>2026-05-03T09:47:25.169Z</time></trkpt><trkpt lat="45.4819459" lon="8.6106871"><ele>161.0</ele><time>2026-05-03T09:47:26.169Z</time></trkpt><trkpt lat="45.4820737" lon="8.6106445"><ele>160.75</ele><time>2026-05-03T09:47:27.169Z</time></trkpt><trkpt lat="45.4821969" lon="8.6105996"><ele>160.5</ele><time>2026-05-03T09:47:28.168Z</time></trkpt><trkpt lat="45.4823175" lon="8.6105598"><ele>160.25</ele><time>2026-05-03T09:47:29.169Z</time></trkpt><trkpt lat="45.4824308" lon="8.610523"><ele>160.0</ele><time>2026-05-03T09:47:30.168Z</time></trkpt><trkpt lat="45.48254" lon="8.6104829"><ele>160.0</ele><time>2026-05-03T09:47:31.169Z</time></trkpt><trkpt lat="45.4826473" lon="8.6104406"><ele>160.0</ele><time>2026-05-03T09:47:32.168Z</time></trkpt><trkpt lat="45.4827559" lon="8.6103967"><ele>160.0</ele><time>2026-05-03T09:47:33.169Z</time></trkpt><trkpt lat="45.4828691" lon="8.6103552"><ele>160.0</ele><time>2026-05-03T09:47:34.169Z</time></trkpt><trkpt lat="45.48299" lon="8.6103095"><ele>160.5</ele><time>2026-05-03T09:47:35.169Z</time></trkpt><trkpt lat="45.4831167" lon="8.6102723"><ele>161.0</ele><time>2026-05-03T09:47:36.169Z</time></trkpt><trkpt lat="45.4832442" lon="8.6102344"><ele>161.5</ele><time>2026-05-03T09:47:37.169Z</time></trkpt><trkpt lat="45.4833726" lon="8.6101994"><ele>162.0</ele><time>2026-05-03T09:47:38.169Z</time></trkpt><trkpt lat="45.4835024" lon="8.61017"><ele>162.0</ele><time>2026-05-03T09:47:39.169Z</time></trkpt><trkpt lat="45.4836252" lon="8.6101436"><ele>162.0</ele><time>2026-05-03T09:47:40.168Z</time></trkpt><trkpt lat="45.483738" lon="8.6101161"><ele>162.0</ele><time>2026-05-03T09:47:41.168Z</time></trkpt><trkpt lat="45.4838439" lon="8.6100888"><ele>162.0</ele><time>2026-05-03T09:47:42.169Z</time></trkpt><trkpt lat="45.483948" lon="8.6100651"><ele>162.0</ele><time>2026-05-03T09:47:43.169Z</time></trkpt><trkpt lat="45.4840509" lon="8.610039"><ele>162.0</ele><time>2026-05-03T09:47:44.169Z</time></trkpt><trkpt lat="45.484165" lon="8.6100212"><ele>162.0</ele><time>2026-05-03T09:47:45.169Z</time></trkpt><trkpt lat="45.484278" lon="8.6100123"><ele>162.0</ele><time>2026-05-03T09:47:46.169Z</time></trkpt><trkpt lat="45.4843922" lon="8.6099964"><ele>162.0</ele><time>2026-05-03T09:47:47.169Z</time></trkpt><trkpt lat="45.4845104" lon="8.609973"><ele>162.0</ele><time>2026-05-03T09:47:48.168Z</time></trkpt><trkpt lat="45.4846339" lon="8.6099485"><ele>162.0</ele><time>2026-05-03T09:47:49.168Z</time></trkpt><trkpt lat="45.4847579" lon="8.6099233"><ele>162.0</ele><time>2026-05-03T09:47:50.169Z</time></trkpt><trkpt lat="45.4848702" lon="8.6099132"><ele>162.0</ele><time>2026-05-03T09:47:51.168Z</time></trkpt><trkpt lat="45.4849767" lon="8.6098961"><ele>162.0</ele><time>2026-05-03T09:47:52.169Z</time></trkpt><trkpt lat="45.4850732" lon="8.6098816"><ele>162.0</ele><time>2026-05-03T09:47:53.168Z</time></trkpt><trkpt lat="45.485163" lon="8.6098632"><ele>162.0</ele><time>2026-05-03T09:47:54.169Z</time></trkpt><trkpt lat="45.4852588" lon="8.6098493"><ele>162.0</ele><time>2026-05-03T09:47:55.169Z</time></trkpt><trkpt lat="45.4853605" lon="8.6098332"><ele>162.0</ele><time>2026-05-03T09:47:56.168Z</time></trkpt><trkpt lat="45.4854757" lon="8.6098235"><ele>162.25</ele><time>2026-05-03T09:47:57.168Z</time></trkpt><trkpt lat="45.4856005" lon="8.6098086"><ele>162.5</ele><time>2026-05-03T09:47:58.168Z</time></trkpt><trkpt lat="45.4857356" lon="8.6097947"><ele>162.75</ele><time>2026-05-03T09:47:59.168Z</time></trkpt><trkpt lat="45.4858791" lon="8.6097789"><ele>163.0</ele><time>2026-05-03T09:48:00.169Z</time></trkpt><trkpt lat="45.4860221" lon="8.609762"><ele>163.0</ele><time>2026-05-03T09:48:01.169Z</time></trkpt><trkpt lat="45.4861697" lon="8.6097378"><ele>163.0</ele><time>2026-05-03T09:48:02.168Z</time></trkpt><trkpt lat="45.4863195" lon="8.6097149"><ele>163.0</ele><time>2026-05-03T09:48:03.169Z</time></trkpt><trkpt lat="45.4864777" lon="8.6096863"><ele>163.0</ele><time>2026-05-03T09:48:04.168Z</time></trkpt><trkpt lat="45.4866566" lon="8.6096537"><ele>163.0</ele><time>2026-05-03T09:48:05.168Z</time></trkpt><trkpt lat="45.4868535" lon="8.6096148"><ele>163.0</ele><time>2026-05-03T09:48:06.169Z</time></trkpt><trkpt lat="45.4870672" lon="8.6095762"><ele>161.5</ele><time>2026-05-03T09:48:07.169Z</time></trkpt><trkpt lat="45.4872919" lon="8.6095269"><ele>160.0</ele><time>2026-05-03T09:48:08.168Z</time></trkpt><trkpt lat="45.4875299" lon="8.6094754"><ele>160.0</ele><time>2026-05-03T09:48:09.169Z</time></trkpt><trkpt lat="45.4877807" lon="8.6094217"><ele>160.0</ele><time>2026-05-03T09:48:10.169Z</time></trkpt><trkpt lat="45.4880307" lon="8.6093709"><ele>160.0</ele><time>2026-05-03T09:48:11.169Z</time></trkpt><trkpt lat="45.4882763" lon="8.609323"><ele>160.0</ele><time>2026-05-03T09:48:12.169Z</time></trkpt><trkpt lat="45.4885279" lon="8.6092745"><ele>161.0</ele><time>2026-05-03T09:48:13.168Z</time></trkpt><trkpt lat="45.4887749" lon="8.6092264"><ele>162.0</ele><time>2026-05-03T09:48:14.168Z</time></trkpt><trkpt lat="45.4890201" lon="8.6091769"><ele>162.0</ele><time>2026-05-03T09:48:15.169Z</time></trkpt><trkpt lat="45.4892657" lon="8.6091211"><ele>162.0</ele><time>2026-05-03T09:48:16.168Z</time></trkpt><trkpt lat="45.4895084" lon="8.6090584"><ele>162.5</ele><time>2026-05-03T09:48:17.169Z</time></trkpt><trkpt lat="45.4897512" lon="8.6089844"><ele>163.0</ele><time>2026-05-03T09:48:18.169Z</time></trkpt><trkpt lat="45.4899925" lon="8.6088913"><ele>163.0</ele><time>2026-05-03T09:48:19.169Z</time></trkpt><trkpt lat="45.4902316" lon="8.6087824"><ele>163.0</ele><time>2026-05-03T09:48:20.169Z</time></trkpt><trkpt lat="45.4904684" lon="8.6086662"><ele>162.5</ele><time>2026-05-03T09:48:21.168Z</time></trkpt><trkpt lat="45.4907083" lon="8.6085388"><ele>162.0</ele><time>2026-05-03T09:48:22.169Z</time></trkpt><trkpt lat="45.4909507" lon="8.6084059"><ele>162.0</ele><time>2026-05-03T09:48:23.169Z</time></trkpt><trkpt lat="45.4911882" lon="8.6082669"><ele>162.0</ele><time>2026-05-03T09:48:24.169Z</time></trkpt><trkpt lat="45.4914279" lon="8.608125"><ele>162.0</ele><time>2026-05-03T09:48:25.168Z</time></trkpt><trkpt lat="45.4916669" lon="8.6079857"><ele>162.0</ele><time>2026-05-03T09:48:26.168Z</time></trkpt><trkpt lat="45.4919031" lon="8.607851"><ele>162.5</ele><time>2026-05-03T09:48:27.169Z</time></trkpt><trkpt lat="45.4921406" lon="8.6077067"><ele>163.0</ele><time>2026-05-03T09:48:28.169Z</time></trkpt><trkpt lat="45.4923804" lon="8.6075654"><ele>163.0</ele><time>2026-05-03T09:48:29.169Z</time></trkpt><trkpt lat="45.492622" lon="8.6074226"><ele>163.0</ele><time>2026-05-03T09:48:30.169Z</time></trkpt><trkpt lat="45.4928571" lon="8.6072817"><ele>163.5</ele><time>2026-05-03T09:48:31.168Z</time></trkpt><trkpt lat="45.4930826" lon="8.607147"><ele>164.0</ele><time>2026-05-03T09:48:32.169Z</time></trkpt><trkpt lat="45.4933014" lon="8.6070181"><ele>164.33333333333331</ele><time>2026-05-03T09:48:33.169Z</time></trkpt><trkpt lat="45.4935098" lon="8.6068983"><ele>164.66666666666666</ele><time>2026-05-03T09:48:34.169Z</time></trkpt><trkpt lat="45.493713" lon="8.6067811"><ele>165.0</ele><time>2026-05-03T09:48:35.169Z</time></trkpt><trkpt lat="45.4939114" lon="8.6066662"><ele>165.0</ele><time>2026-05-03T09:48:36.169Z</time></trkpt><trkpt lat="45.4941084" lon="8.6065528"><ele>165.0</ele><time>2026-05-03T09:48:37.169Z</time></trkpt><trkpt lat="45.4943018" lon="8.60644"><ele>165.0</ele><time>2026-05-03T09:48:38.169Z</time></trkpt><trkpt lat="45.4944932" lon="8.6063256"><ele>165.0</ele><time>2026-05-03T09:48:39.168Z</time></trkpt><trkpt lat="45.4946842" lon="8.6062146"><ele>165.0</ele><time>2026-05-03T09:48:40.168Z</time></trkpt><trkpt lat="45.494881" lon="8.6061011"><ele>165.0</ele><time>2026-05-03T09:48:41.168Z</time></trkpt><trkpt lat="45.4950803" lon="8.605986"><ele>165.33333333333334</ele><time>2026-05-03T09:48:42.169Z</time></trkpt><trkpt lat="45.4952784" lon="8.6058665"><ele>165.66666666666669</ele><time>2026-05-03T09:48:43.168Z</time></trkpt><trkpt lat="45.4954754" lon="8.605749"><ele>166.0</ele><time>2026-05-03T09:48:44.169Z</time></trkpt><trkpt lat="45.4956752" lon="8.60563"><ele>165.66666666666669</ele><time>2026-05-03T09:48:45.169Z</time></trkpt><trkpt lat="45.4958627" lon="8.6055052"><ele>165.33333333333334</ele><time>2026-05-03T09:48:46.169Z</time></trkpt><trkpt lat="45.4960425" lon="8.6053826"><ele>165.0</ele><time>2026-05-03T09:48:47.169Z</time></trkpt><trkpt lat="45.4962106" lon="8.6052687"><ele>164.66666666666666</ele><time>2026-05-03T09:48:48.169Z</time></trkpt><trkpt lat="45.4963697" lon="8.6051668"><ele>164.33333333333331</ele><time>2026-05-03T09:48:49.168Z</time></trkpt><trkpt lat="45.4965243" lon="8.6050747"><ele>164.0</ele><time>2026-05-03T09:48:50.169Z</time></trkpt><trkpt lat="45.496672" lon="8.6050007"><ele>164.0</ele><time>2026-05-03T09:48:51.169Z</time></trkpt><trkpt lat="45.496818" lon="8.6049519"><ele>164.0</ele><time>2026-05-03T09:48:52.169Z</time></trkpt><trkpt lat="45.496961" lon="8.6049044"><ele>164.0</ele><time>2026-05-03T09:48:53.169Z</time></trkpt><trkpt lat="45.4970959" lon="8.604854"><ele>164.0</ele><time>2026-05-03T09:48:54.169Z</time></trkpt><trkpt lat="45.4972202" lon="8.6048016"><ele>164.5</ele><time>2026-05-03T09:48:55.169Z</time></trkpt><trkpt lat="45.4973403" lon="8.6047508"><ele>165.0</ele><time>2026-05-03T09:48:56.169Z</time></trkpt><trkpt lat="45.4974572" lon="8.6047118"><ele>165.5</ele><time>2026-05-03T09:48:57.169Z</time></trkpt><trkpt lat="45.4975689" lon="8.6046684"><ele>166.0</ele><time>2026-05-03T09:48:58.169Z</time></trkpt><trkpt lat="45.4976796" lon="8.6046104"><ele>166.0</ele><time>2026-05-03T09:48:59.169Z</time></trkpt><trkpt lat="45.4977838" lon="8.6045001"><ele>166.0</ele><time>2026-05-03T09:49:00.169Z</time></trkpt><trkpt lat="45.4978916" lon="8.6043666"><ele>166.0</ele><time>2026-05-03T09:49:01.168Z</time></trkpt><trkpt lat="45.4980135" lon="8.6042261"><ele>166.0</ele><time>2026-05-03T09:49:02.168Z</time></trkpt><trkpt lat="45.4981355" lon="8.60406"><ele>165.66666666666669</ele><time>2026-05-03T09:49:03.169Z</time></trkpt><trkpt lat="45.4982683" lon="8.6038949"><ele>165.33333333333334</ele><time>2026-05-03T09:49:04.169Z</time></trkpt><trkpt lat="45.498412" lon="8.6037192"><ele>165.0</ele><time>2026-05-03T09:49:05.169Z</time></trkpt><trkpt lat="45.4985696" lon="8.6035356"><ele>165.0</ele><time>2026-05-03T09:49:06.168Z</time></trkpt><trkpt lat="45.4987461" lon="8.6033581"><ele>165.0</ele><time>2026-05-03T09:49:07.169Z</time></trkpt><trkpt lat="45.4989306" lon="8.6031873"><ele>165.0</ele><time>2026-05-03T09:49:08.169Z</time></trkpt><trkpt lat="45.4991193" lon="8.6030221"><ele>165.5</ele><time>2026-05-03T09:49:09.169Z</time></trkpt><trkpt lat="45.499316" lon="8.602862"><ele>166.0</ele><time>2026-05-03T09:49:10.169Z</time></trkpt><trkpt lat="45.4995154" lon="8.6027"><ele>166.0</ele><time>2026-05-03T09:49:11.168Z</time></trkpt><trkpt lat="45.4997236" lon="8.6025345"><ele>166.0</ele><time>2026-05-03T09:49:12.169Z</time></trkpt><trkpt lat="45.4999413" lon="8.6023656"><ele>166.0</ele><time>2026-05-03T09:49:13.169Z</time></trkpt><trkpt lat="45.5001617" lon="8.6021909"><ele>166.0</ele><time>2026-05-03T09:49:14.169Z</time></trkpt><trkpt lat="45.5003907" lon="8.6020108"><ele>166.0</ele><time>2026-05-03T09:49:15.168Z</time></trkpt><trkpt lat="45.5006234" lon="8.6018226"><ele>166.0</ele><time>2026-05-03T09:49:16.168Z</time></trkpt><trkpt lat="45.5008573" lon="8.6016312"><ele>166.0</ele><time>2026-05-03T09:49:17.169Z</time></trkpt><trkpt lat="45.5011014" lon="8.6014415"><ele>166.0</ele><time>2026-05-03T09:49:18.169Z</time></trkpt><trkpt lat="45.5013473" lon="8.6012519"><ele>166.5</ele><time>2026-05-03T09:49:19.169Z</time></trkpt><trkpt lat="45.5015998" lon="8.601066"><ele>167.0</ele><time>2026-05-03T09:49:20.168Z</time></trkpt><trkpt lat="45.5018536" lon="8.6008756"><ele>166.5</ele><time>2026-05-03T09:49:21.169Z</time></trkpt><trkpt lat="45.5021077" lon="8.6006769"><ele>166.0</ele><time>2026-05-03T09:49:22.169Z</time></trkpt><trkpt lat="45.5023626" lon="8.6004759"><ele>166.0</ele><time>2026-05-03T09:49:23.169Z</time></trkpt><trkpt lat="45.5026141" lon="8.6002733"><ele>166.0</ele><time>2026-05-03T09:49:24.169Z</time></trkpt><trkpt lat="45.5028575" lon="8.6000805"><ele>166.5</ele><time>2026-05-03T09:49:25.168Z</time></trkpt><trkpt lat="45.5030947" lon="8.5998944"><ele>167.0</ele><time>2026-05-03T09:49:26.168Z</time></trkpt><trkpt lat="45.5033249" lon="8.5997149"><ele>167.0</ele><time>2026-05-03T09:49:27.169Z</time></trkpt><trkpt lat="45.5035495" lon="8.5995359"><ele>167.0</ele><time>2026-05-03T09:49:28.168Z</time></trkpt><trkpt lat="45.5037693" lon="8.5993617"><ele>168.0</ele><time>2026-05-03T09:49:29.168Z</time></trkpt><trkpt lat="45.5039851" lon="8.5991943"><ele>169.0</ele><time>2026-05-03T09:49:30.169Z</time></trkpt><trkpt lat="45.5041961" lon="8.599027"><ele>169.0</ele><time>2026-05-03T09:49:31.168Z</time></trkpt><trkpt lat="45.5044042" lon="8.5988574"><ele>169.0</ele><time>2026-05-03T09:49:32.168Z</time></trkpt><trkpt lat="45.5046069" lon="8.5986955"><ele>169.66666666666669</ele><time>2026-05-03T09:49:33.169Z</time></trkpt><trkpt lat="45.5048055" lon="8.5985376"><ele>170.33333333333334</ele><time>2026-05-03T09:49:34.169Z</time></trkpt><trkpt lat="45.5049963" lon="8.598388"><ele>171.0</ele><time>2026-05-03T09:49:35.168Z</time></trkpt><trkpt lat="45.5051781" lon="8.5982429"><ele>171.0</ele><time>2026-05-03T09:49:36.169Z</time></trkpt><trkpt lat="45.5053499" lon="8.5981073"><ele>171.0</ele><time>2026-05-03T09:49:37.169Z</time></trkpt><trkpt lat="45.5055068" lon="8.597989"><ele>171.0</ele><time>2026-05-03T09:49:38.169Z</time></trkpt><trkpt lat="45.5056448" lon="8.5978823"><ele>170.8</ele><time>2026-05-03T09:49:39.169Z</time></trkpt><trkpt lat="45.5057659" lon="8.5977995"><ele>170.60000000000002</ele><time>2026-05-03T09:49:40.169Z</time></trkpt><trkpt lat="45.5058727" lon="8.5977383"><ele>170.4</ele><time>2026-05-03T09:49:41.168Z</time></trkpt><trkpt lat="45.505964" lon="8.5976898"><ele>170.2</ele><time>2026-05-03T09:49:42.168Z</time></trkpt><trkpt lat="45.5060471" lon="8.5976612"><ele>170.0</ele><time>2026-05-03T09:49:43.168Z</time></trkpt><trkpt lat="45.5061163" lon="8.5976443"><ele>170.0</ele><time>2026-05-03T09:49:44.169Z</time></trkpt><trkpt lat="45.5062208" lon="8.5976323"><ele>170.0</ele><time>2026-05-03T09:49:46.169Z</time></trkpt><trkpt lat="45.506296" lon="8.59763"><ele>169.0</ele><time>2026-05-03T09:49:48.168Z</time></trkpt><trkpt lat="45.5063785" lon="8.5976206"><ele>169.0</ele><time>2026-05-03T09:49:51.168Z</time></trkpt></trkseg></trk></gpx>